[[{"header":{"parameterUnit":"m.s-1","parameterCategory":1,"la1":30.6,"la2":29.2853,"lo1":-89.7004,"lo2":-87.6739,"dy":0.0162,"dx":0.0183,"nx":112,"ny":82,"refTime":"2023-04-18T12:00:00:Z","depth":0,"parameterNumber":2,"parameterNumberName":"U-component_of_WINDS"},"data":[0.0,0.0,0.0,0.0,0.0,0.0,0.0,0.0,0.0,0.0,0.0,0.0,0.0,0.0,0.0,0.0,0.0,0.0,0.0,0.0,0.0,0.0,0.0,0.0,0.0,0.0,0.0,0.0,0.0,0.0,0.0,0.0,0.0,0.0,0.0,0.0,0.0,0.0,0.0,0.0,0.0,0.0,0.0,0.0,0.0,0.0,0.0,0.0,0.0,0.0,0.0,0.0,0.0,0.0,0.0,0.0,0.0,0.0,0.0,0.0,0.0,0.0,0.0,0.0,0.0,0.0,0.0,0.0,0.0,0.0,0.0,0.0,0.0,0.0,0.0,0.0,0.0,0.0,0.0,0.0,0.0,0.0,0.0,0.0,0.0,0.0,0.0,0.0,0.0,0.0,0.0,-4.0864,-4.5777,-4.8903,-4.902,-4.8801,-4.5773,-3.8946,0.0,0.0,0.0,0.0,0.0,0.0,0.0,0.0,0.0,0.0,0.0,0.0,0.0,0.0,0.0,0.0,0.0,0.0,0.0,0.0,0.0,0.0,0.0,0.0,0.0,0.0,0.0,0.0,0.0,0.0,0.0,0.0,0.0,0.0,0.0,0.0,0.0,0.0,0.0,0.0,0.0,0.0,0.0,0.0,0.0,0.0,0.0,0.0,0.0,0.0,0.0,0.0,0.0,0.0,0.0,0.0,0.0,0.0,0.0,0.0,0.0,0.0,0.0,0.0,0.0,0.0,0.0,0.0,0.0,0.0,0.0,0.0,0.0,0.0,0.0,0.0,0.0,0.0,0.0,0.0,0.0,0.0,0.0,0.0,0.0,0.0,0.0,0.0,0.0,0.0,0.0,0.0,0.0,0.0,0.0,0.0,0.0,0.0,0.0,0.0,0.0,0.0,0.0,0.0,-3.7107,-4.3711,-4.5577,-4.6502,-4.6912,-4.5404,-4.2505,-3.797,0.0,0.0,0.0,0.0,0.0,0.0,0.0,0.0,0.0,0.0,0.0,0.0,0.0,0.0,0.0,0.0,0.0,0.0,0.0,0.0,0.0,0.0,0.0,0.0,0.0,0.0,0.0,0.0,0.0,0.0,0.0,0.0,0.0,0.0,0.0,0.0,0.0,0.0,0.0,0.0,0.0,0.0,0.0,0.0,0.0,0.0,0.0,0.0,0.0,0.0,0.0,0.0,0.0,0.0,0.0,0.0,0.0,0.0,0.0,0.0,0.0,0.0,0.0,0.0,0.0,0.0,0.0,0.0,0.0,0.0,0.0,0.0,0.0,0.0,0.0,0.0,0.0,0.0,0.0,0.0,0.0,0.0,0.0,0.0,0.0,0.0,0.0,0.0,0.0,0.0,0.0,0.0,0.0,0.0,0.0,0.0,0.0,0.0,0.0,0.0,0.0,0.0,0.0,-3.5295,-3.8358,-4.381,-4.5249,-4.5811,-4.5795,-4.4376,-4.1605,-3.7144,-3.4976,0.0,0.0,0.0,0.0,0.0,0.0,0.0,0.0,0.0,0.0,0.0,0.0,0.0,0.0,0.0,0.0,0.0,0.0,0.0,0.0,0.0,0.0,0.0,0.0,0.0,0.0,0.0,0.0,0.0,0.0,0.0,0.0,0.0,0.0,0.0,0.0,0.0,0.0,0.0,0.0,0.0,0.0,0.0,0.0,0.0,0.0,0.0,0.0,0.0,0.0,0.0,0.0,0.0,0.0,0.0,0.0,0.0,0.0,0.0,0.0,0.0,0.0,0.0,0.0,0.0,0.0,0.0,0.0,0.0,0.0,0.0,0.0,0.0,0.0,0.0,0.0,0.0,0.0,0.0,0.0,0.0,0.0,0.0,0.0,0.0,0.0,0.0,0.0,0.0,0.0,0.0,0.0,0.0,0.0,0.0,0.0,0.0,0.0,0.0,0.0,0.0,0.0,-3.7969,-3.9895,-4.3314,-4.4783,-4.5242,-4.4578,-4.3019,-4.0265,-3.5973,-3.2466,0.0,0.0,0.0,0.0,0.0,0.0,0.0,0.0,0.0,0.0,0.0,0.0,0.0,0.0,0.0,0.0,0.0,0.0,0.0,0.0,0.0,0.0,0.0,0.0,0.0,0.0,0.0,0.0,0.0,0.0,0.0,0.0,0.0,0.0,0.0,0.0,0.0,0.0,0.0,0.0,0.0,0.0,0.0,0.0,0.0,0.0,0.0,0.0,0.0,0.0,0.0,0.0,0.0,0.0,0.0,0.0,0.0,0.0,0.0,0.0,0.0,0.0,0.0,0.0,0.0,0.0,0.0,0.0,0.0,0.0,0.0,0.0,0.0,0.0,0.0,0.0,0.0,0.0,0.0,0.0,0.0,0.0,0.0,0.0,0.0,0.0,0.0,0.0,0.0,0.0,0.0,0.0,0.0,0.0,0.0,0.0,0.0,0.0,0.0,0.0,0.0,0.0,-3.7899,-4.11,-4.3126,-4.414,-4.4083,-4.2623,-3.9693,-3.6795,-3.4137,-2.9733,0.0,0.0,0.0,0.0,0.0,0.0,0.0,0.0,0.0,0.0,0.0,0.0,0.0,0.0,0.0,0.0,0.0,0.0,0.0,0.0,0.0,0.0,0.0,0.0,0.0,0.0,0.0,0.0,0.0,0.0,0.0,0.0,0.0,0.0,0.0,0.0,0.0,0.0,0.0,0.0,0.0,0.0,0.0,0.0,0.0,0.0,0.0,0.0,0.0,0.0,0.0,0.0,0.0,0.0,0.0,0.0,0.0,0.0,0.0,0.0,0.0,0.0,0.0,0.0,0.0,0.0,0.0,0.0,0.0,0.0,0.0,0.0,0.0,0.0,0.0,0.0,0.0,0.0,0.0,0.0,0.0,0.0,0.0,0.0,0.0,0.0,0.0,0.0,0.0,0.0,0.0,0.0,0.0,0.0,0.0,0.0,0.0,0.0,0.0,0.0,0.0,0.0,-3.5546,-3.8261,0.0,-4.2331,-4.2201,-4.0919,-3.8778,-3.6005,-3.2522,0.0,0.0,0.0,0.0,0.0,0.0,0.0,0.0,0.0,0.0,0.0,0.0,0.0,0.0,0.0,0.0,0.0,0.0,0.0,0.0,0.0,0.0,0.0,0.0,0.0,0.0,0.0,0.0,0.0,0.0,0.0,0.0,0.0,0.0,0.0,0.0,0.0,0.0,0.0,0.0,0.0,0.0,0.0,0.0,0.0,0.0,0.0,0.0,0.0,0.0,0.0,0.0,0.0,0.0,0.0,0.0,0.0,0.0,0.0,0.0,0.0,0.0,0.0,0.0,0.0,0.0,0.0,0.0,0.0,0.0,0.0,0.0,0.0,0.0,0.0,0.0,0.0,0.0,0.0,0.0,0.0,0.0,0.0,0.0,0.0,0.0,0.0,0.0,0.0,0.0,0.0,0.0,0.0,0.0,0.0,0.0,0.0,0.0,0.0,0.0,0.0,0.0,-3.2083,-3.4198,-3.6587,0.0,-4.0506,-4.0383,-3.9231,-3.6942,-3.422,-3.1051,0.0,0.0,0.0,0.0,0.0,0.0,0.0,0.0,0.0,0.0,0.0,0.0,0.0,0.0,0.0,0.0,0.0,0.0,0.0,0.0,0.0,0.0,0.0,0.0,0.0,0.0,0.0,0.0,0.0,0.0,0.0,0.0,0.0,0.0,0.0,0.0,0.0,0.0,0.0,0.0,0.0,0.0,0.0,0.0,0.0,0.0,0.0,0.0,0.0,0.0,0.0,0.0,0.0,0.0,0.0,0.0,0.0,0.0,0.0,0.0,0.0,0.0,0.0,0.0,0.0,0.0,0.0,0.0,0.0,0.0,0.0,0.0,0.0,0.0,0.0,0.0,0.0,0.0,0.0,0.0,0.0,0.0,0.0,0.0,0.0,0.0,0.0,0.0,0.0,0.0,0.0,0.0,0.0,0.0,0.0,0.0,0.0,0.0,0.0,0.0,0.0,0.0,-3.1462,-3.4366,-3.6777,-3.8146,-3.8796,-3.8687,-3.7555,-3.3728,-3.0899,0.0,0.0,0.0,0.0,0.0,0.0,0.0,0.0,0.0,0.0,0.0,0.0,0.0,0.0,0.0,0.0,0.0,0.0,0.0,0.0,0.0,0.0,0.0,0.0,0.0,0.0,0.0,0.0,0.0,0.0,0.0,0.0,0.0,0.0,0.0,0.0,0.0,0.0,0.0,0.0,0.0,0.0,0.0,0.0,0.0,0.0,0.0,0.0,0.0,0.0,0.0,0.0,0.0,0.0,0.0,0.0,0.0,0.0,0.0,0.0,0.0,0.0,0.0,0.0,0.0,0.0,0.0,0.0,0.0,0.0,0.0,0.0,0.0,0.0,0.0,0.0,0.0,0.0,0.0,0.0,0.0,0.0,0.0,0.0,0.0,0.0,0.0,0.0,0.0,0.0,0.0,0.0,0.0,0.0,0.0,0.0,0.0,0.0,0.0,0.0,0.0,0.0,0.0,-3.1128,-3.3037,-3.4946,-3.6974,-3.661,-3.5874,-3.4977,-3.2228,-2.9917,-2.8454,0.0,0.0,0.0,0.0,0.0,0.0,0.0,0.0,0.0,0.0,0.0,0.0,0.0,0.0,0.0,0.0,0.0,0.0,0.0,0.0,0.0,0.0,0.0,0.0,0.0,0.0,0.0,0.0,0.0,0.0,0.0,0.0,0.0,0.0,0.0,0.0,0.0,0.0,0.0,0.0,0.0,0.0,0.0,0.0,0.0,0.0,0.0,0.0,0.0,0.0,0.0,0.0,0.0,0.0,0.0,0.0,0.0,0.0,0.0,0.0,0.0,0.0,0.0,0.0,0.0,0.0,0.0,0.0,0.0,0.0,0.0,0.0,0.0,0.0,0.0,0.0,0.0,0.0,0.0,0.0,0.0,0.0,0.0,0.0,0.0,0.0,0.0,0.0,0.0,0.0,0.0,0.0,0.0,0.0,0.0,0.0,0.0,0.0,0.0,0.0,0.0,0.0,-3.0044,-3.119,-3.2564,-3.4545,-3.4048,-3.3366,-3.2871,-3.0632,-2.864,-2.7221,0.0,0.0,0.0,0.0,0.0,0.0,0.0,0.0,0.0,0.0,0.0,0.0,0.0,0.0,0.0,0.0,0.0,0.0,0.0,0.0,0.0,0.0,0.0,0.0,0.0,0.0,0.0,0.0,0.0,0.0,0.0,0.0,0.0,0.0,0.0,0.0,0.0,0.0,0.0,0.0,0.0,0.0,0.0,0.0,0.0,0.0,0.0,0.0,0.0,0.0,0.0,0.0,0.0,0.0,0.0,0.0,0.0,0.0,0.0,0.0,0.0,0.0,0.0,0.0,0.0,0.0,0.0,0.0,0.0,0.0,0.0,0.0,0.0,0.0,0.0,0.0,0.0,0.0,0.0,0.0,0.0,0.0,0.0,0.0,0.0,0.0,0.0,0.0,0.0,0.0,0.0,0.0,0.0,0.0,0.0,0.0,0.0,0.0,0.0,0.0,0.0,0.0,-2.8434,-2.9112,-2.9992,-3.1379,-3.1265,-3.1103,-3.1176,-2.8973,-2.7174,-2.6204,0.0,0.0,0.0,0.0,0.0,0.0,0.0,0.0,0.0,0.0,0.0,0.0,0.0,0.0,0.0,0.0,0.0,0.0,0.0,0.0,0.0,0.0,0.0,0.0,0.0,0.0,0.0,0.0,0.0,0.0,0.0,0.0,0.0,0.0,0.0,0.0,0.0,0.0,0.0,0.0,0.0,0.0,0.0,0.0,0.0,0.0,0.0,0.0,0.0,0.0,0.0,0.0,0.0,0.0,0.0,0.0,0.0,0.0,0.0,0.0,-2.8835,0.0,0.0,0.0,0.0,0.0,0.0,0.0,0.0,0.0,0.0,0.0,0.0,0.0,0.0,0.0,0.0,0.0,0.0,0.0,0.0,0.0,0.0,0.0,0.0,0.0,0.0,0.0,0.0,0.0,0.0,0.0,0.0,0.0,0.0,0.0,0.0,0.0,0.0,0.0,0.0,0.0,-2.719,-2.7951,-2.8722,-2.9521,-2.8989,-2.8815,-2.9464,-2.7291,-2.6078,-2.6472,0.0,0.0,0.0,0.0,0.0,0.0,0.0,0.0,0.0,0.0,0.0,0.0,0.0,0.0,0.0,0.0,0.0,0.0,0.0,0.0,0.0,0.0,0.0,0.0,0.0,0.0,0.0,0.0,0.0,0.0,0.0,0.0,0.0,0.0,0.0,0.0,0.0,0.0,0.0,0.0,0.0,0.0,0.0,0.0,0.0,0.0,0.0,0.0,0.0,0.0,0.0,0.0,0.0,0.0,0.0,0.0,0.0,0.0,0.0,0.0,0.0,-2.9873,0.0,0.0,0.0,0.0,0.0,0.0,0.0,0.0,0.0,0.0,0.0,0.0,0.0,0.0,0.0,0.0,0.0,0.0,0.0,0.0,0.0,0.0,0.0,0.0,0.0,0.0,0.0,0.0,0.0,0.0,0.0,0.0,0.0,0.0,0.0,0.0,0.0,0.0,0.0,0.0,-2.6245,-2.6693,-2.7184,-2.7791,-2.7475,-2.7402,-2.7813,-2.6337,-2.5411,-2.5438,-2.4117,0.0,0.0,0.0,0.0,0.0,0.0,0.0,0.0,0.0,0.0,0.0,0.0,0.0,0.0,0.0,0.0,0.0,0.0,0.0,0.0,0.0,0.0,0.0,0.0,0.0,0.0,0.0,0.0,0.0,0.0,0.0,0.0,0.0,0.0,0.0,0.0,0.0,0.0,0.0,0.0,0.0,0.0,0.0,0.0,0.0,0.0,0.0,0.0,0.0,0.0,0.0,0.0,0.0,0.0,0.0,-3.543,-3.6875,-3.7129,-3.6348,-3.4238,-3.2615,-3.1373,0.0,0.0,0.0,0.0,0.0,0.0,0.0,0.0,0.0,0.0,0.0,0.0,0.0,0.0,0.0,0.0,0.0,0.0,0.0,0.0,0.0,0.0,0.0,0.0,0.0,-2.5308,-2.5308,0.0,0.0,0.0,0.0,0.0,0.0,0.0,0.0,0.0,0.0,0.0,0.0,-2.5204,-2.5417,-2.5717,-2.6148,-2.6203,-2.6268,-2.6374,-2.565,-2.497,-2.4428,-2.4153,-2.3635,0.0,0.0,0.0,0.0,0.0,0.0,0.0,0.0,0.0,0.0,0.0,0.0,0.0,0.0,0.0,0.0,0.0,0.0,0.0,0.0,0.0,0.0,0.0,0.0,0.0,0.0,0.0,0.0,0.0,0.0,0.0,0.0,-3.3383,-3.3963,0.0,0.0,0.0,0.0,0.0,0.0,0.0,0.0,0.0,0.0,0.0,0.0,0.0,0.0,-3.4078,-3.5779,-3.625,-3.5527,-3.8144,-3.8926,-3.8086,-3.832,-3.8379,-3.8242,-3.7891,0.0,-3.3945,-3.0809,0.0,0.0,0.0,0.0,0.0,0.0,0.0,0.0,0.0,0.0,0.0,0.0,0.0,0.0,0.0,0.0,0.0,0.0,0.0,0.0,0.0,0.0,-2.6231,-2.5481,-2.5308,-2.5308,0.0,-2.5385,-2.5383,-2.5053,0.0,0.0,0.0,0.0,0.0,0.0,0.0,0.0,-2.35,-2.4273,-2.4813,-2.456,-2.4663,-2.4977,-2.5505,-2.4824,-2.4622,-2.5191,-2.3933,-2.34,-2.3958,-2.2676,0.0,0.0,0.0,0.0,0.0,0.0,0.0,0.0,0.0,0.0,0.0,0.0,0.0,0.0,0.0,0.0,0.0,0.0,0.0,0.0,0.0,0.0,0.0,0.0,0.0,0.0,0.0,0.0,0.0,-3.2029,-3.3121,-3.2481,-3.2518,-3.168,0.0,0.0,0.0,0.0,0.0,0.0,0.0,0.0,0.0,-3.518,-3.5834,-3.6793,-3.8079,-3.8873,-3.9082,-3.8712,-3.9938,-4.0319,-3.9948,-4.0038,-4.0059,-4.0019,-3.9023,-3.7949,-3.6621,-3.3123,-3.1363,-3.064,0.0,0.0,0.0,0.0,0.0,-2.8314,-2.8898,0.0,0.0,0.0,0.0,0.0,0.0,0.0,0.0,0.0,0.0,0.0,0.0,0.0,0.0,-2.5385,-2.5308,-2.5308,-2.5308,-2.5308,-2.5229,0.0,-2.5119,-2.5108,-2.4823,0.0,0.0,0.0,0.0,0.0,-2.3862,-2.4214,-2.4401,-2.4218,-2.4275,-2.4441,-2.4705,-2.4392,-2.4355,-2.4695,-2.4061,-2.3823,-2.419,-2.352,-2.3272,0.0,0.0,0.0,0.0,0.0,0.0,0.0,0.0,0.0,0.0,0.0,0.0,0.0,0.0,0.0,0.0,0.0,0.0,0.0,0.0,0.0,0.0,0.0,0.0,0.0,0.0,0.0,0.0,-3.273,-3.3585,-3.2046,-3.3709,-3.3585,0.0,0.0,0.0,0.0,0.0,0.0,-3.4487,-3.5804,-3.7065,-3.8181,-3.9456,-4.0577,-4.1468,-4.1244,-4.1147,-4.1174,-4.1069,-4.1021,-4.1054,-4.115,-4.1074,-4.0801,-3.9492,-3.8672,-3.8008,-3.4746,-3.2676,-3.1367,-2.9648,-2.8965,-2.9023,-2.9434,-2.9295,-2.9031,-3.0064,-2.9845,-2.9051,-2.8761,0.0,-2.7679,-2.6111,0.0,0.0,0.0,0.0,-2.5312,-2.5293,0.0,-2.5312,-2.5293,-2.5308,-2.5308,-2.5308,-2.5308,-2.5259,0.0,-2.5426,-2.5587,-2.5093,0.0,0.0,0.0,0.0,-2.3944,-2.3936,-2.4248,-2.4359,-2.4043,-2.421,-2.4321,-2.4275,-2.4228,-2.419,-2.419,-2.419,-2.419,-2.419,-2.3804,-2.34,-2.3006,0.0,0.0,0.0,0.0,0.0,0.0,0.0,0.0,0.0,0.0,0.0,0.0,0.0,0.0,0.0,0.0,0.0,0.0,0.0,0.0,0.0,0.0,0.0,0.0,0.0,0.0,0.0,0.0,0.0,-3.5423,-3.7808,0.0,0.0,0.0,0.0,-3.4594,-3.6474,-3.8065,-3.8938,-3.9061,-3.9918,-4.1698,-4.182,-4.2322,-4.3251,-4.2443,-4.2103,-4.2215,-4.1382,-4.1076,-4.1191,-4.1191,-4.0742,-3.9961,-3.9863,-3.8906,-3.7168,-3.4492,-3.3359,-3.3105,-3.1426,-3.0762,-3.0664,-2.9883,-3.0098,-3.0664,-2.9902,-2.9038,-2.8504,-2.9983,-2.9319,-2.7727,-2.6813,-2.5962,0.0,0.0,-2.5357,-2.5379,-2.5322,-2.5342,-2.5376,-2.5317,-2.5308,-2.5308,-2.5308,-2.5308,-2.5303,0.0,-2.4707,-2.4384,-2.492,0.0,-2.398,-2.3631,-2.4519,-2.4523,-2.2646,-2.4076,-2.4815,-2.3663,-2.4282,-2.4693,-2.4503,-2.4312,-2.419,-2.419,-2.419,-2.419,-2.419,-2.273,-2.2263,-2.2988,-2.1447,0.0,0.0,0.0,0.0,0.0,0.0,0.0,0.0,0.0,0.0,0.0,0.0,0.0,0.0,0.0,0.0,0.0,0.0,0.0,0.0,0.0,0.0,0.0,0.0,0.0,0.0,0.0,0.0,-3.6846,-3.863,0.0,0.0,-3.6727,-3.7753,-3.8077,-3.9357,-4.0591,-4.1692,-4.2239,-4.281,-4.3459,-4.4018,-4.448,-4.481,-4.3445,-4.2763,-4.2801,-4.1485,-4.0905,-4.0933,-4.0541,-4.0195,-3.9844,-3.8711,-3.7871,-3.7187,-3.5684,-3.4414,-3.3281,-3.2168,-3.1387,-3.0859,-3.0547,-3.0625,-3.0781,-2.9902,-2.9374,-2.8998,-2.8351,-2.731,-2.6241,-2.5923,-2.5614,-2.5379,-2.5427,-2.545,-2.5468,-2.5434,-2.545,-2.5453,-2.5379,-2.5352,-2.5219,-2.4639,-2.4529,-2.4356,-2.3793,-2.4332,-2.4606,-2.3736,-2.34,-2.3213,-2.3077,-2.2826,-2.2618,-2.2454,-2.2936,-2.3139,-2.2718,-2.2938,-2.3098,-2.3026,-2.288,-2.2775,-2.2775,-2.2701,-2.2657,-2.2657,-2.2106,-2.1657,-2.141,-2.0796,-2.0933,0.0,0.0,0.0,0.0,0.0,0.0,0.0,0.0,0.0,0.0,0.0,0.0,0.0,0.0,0.0,0.0,0.0,0.0,0.0,0.0,0.0,0.0,0.0,0.0,0.0,0.0,-3.8208,-3.7951,-4.0029,-4.0512,-3.7956,-3.931,-4.0581,-4.1073,-4.203,-4.2976,-4.3885,-4.4451,-4.4739,-4.4739,-4.5306,-4.546,-4.5171,-4.3797,-4.2983,-4.2707,-4.1417,-4.068,-4.0422,-4.0068,-3.957,-3.8965,-3.7793,-3.7129,-3.6797,-3.5918,-3.4707,-3.3359,-3.2812,-3.209,-3.1309,-3.1016,-3.0703,-3.0293,-2.9121,-2.871,-2.8433,-2.6892,-2.595,-2.5438,-2.5431,-2.5431,-2.5444,-2.5498,-2.5526,-2.5535,-2.5515,-2.5526,-2.5449,-2.5084,-2.5004,-2.4768,-2.3875,-2.3701,-2.3462,-2.2562,-2.3508,-2.4101,-2.299,-2.2797,-2.2893,-2.3182,-2.2369,-2.1961,-2.254,-2.2481,-2.2297,-2.2007,-2.2161,-2.23,-2.23,-2.2357,-2.2287,-2.2027,-2.19,-2.1827,-2.1803,-2.1551,-2.1275,-2.096,-2.0658,-2.0786,-2.1363,0.0,0.0,0.0,0.0,0.0,0.0,0.0,0.0,0.0,0.0,0.0,0.0,0.0,0.0,0.0,0.0,0.0,0.0,0.0,0.0,0.0,0.0,0.0,-3.645,-3.8469,-3.9698,-3.9019,-4.2359,-4.3497,-4.0341,-4.3156,-4.4673,-4.3422,-4.4433,-4.5232,-4.5568,-4.5566,-4.5556,-4.5556,-4.5537,-4.5133,-4.4259,-4.3451,-4.2699,-4.1989,-4.1184,-4.0413,-3.9683,-3.98,-3.8926,-3.7305,-3.7266,-3.6777,-3.5937,-3.5059,-3.4199,-3.3437,-3.3379,-3.2871,-3.2051,-3.1172,-3.0293,-2.9277,-2.7598,-2.6949,-2.6716,-2.5875,-2.5556,-2.5493,-2.5493,-2.5493,-2.5493,-2.5515,-2.5554,-2.5576,-2.5492,-2.5517,-2.5321,-2.4391,-2.4161,-2.393,-2.3056,-2.2918,-2.2673,-2.1736,-2.2196,-2.2729,-2.2725,-2.274,-2.3047,-2.386,-2.3259,0.0,-2.272,-2.272,-2.2408,-2.16,-2.2072,-2.2465,-2.2465,-2.2882,-2.2787,-2.195,-2.1829,-2.176,-2.1709,-2.101,-2.0973,-2.1711,-2.0923,-2.0503,-2.0548,0.0,0.0,0.0,0.0,0.0,0.0,0.0,0.0,0.0,0.0,0.0,0.0,0.0,0.0,0.0,0.0,0.0,0.0,0.0,0.0,0.0,0.0,-3.9774,-3.9774,-4.0855,-4.2213,-4.3736,-4.4892,-4.4984,-4.3534,-4.4262,-4.4552,-4.387,-4.4376,-4.4884,-4.5222,-4.4881,-4.4662,-4.4662,-4.4085,-4.3662,-4.3431,-4.2585,-4.2051,-4.1855,-4.1092,-4.0301,-3.947,-3.9021,-3.8222,-3.719,-3.662,-3.6211,-3.5937,-3.5059,-3.4551,-3.4219,-3.3008,-3.2012,-3.1152,-3.0273,-2.9004,-2.7656,-2.7168,-2.6562,-2.5973,-2.5686,-2.5595,-2.5567,-2.5567,-2.5567,-2.5573,-2.5633,-2.566,-2.5525,-2.4877,-2.4722,-2.4507,-2.36,-2.3395,-2.315,-2.2238,-2.2042,-2.1796,-2.089,-2.0913,-2.1039,-2.1001,-2.1475,-2.1735,-2.1408,0.0,0.0,-2.0985,-2.0985,-2.1119,-2.1466,-2.1662,-2.1774,-2.1774,-2.1806,-2.1214,0.0,-1.953,-1.9439,-1.9407,-1.9124,-1.9286,-1.9958,-2.0309,-2.0804,0.0,0.0,0.0,0.0,0.0,0.0,0.0,0.0,0.0,0.0,0.0,0.0,0.0,0.0,0.0,0.0,0.0,0.0,0.0,0.0,0.0,0.0,-4.0451,-4.247,-4.3462,-4.3736,-4.4452,-4.6214,-4.6416,-4.6104,-4.5278,-4.5204,-4.4882,-4.4045,-4.4359,-4.4751,-4.5085,-4.4585,-4.4297,-4.4297,-4.3528,-4.2912,-4.2566,-4.2038,-4.1623,-4.1239,-4.0507,-3.9696,-3.8836,-3.813,-3.7352,0.0,-3.6134,-3.5951,-3.5854,-3.4648,-3.414,0.0,0.0,0.0,0.0,0.0,-2.7871,-2.6953,-2.6582,-2.6113,-2.5683,-2.5659,-2.5636,-2.5636,-2.5636,-2.5636,-2.5658,-2.5683,-2.5449,-2.5039,-2.4531,-2.4141,-2.3672,-2.2806,-2.2608,-2.2349,-2.1399,-2.1227,-2.1078,-2.0558,0.0,0.0,-2.0381,-2.072,-2.0965,-2.0853,-2.0527,-2.0439,0.0,-2.0525,-2.0487,-2.0946,-2.1004,-2.1008,-2.1004,-2.1154,0.0,0.0,0.0,-1.9122,-1.9122,-1.9276,0.0,0.0,0.0,-2.0584,0.0,0.0,0.0,0.0,-2.3199,-2.3749,0.0,0.0,0.0,0.0,0.0,0.0,0.0,0.0,0.0,0.0,0.0,0.0,0.0,0.0,0.0,0.0,-4.2839,-4.4819,-4.7058,-4.6764,-4.6544,-4.7149,-4.7241,-4.6911,-4.6104,-4.5957,-4.5382,-4.4169,-4.4388,-4.4739,-4.503,0.0,0.0,0.0,0.0,-4.2431,-4.1662,-4.1662,-4.1219,-4.0362,-3.9702,-3.888,-3.7926,-3.7275,-3.651,-3.5693,-3.5812,-3.5836,-3.5625,-3.4036,-3.3233,-3.2921,-3.2182,-3.1366,-3.0293,-2.7871,-2.6933,0.0,0.0,0.0,0.0,-2.5703,-2.5703,-2.5703,-2.5703,-2.5703,-2.5703,-2.5703,-2.5137,-2.4492,-2.4316,-2.373,-2.2969,-2.1973,-2.1758,-2.1523,-2.0692,-2.0563,-2.0585,-2.0516,-2.0511,-2.0511,-2.0511,-2.0408,-2.0573,-2.1345,-2.0801,0.0,-2.1375,-2.0787,-2.0341,-2.0457,0.0,0.0,-2.045,-2.0934,-2.0532,-1.891,-1.9493,-1.9887,-1.9877,-2.0421,-2.07,-2.0697,-2.0506,-2.0092,-1.9474,-2.016,-2.0988,-2.1978,-2.34,-2.4116,0.0,0.0,0.0,0.0,0.0,0.0,0.0,0.0,0.0,0.0,0.0,0.0,0.0,0.0,0.0,-4.2011,-4.5185,-4.7774,-4.8948,-4.8986,-4.8673,-4.8141,-4.8086,-4.7736,-4.6947,-4.6287,-4.5534,-4.4629,-4.4601,-4.4618,-4.4682,-4.3837,0.0,-4.3335,-4.1816,-4.092,-4.0746,-4.0746,-4.0342,-3.9534,0.0,0.0,-3.6966,-3.6939,-3.6445,-3.5616,-3.5689,-3.5362,-3.4687,-3.3662,-3.2394,-3.1039,-3.0258,-2.9448,-2.8575,-2.7367,-2.6518,-2.5937,-2.5762,-2.5703,-2.5703,-2.5703,-2.5703,-2.5703,-2.5703,-2.5703,0.0,-2.5703,-2.5586,-2.5137,-2.3789,-2.332,-2.2793,-2.123,-2.0859,-2.0801,-2.0624,-2.0586,-2.0605,-2.0585,-2.0585,-2.0585,-2.0585,-2.0474,-2.0431,-2.0606,-2.0499,-2.0437,-2.0603,-2.0489,-2.0644,-2.1359,-2.1388,-2.1346,-2.1349,-2.1413,-2.0736,-1.9077,-1.912,-1.9148,-1.9035,-1.9758,-2.0096,-2.0007,-1.9853,-2.0017,-2.05,-2.0499,-2.1281,-2.2767,-2.3079,-2.3584,0.0,0.0,0.0,0.0,0.0,0.0,0.0,0.0,0.0,0.0,0.0,-3.479,0.0,0.0,-4.1813,-4.4592,-4.6925,-4.8682,-4.9498,-4.961,-4.9445,-4.9003,-4.8563,-4.7994,-4.7186,-4.6379,-4.5571,-4.4746,-4.4636,-4.4593,-4.4593,-4.4028,-4.3528,-4.3104,-4.1835,-4.0931,-4.0496,-4.0496,-4.0304,-3.99,-3.9046,-3.818,-3.7315,-3.6556,-3.5957,-3.5544,-3.5611,-3.5165,-3.4295,-3.3017,-3.1732,-3.042,-2.9152,-2.844,-2.8006,-2.6727,-2.6001,-2.5659,-2.5683,-2.5703,-2.5703,-2.5703,-2.5703,-2.5703,-2.5703,-2.5703,-2.5683,-2.566,-2.537,-2.4765,-2.3472,-2.285,-2.2227,-2.0918,-2.0605,-2.0605,-2.0605,-2.0605,-2.0605,-2.0605,-2.0605,-2.0605,-2.0605,-2.0541,-2.0483,-2.0467,-2.0425,-2.0418,-2.0441,-2.0444,-2.0618,-2.1044,-2.104,-2.0814,-2.039,-1.9889,-1.96,-1.9642,-1.9234,-1.9173,-1.9539,-1.9849,-1.9978,-1.9906,-1.9774,-1.9907,-2.0301,-2.0537,-2.1087,-2.1918,-2.2308,-2.3105,0.0,0.0,0.0,0.0,0.0,0.0,0.0,0.0,-3.2361,-3.5194,-3.5971,-3.7294,-4.0947,-4.2365,-4.4012,-4.7187,-4.8393,-4.9271,-5.0153,-5.0033,-4.9831,-4.9831,-4.893,-4.8048,-4.7388,-4.6471,-4.5626,-4.4984,-4.473,-4.4593,-4.4593,-4.441,-4.3989,-4.3355,-4.2335,-4.147,-4.0766,-4.0573,-4.0419,-4.0246,-3.8892,-3.8084,-3.77,-3.6346,-3.5654,-3.5488,-3.5209,-3.4587,-3.3678,-3.214,-3.1115,-3.0318,-2.8573,-2.796,-2.7864,-2.6182,-2.559,-2.5605,-2.5661,-2.5683,-2.5683,-2.5703,-2.5683,-2.5661,-2.5682,-2.5662,-2.5658,-2.5599,-2.5102,-2.4388,-2.3352,-2.2602,-2.1852,-2.0819,-2.0585,-2.0585,-2.0605,-2.0605,-2.0605,-2.0605,-2.0605,-2.0605,-2.0605,-2.0605,-2.0585,-2.0537,-2.0476,-2.0468,-2.0512,-2.0515,-2.0515,-2.0515,-2.0468,-2.0132,-1.9413,-1.8644,-1.8801,-2.0204,-1.9634,-1.9565,-2.0269,-2.0133,-2.0064,-2.0064,-1.9912,-1.9836,-1.9836,-2.0357,-2.0681,-2.0849,-2.1499,-2.2601,-2.9505,-2.9487,-2.9953,-3.1017,-3.1344,-3.2137,0.0,0.0,-3.7419,-3.9775,-4.1276,-4.2543,-4.3933,-4.5228,-4.6673,-4.8433,-4.9799,-5.114,-5.259,-5.1573,-5.0674,-5.0674,-4.9279,-4.8269,-4.8177,-4.6801,-4.5865,-4.5773,-4.5028,-4.4593,-4.4593,-4.441,-4.4259,-4.4162,-4.2624,-4.175,-4.1662,-4.0893,-4.015,-3.9438,-3.9246,-3.8334,-3.6846,-3.6654,-3.6173,-3.5404,-3.3872,-3.2749,-3.1921,-3.0953,-3.051,-3.0235,-2.8549,-2.7911,-2.7721,-2.6041,-2.5508,-2.5602,-2.5605,-2.5606,-2.561,-2.5683,-2.5629,-2.552,-2.5598,-2.5566,-2.5529,-2.5503,-2.5446,-2.5003,-2.3417,-2.2935,-2.2481,-2.0896,-2.0511,-2.0537,-2.0586,-2.0605,-2.0605,-2.0605,-2.0605,-2.0605,-2.0605,-2.0605,-2.0605,-2.0586,-2.0585,-2.0585,-2.0586,-2.0586,-2.0586,-2.0586,-2.0537,-2.0431,-2.027,-2.0091,-2.0085,-2.0295,-2.0203,-2.0192,-2.0308,-2.0277,-2.0273,-2.0273,-2.0088,-1.9988,-1.9988,-1.9936,-2.0282,-2.0973,-2.1061,-2.1925,-3.2384,-3.2226,0.0,0.0,-3.4251,-3.5049,-3.725,-3.7623,-3.8228,-4.0874,-4.2317,-4.3517,-4.4812,-4.6321,-4.7694,0.0,-5.0095,-5.1036,-5.1139,-5.0963,-5.027,-4.8819,-4.803,-4.759,-4.759,-4.6581,-4.5718,-4.5241,-4.4609,-4.4247,-4.4247,-4.457,-4.4288,-4.3274,-4.2797,-4.2066,-4.1046,-4.0689,-4.0323,-3.9996,-3.9515,-3.8642,-3.745,-3.6923,-3.5988,-3.4661,-3.3449,-3.2449,-3.1641,-3.075,-3.0404,-3.0231,-2.8544,-2.7895,-2.7699,-2.6021,-2.5434,-2.5495,-2.5535,-2.5547,-2.5549,-2.5569,-2.5549,-2.5418,-2.4978,-2.5143,-2.5386,-2.4882,-2.5113,-2.5209,-2.3955,-2.3664,-2.3273,-2.1599,-2.1231,-2.1132,-2.0656,-2.0565,-2.0586,-2.0542,-2.0565,-2.0586,-2.0541,-2.0565,-2.0605,-2.0605,-2.0605,-2.0605,-2.0605,-2.0605,-2.0585,-2.0541,-2.0067,-1.9913,-2.0356,-1.9943,-1.9835,-2.0274,-2.0296,-2.029,-2.0292,-2.0308,-2.0308,-2.0308,-2.0229,-2.0165,-2.0165,-2.0007,-2.0093,-2.0424,-2.0424,-2.1036,-3.3793,0.0,0.0,-3.6163,-3.7034,-3.7755,-3.8984,-3.9059,-3.9423,-4.1341,-4.2753,-4.4008,-4.5207,-4.6781,-4.8107,-4.8778,-5.0127,-5.0926,-5.0428,-5.0611,-5.005,-4.8031,-4.7369,-4.6929,-4.647,-4.592,-4.5333,-4.4745,-4.4267,-4.4001,-4.4001,-4.4701,-4.4399,-4.2902,-4.3013,-4.2374,-4.0873,-4.0631,-4.0496,-4.0496,-3.9688,-3.8834,-3.7969,-3.6865,-3.5449,-3.3821,-3.316,-3.2314,-3.1288,-3.0654,-3.0404,-3.0231,-2.8544,-2.7895,-2.7694,-2.6002,-2.5376,-2.5409,-2.5462,-2.5463,-2.5485,-2.5486,-2.5465,-2.5337,-2.476,-2.5005,-2.5302,-2.4675,-2.4955,-2.524,-2.4331,-2.3957,-2.3448,-2.2008,-2.1539,-2.1219,-2.0609,-2.0511,-2.0537,-2.048,-2.0511,-2.0537,-2.048,-2.0512,-2.0541,-2.0541,-2.0541,-2.0542,-2.0565,-2.0565,-2.0469,-2.0206,-1.9816,-1.9811,-2.0411,-1.9894,-1.9795,-2.0313,-2.0332,-2.0335,-2.0334,-2.0306,-2.0292,-2.0292,-2.0304,-2.0308,-2.0308,-2.0156,-2.0078,-2.0078,-2.0078,-2.0537,0.0,0.0,-3.5616,-3.8033,-3.9116,-3.9792,-4.0485,-4.1624,-4.2401,-4.1922,-4.3526,-4.5116,-4.5435,-4.6812,-4.8107,-4.8778,-5.0127,-5.1325,-5.1946,-5.1304,-5.0472,-4.9629,-4.8104,-4.6489,0.0,-4.4746,-4.4728,-4.4691,-4.4267,-4.4001,-4.4001,-4.4701,-4.4685,-4.3778,-4.332,-4.2662,-4.1769,-4.0912,-4.0496,-4.0496,-3.9688,-3.8834,-3.795,-3.6288,-3.4596,-3.2949,-3.291,-3.1968,-3.0442,-3.0404,-3.0404,-3.0231,-2.8544,-2.7895,-2.7684,-2.5947,-2.5348,-2.5398,-2.5394,-2.5397,-2.5411,-2.549,-2.5404,-2.5303,-2.5345,-2.5339,-2.5298,-2.5274,-2.5298,-2.5125,-2.4307,-2.3479,-2.2639,-2.1801,-2.0952,-2.0355,-2.0381,-2.0393,-2.0414,-2.0393,-2.0393,-2.0414,-2.0393,-2.0393,-2.0414,-2.0414,-2.0414,-2.043,-2.0486,-2.0509,-2.0205,-1.9414,-2.0078,-2.0566,-2.0586,-2.0519,-2.0467,-2.0485,-2.0434,-2.0406,-2.0404,-2.0327,-2.0307,-2.0307,-2.0299,-2.0308,-2.0308,-2.0285,-2.0285,-2.0285,-2.0285,-2.0727,0.0,0.0,-3.8927,-4.1025,-4.1853,-4.2421,-4.3459,-4.3577,-4.3149,-4.1987,-4.2806,-4.3505,-4.2619,-4.4248,-4.5942,-4.6641,-4.8782,-5.0249,-4.9891,-5.0,-4.9388,-4.7369,-4.6278,0.0,0.0,0.0,0.0,-4.3938,-4.3744,-4.3679,-4.3679,-4.3806,-4.3521,-4.2626,-4.2365,-4.1816,-4.095,-4.065,-4.0496,-4.0477,-3.9104,-3.7988,-3.7103,-3.6,-3.4538,-3.2891,-3.2891,-3.1948,-3.0404,-3.0404,-3.0404,-3.0231,-2.8544,-2.7895,-2.7678,-2.5942,-2.5313,-2.533,-2.5335,-2.5335,-2.5344,-2.5359,-2.5339,-2.5202,-2.4694,-2.4888,-2.5192,-2.4639,-2.4889,-2.525,-2.4962,-2.4673,-2.4264,-2.3456,-2.3022,-2.253,-2.1421,-2.1233,-2.1074,-2.0454,-2.0363,-2.0398,-2.0337,-2.0363,-2.0377,-2.0335,-2.0366,-2.0416,-2.0432,-2.0434,-2.0351,-2.0126,-2.0362,-2.0542,-2.0605,-2.0585,-2.0541,-2.0509,-2.0478,-2.0441,-2.0391,-2.0372,-2.0361,-2.0361,-2.031,-2.0305,-2.0305,-2.0304,-2.0308,-2.0308,-2.0308,-2.0442,-3.843,-4.0256,-4.2043,-4.4154,-4.4633,-4.4741,-4.5212,-4.462,-4.346,-4.1676,-4.1643,-4.1652,-4.073,-4.1911,-4.3255,-4.3984,-4.6083,-4.7628,-4.7606,-4.7968,-4.7691,-4.6232,-4.5477,0.0,0.0,0.0,0.0,-4.3552,-4.3515,-4.3369,-4.3075,-4.3216,-4.2768,-4.1606,-4.1724,-4.1239,-4.0073,-4.0073,-3.9765,-3.9123,-3.8046,-3.7084,-3.6231,-3.5404,-3.4257,-3.2872,-3.2602,-3.1673,-3.0404,-3.0404,-3.0404,-3.0231,-2.8544,-2.7895,-2.7678,-2.5942,-2.5308,-2.5308,-2.5308,-2.5308,-2.5308,-2.5308,-2.5308,-2.5192,-2.4697,-2.4889,-2.5182,-2.4585,-2.4781,-2.5187,-2.5138,-2.4891,-2.4539,-2.41,-2.3755,-2.3255,-2.2242,-2.1814,-2.1448,-2.0853,-2.052,-2.0347,-2.0315,-2.0349,-2.0347,-2.0312,-2.0329,-2.0252,-1.9963,-2.0182,-2.0264,-2.0037,-2.0306,-2.0514,-2.0563,-2.0585,-2.0585,-2.0539,-2.0539,-2.0513,-2.0476,-2.0443,-2.0435,-2.0435,-2.0363,-2.0349,-2.0349,-2.034,-2.0334,-2.0334,-2.0334,-2.0314,-4.1141,-4.2939,-4.4789,-4.7124,-4.7233,-4.6598,-4.5761,-4.4778,-4.3406,-4.0991,-4.0102,-3.9707,0.0,0.0,-4.0309,-4.1013,-4.2498,-4.4014,-4.5458,-4.5532,-4.5686,0.0,0.0,0.0,0.0,0.0,0.0,-4.3499,0.0,-4.3149,-4.2341,-4.2884,-4.2473,-4.0846,-4.1351,-4.0896,-3.9323,-3.9265,-3.8373,-3.6692,-3.6654,-3.6212,-3.5404,-3.4526,-3.366,-3.2795,-3.2025,-3.1212,-3.0404,-3.0404,-3.0404,-3.0231,-2.8544,-2.7895,-2.7678,-2.5942,-2.5308,-2.5308,-2.5308,-2.5308,-2.5308,-2.5308,-2.5308,-2.5308,-2.5308,-2.5284,-2.5234,-2.5046,-2.5004,-2.4962,-2.4828,-2.4198,-2.3603,-2.382,-2.3216,-2.2664,-2.2815,-2.2207,-2.1611,-2.1577,-2.0904,-2.0365,-2.0365,-2.0327,-2.0308,-2.0308,-2.0308,-2.0027,-1.9268,-1.9792,-1.9962,-1.9241,-1.9917,-2.0445,-2.0486,-2.0562,-2.0586,-2.0586,-2.0605,-2.0605,-2.0605,-2.0539,-2.051,-2.051,-2.0437,-2.0412,-2.0412,-2.0391,-2.0408,-2.0408,-2.0408,-2.0381,-4.2916,-4.4579,-4.6124,-4.7369,-4.7327,-4.6871,-4.6544,-4.5016,-4.2806,-3.9799,-3.8328,-3.7073,0.0,0.0,0.0,-4.0253,-4.3039,0.0,-4.623,-4.636,0.0,-4.5558,0.0,-4.3722,-4.3778,-4.3286,0.0,0.0,-4.3515,-4.3149,-4.2341,-4.2132,-4.1643,-4.0834,-4.0001,-3.9472,-3.9296,-3.8661,-3.7777,-3.6692,-3.6096,-3.5365,-3.4507,-3.3622,-3.2776,-3.1987,-3.1795,-3.1212,-3.0404,-3.0404,-3.0404,-3.0231,-2.8544,-2.7895,-2.7678,-2.5942,-2.5308,-2.5308,-2.5308,-2.5308,-2.5308,-2.5308,-2.5308,-2.5308,-2.5308,-2.5203,-2.5077,-2.5016,-2.4936,-2.4842,-2.4811,-2.4646,-2.4483,-2.4532,-2.4388,-2.4093,-2.3643,-2.337,-2.3077,-2.2564,-2.1773,-2.1192,-2.1192,-2.0692,-2.0308,-2.0308,-2.0308,-2.0239,-2.0027,-1.9617,-1.95,-1.9959,-1.9677,-1.9729,-2.0367,-2.0483,-2.0536,-2.0536,-2.0565,-2.0605,-2.0605,-2.0585,-2.0565,-2.0565,-2.0511,-2.0476,-2.0476,-2.0427,-2.0408,-2.0408,-2.0408,-2.0383,-4.5489,-4.6929,-4.8112,-4.8396,-4.7893,-4.7076,-4.61,-4.4016,-4.1515,-3.8638,-3.6865,0.0,0.0,0.0,0.0,0.0,0.0,0.0,-4.4086,-4.4542,-4.4682,0.0,-4.3751,0.0,-4.3059,-4.2672,-4.2637,0.0,-4.3375,-4.2983,-4.1846,-4.1656,-4.1193,-4.0299,-3.9332,-3.8579,-3.8161,-3.693,-3.6029,-3.5419,-3.4704,-3.4063,-3.3463,-3.2724,-3.2122,-3.1679,0.0,-3.0846,-3.0404,-3.0404,-3.0173,-2.9698,-2.8409,-2.7659,-2.7159,-2.5808,-2.5234,-2.5163,-2.5163,-2.5124,-2.5109,-2.5248,-2.5308,-2.5308,-2.5308,-2.5157,-2.4992,-2.4936,-2.478,-2.4647,-2.4569,-2.4545,-2.4569,-2.4647,-2.467,-2.4591,-2.4295,-2.4011,-2.3608,-2.2924,-2.21,-2.1504,-2.1504,-2.0827,-2.0308,-2.0308,-2.0308,-2.0308,-2.0308,-1.9869,-1.9757,-2.025,-1.9576,-1.9305,-1.9789,-1.9899,-1.9925,-1.9925,-1.9998,-2.0195,-2.0586,-2.0234,-2.0215,-2.0586,-2.0564,-2.054,-2.054,-2.051,-2.0483,-2.0483,-2.0483,-2.0475,-4.8301,-4.94,-5.009,-4.9686,-4.8631,-4.7164,-4.5092,-4.2564,-3.993,-3.7408,0.0,-3.4522,-3.4942,0.0,-3.5711,-3.6653,0.0,-3.9546,-4.1119,-4.1897,-4.254,-4.32,-4.3156,-4.283,-4.2175,-4.1919,-4.1971,-4.2392,-4.2832,-4.251,-4.1168,-4.1277,-4.0723,-3.9312,-3.8743,-3.7795,-3.6385,-3.493,-3.4009,-3.3638,-3.2983,-3.2593,-3.2409,-3.1775,-3.1482,-3.1487,0.0,0.0,-3.0385,-3.0288,-2.9775,-2.9011,-2.8088,-2.7274,-2.6486,-2.5615,-2.5168,-2.5004,-2.5004,-2.4917,-2.4854,-2.5138,-2.5233,-2.5233,-2.5233,-2.5082,-2.4911,-2.4792,-2.4615,-2.4428,-2.4247,-2.419,-2.4247,-2.4428,-2.4452,-2.452,-2.4716,-2.4334,-2.3793,-2.3208,-2.2323,-2.1677,-2.1677,-2.0904,-2.0308,-2.0308,-2.0308,-2.0269,-2.0135,-2.0135,-2.0135,-2.0135,-1.94,-1.8908,-1.8908,-1.9077,-1.9196,-1.9196,-1.9349,-1.9784,-2.0545,-1.9842,-1.9804,-2.0566,-2.0585,-2.0585,-2.0586,-2.0586,-2.0586,-2.0586,-2.0605,-2.0565,-5.014,-5.0513,-5.056,-5.0109,-4.8855,-4.709,-4.473,-4.1924,0.0,0.0,0.0,-3.3031,-3.2216,-3.3034,0.0,-3.6473,0.0,0.0,0.0,0.0,-4.2337,0.0,0.0,0.0,0.0,0.0,0.0,0.0,0.0,0.0,-4.1079,-4.0515,-3.9383,-3.7589,-3.7015,-3.6053,-3.4641,-3.4359,-3.374,-3.281,-3.1973,-3.1565,-3.1497,-3.0679,-3.0425,-3.0615,0.0,0.0,-3.0346,-2.9621,-2.9242,-2.8953,-2.7428,-2.6736,-2.6486,-2.5615,-2.5168,-2.5004,-2.5004,-2.4917,-2.4811,-2.4874,-2.4895,-2.4895,-2.4895,-2.4741,-2.4572,-2.4551,-2.441,-2.4247,-2.4199,-2.419,-2.4199,-2.4247,-2.4256,-2.4312,-2.4512,-2.4681,-2.4762,-2.4639,-2.351,-2.2566,-2.2566,-2.1312,-2.0308,-2.0308,-2.0308,-2.0038,-1.9323,-1.9234,-1.9238,-1.9227,-1.846,-1.7934,-1.7934,-1.8662,-1.9115,-1.9115,-1.9805,-2.0278,-2.0434,-2.0297,-2.0314,-2.0513,-2.0451,-2.045,-2.0514,-2.0514,-2.0514,-2.0514,-2.0565,-2.0586,-5.1126,-5.1426,-5.1216,-5.032,-4.8728,-4.6585,-4.3547,0.0,0.0,0.0,-3.3308,-3.2764,-3.198,0.0,0.0,0.0,0.0,0.0,0.0,0.0,0.0,0.0,0.0,0.0,0.0,0.0,0.0,0.0,0.0,0.0,-4.003,-3.9314,-3.8128,-3.6527,-3.6359,-3.5613,-3.4199,-3.3744,-3.2924,-3.1765,-3.0997,-3.0571,-3.0468,-3.0152,-3.0143,-3.0404,0.0,0.0,-3.0321,-2.9352,-2.8689,-2.8191,-2.6933,-2.6167,-2.5726,-2.5305,-2.5036,-2.4884,-2.478,-2.4636,-2.4486,-2.4486,-2.4623,-2.4804,-2.4804,-2.4654,-2.4503,-2.4503,-2.4367,-2.419,-2.419,-2.419,-2.419,-2.419,-2.419,-2.4266,-2.4452,-2.4628,-2.479,-2.4974,-2.372,-2.2671,-2.2784,-2.1408,-2.0253,-2.0161,-2.0133,-1.9972,-1.9478,-1.9476,-1.9387,-1.9038,-1.8219,-1.7699,-1.7699,-1.8569,-1.8905,-1.8445,-1.9232,-1.9937,-2.0389,-1.9959,-1.9951,-2.0441,-2.0422,-2.0422,-2.0443,-2.0443,-2.0443,-2.0443,-2.048,-2.0506,-5.1635,-5.1995,-5.173,-5.0546,-4.8661,-4.6139,-4.2414,-3.9798,0.0,0.0,-3.2704,-3.2723,-3.2176,0.0,0.0,0.0,0.0,0.0,0.0,0.0,0.0,0.0,0.0,0.0,0.0,0.0,0.0,0.0,0.0,0.0,0.0,-3.7996,-3.7013,-3.5859,-3.5913,-3.528,-3.3857,-3.3218,-3.2166,-3.0712,-3.0192,-2.9829,-2.9634,-2.9845,-3.0068,-3.0317,0.0,0.0,0.0,-2.8766,-2.7865,-2.7177,-2.6307,-2.5565,-2.4955,-2.4955,-2.4864,-2.4716,-2.4543,-2.4366,-2.419,-2.419,-2.44,-2.467,-2.467,-2.4551,-2.4445,-2.4445,-2.433,-2.418,-2.4103,-2.4094,-2.4094,-2.4094,-2.4151,-2.4192,-2.4179,-2.4209,-2.4329,-2.4586,-2.3448,-2.2568,-2.2881,-2.1555,-2.0393,-2.024,-2.0077,-1.9851,-1.9556,-1.9606,-1.9488,-1.8949,-1.8347,-1.7891,-1.7718,-1.8554,-1.8786,-1.8098,-1.8887,-1.9663,-2.0352,-1.9723,-1.967,-2.0372,-2.0378,-2.0378,-2.0372,-2.0372,-2.0372,-2.0372,-2.0385,-2.0408,-5.1775,-5.1995,-5.1795,-5.0954,-4.8894,-4.6067,-4.2061,0.0,0.0,-3.3355,-3.252,-3.2284,-3.1453,-3.141,-3.1935,0.0,0.0,0.0,0.0,0.0,0.0,0.0,0.0,0.0,0.0,0.0,0.0,0.0,0.0,0.0,0.0,-3.6883,-3.6177,-3.5559,-3.5088,-3.414,-3.2672,-3.2825,-3.1852,-2.9818,-2.976,-2.9607,-2.9434,-2.9644,-2.9837,-3.0004,0.0,0.0,0.0,-2.7198,-2.6388,-2.6061,-2.5248,-2.4882,-2.4825,-2.4825,-2.4682,-2.451,-2.4512,-2.4366,-2.419,-2.419,-2.4228,-2.4266,-2.4266,-2.4247,-2.4228,-2.4228,-2.4209,-2.4141,-2.3816,-2.3753,-2.3753,-2.3753,-2.3986,-2.3997,-2.33,-2.3274,-2.342,-2.3441,-2.2851,-2.2564,-2.3307,-2.2042,-2.0921,-2.0909,-2.0298,-1.9537,-1.8725,-1.8636,-1.8615,-1.855,-1.875,-1.8568,-1.7776,-1.8498,-1.8987,-1.889,-1.9718,-2.0238,-2.0315,-2.0238,-2.022,-2.0319,-2.0304,-2.0301,-2.0302,-2.0302,-2.0302,-2.0302,-2.0366,-2.0408,-4.9891,-5.0912,-5.0967,-4.9627,-4.7462,-4.4728,-4.1185,0.0,-3.6352,-3.316,-3.2501,-3.223,-3.1351,-3.119,-3.1376,0.0,0.0,0.0,0.0,0.0,0.0,0.0,0.0,0.0,0.0,0.0,0.0,0.0,0.0,0.0,0.0,-3.555,-3.5261,-3.4728,-3.4207,-3.3469,-3.2507,-3.2129,-3.118,-2.9705,-2.9579,-2.9483,-2.9402,-2.9474,-2.9362,-2.9075,0.0,0.0,0.0,-2.648,-2.5882,-2.5734,-2.4923,-2.4615,-2.4615,-2.4615,-2.4578,-2.4478,-2.4357,-2.4275,-2.419,-2.419,-2.419,-2.419,-2.419,-2.419,-2.419,-2.419,-2.4046,-2.3876,-2.3724,-2.3555,-2.3403,-2.3403,-2.3511,-2.357,-2.3456,-2.3485,-2.3639,-2.3969,-2.3369,-2.2978,-2.342,-2.2504,-2.1693,-2.1608,-2.0916,-2.0228,-1.9754,-1.9398,-1.9151,-1.9151,-1.9001,-1.8737,-1.8389,-1.9239,-1.9565,-1.903,-1.9812,-2.0308,-2.0308,-2.0174,-2.019,-2.0306,-2.0102,-2.0046,-2.0126,-2.0126,-2.0126,-2.013,-2.0266,-2.0344,-4.7536,-4.8998,-4.9426,-4.8232,-4.5957,-4.3277,0.0,0.0,-3.5415,-3.3002,-3.2401,-3.2057,-3.1329,-3.119,-3.1249,0.0,0.0,0.0,0.0,0.0,0.0,0.0,0.0,0.0,0.0,0.0,0.0,0.0,0.0,0.0,0.0,-3.4011,-3.399,-3.3728,-3.344,-3.2853,-3.1962,-3.1458,-3.0663,-2.9616,-2.9474,-2.9361,-2.9278,-2.9361,-2.9175,0.0,0.0,0.0,0.0,-2.5855,-2.5314,-2.5197,-2.4632,-2.4419,-2.4419,-2.4419,-2.4419,-2.4393,-2.4256,-2.419,-2.419,-2.419,-2.419,-2.418,-2.4084,-2.4113,-2.418,-2.4084,-2.3735,-2.3403,-2.3403,-2.3224,-2.3057,-2.3057,-2.3129,-2.3194,-2.3213,-2.3286,-2.3464,-2.3842,-2.3488,-2.3258,-2.3635,-2.2989,-2.2394,-2.2317,-2.1604,-2.0954,-2.0546,-2.014,-1.9784,-1.9532,-1.9224,-1.9051,-1.9096,-1.974,-1.9886,-1.9277,-1.9809,-2.0153,-2.0153,-2.0017,-2.0012,-2.0153,-1.9915,-1.9847,-1.9948,-1.9948,-1.9948,-1.9934,-2.0098,-2.0153,-4.4918,-4.6167,-4.7131,-4.7113,-4.4691,-4.1901,0.0,0.0,-3.5033,-3.2919,-3.2127,-3.1678,-3.1271,-3.119,-3.1332,-3.1733,0.0,0.0,0.0,0.0,0.0,0.0,0.0,0.0,0.0,0.0,0.0,0.0,0.0,0.0,0.0,0.0,-3.2218,-3.2601,-3.2863,-3.2244,-3.0631,-3.0876,-3.0462,-2.9412,-2.9402,-2.9257,-2.9017,-2.9278,0.0,0.0,0.0,0.0,0.0,-2.5174,-2.4402,-2.4218,-2.4218,-2.4199,-2.4199,-2.4199,-2.4199,-2.4199,-2.419,-2.419,-2.419,-2.419,-2.419,-2.4141,-2.3806,-2.3927,-2.4123,-2.3795,-2.3224,-2.2708,-2.2708,-2.2708,-2.2708,-2.2708,-2.296,-2.2994,-2.2199,-2.2289,-2.2507,-2.2517,-2.2772,-2.3254,-2.4052,-2.3511,-2.2997,-2.2988,-2.2308,-2.1482,-2.0621,-2.0493,-2.0189,-1.9389,-1.9474,-1.965,-1.9778,-1.9796,-1.9796,-1.9796,-1.9796,-1.9815,-1.9815,-1.9796,-1.9796,-1.9815,-1.979,-1.979,-1.9796,-1.9796,-1.9796,-1.9796,-1.9796,-1.9815,-4.0285,-4.1593,-4.2396,-4.1832,-4.0105,-3.8271,-3.7198,0.0,-3.3202,-3.2214,-3.1897,-3.1678,-3.1271,-3.119,-3.108,-3.0706,-3.0949,0.0,0.0,0.0,0.0,0.0,0.0,0.0,0.0,0.0,0.0,0.0,0.0,0.0,0.0,0.0,-3.1397,-3.1757,-3.1499,-3.1115,-3.0613,-3.0127,-2.9745,-2.9402,-2.9203,-2.9078,-2.8987,-2.853,0.0,0.0,0.0,0.0,0.0,-2.4506,-2.4266,-2.419,-2.419,-2.419,-2.419,-2.419,-2.419,-2.419,-2.419,-2.419,-2.419,-2.419,-2.4054,-2.3837,-2.3724,-2.3774,-2.3735,-2.3177,-2.2873,-2.266,-2.2477,-2.2426,-2.2426,-2.2426,-2.2521,-2.2565,-2.2489,-2.2555,-2.2776,-2.3228,-2.3423,-2.3626,-2.4124,-2.3988,-2.3823,-2.3823,-2.3144,-2.2511,-2.2235,-2.1208,-2.0343,-1.9953,-1.9596,-1.9467,-1.9643,-1.9744,-1.979,-1.979,-1.979,-1.979,-1.979,-1.9701,-1.9713,-1.9809,-1.9567,-1.9525,-1.9656,-1.9656,-1.972,-1.979,-1.979,-1.975,0.0,-3.8289,-3.9103,-3.86,-3.727,0.0,0.0,0.0,-3.2161,-3.1896,-3.1695,-3.1403,-3.0876,-3.1004,-3.093,-3.0063,-3.0647,0.0,0.0,0.0,0.0,0.0,0.0,0.0,0.0,0.0,0.0,0.0,0.0,0.0,0.0,0.0,-2.9764,-2.9807,-3.0229,-3.0154,-2.9553,-2.9053,-2.8645,-2.8349,-2.8158,-2.8088,-2.8069,0.0,0.0,0.0,0.0,0.0,0.0,-2.4318,-2.419,-2.419,-2.419,-2.419,-2.419,-2.419,-2.419,-2.419,-2.419,-2.419,-2.419,-2.419,-2.3896,-2.35,-2.3357,-2.3317,-2.3242,-2.2822,-2.2621,-2.2514,-2.2349,-2.2296,-2.2296,-2.2296,-2.2296,-2.2349,-2.2514,-2.2621,-2.2822,-2.3236,-2.3426,-2.3628,-2.3947,-2.4006,-2.4046,-2.418,-2.3663,-2.3157,-2.2838,-2.1797,-2.0805,-2.008,-1.9669,-1.94,-1.9246,-1.9465,-1.9606,-1.9606,-1.9606,-1.9606,-1.9606,-1.9536,-1.953,-1.9606,-1.9405,-1.9357,-1.9492,-1.9413,-1.9361,-1.9338,-1.9338,-1.9291,0.0,-3.5988,0.0,0.0,0.0,0.0,0.0,0.0,0.0,-3.1771,-3.1435,-3.0903,-3.0176,-3.0581,-3.0683,-2.9644,-3.0408,0.0,0.0,0.0,0.0,0.0,0.0,0.0,0.0,0.0,0.0,0.0,0.0,0.0,0.0,0.0,0.0,-2.7204,-2.898,-2.9237,-2.7732,-2.7714,-2.7346,-2.6602,-2.6602,-2.6602,-2.6602,0.0,0.0,0.0,0.0,0.0,0.0,-2.4511,-2.419,-2.419,-2.419,-2.419,-2.419,-2.419,-2.419,-2.419,-2.419,-2.419,-2.419,-2.4133,-2.3692,-2.3105,-2.2772,-2.2656,-2.2656,-2.2656,-2.2487,-2.2296,-2.2296,-2.2296,-2.2296,-2.2296,-2.2296,-2.2296,-2.2296,-2.2487,-2.2669,-2.2695,-2.296,-2.3259,-2.3617,-2.3682,-2.3795,-2.4084,-2.3886,-2.3411,-2.2648,-2.2231,-2.1452,-1.9984,-1.98,-1.9467,-1.8707,-1.9025,-1.9251,-1.9251,-1.9251,-1.9251,-1.9251,-1.9251,-1.9251,-1.9251,-1.9251,-1.9251,-1.9251,-1.9059,-1.8834,-1.8595,-1.8595,-1.8595,-3.2117,0.0,-3.3085,-3.3085,-3.2824,-3.2544,0.0,0.0,0.0,0.0,0.0,0.0,0.0,-2.9399,-2.9214,-2.8354,-2.942,0.0,0.0,0.0,0.0,0.0,0.0,0.0,0.0,0.0,0.0,0.0,0.0,0.0,0.0,0.0,0.0,-2.7186,-2.7362,-2.7273,-2.6888,-2.6888,-2.6796,-2.6602,-2.6602,-2.6602,-2.6583,0.0,0.0,0.0,0.0,0.0,-2.4475,-2.4281,-2.419,-2.419,-2.419,-2.419,-2.419,-2.419,-2.419,-2.419,-2.419,-2.419,-2.4132,-2.3599,-2.3153,-2.2759,-2.2477,-2.2385,-2.2385,-2.2385,-2.2349,-2.2296,-2.2296,-2.2296,-2.2296,-2.2296,-2.2296,-2.2296,-2.2296,-2.2349,-2.245,-2.266,-2.2772,-2.2923,-2.3247,-2.3533,-2.3649,-2.3448,-2.3577,-2.3545,-2.3097,-2.2439,-2.179,-2.1214,-2.0791,-2.0167,-1.9223,-1.8903,-1.8753,-1.8753,-1.8753,-1.8753,-1.8753,-1.8753,-1.8753,-1.8753,-1.8753,-1.8753,-1.8753,-1.8716,-1.8651,-1.8595,-1.8595,-1.8595,-3.1252,-3.1351,-3.1509,-3.1509,-3.1509,-3.144,-3.1098,0.0,0.0,0.0,0.0,0.0,0.0,0.0,0.0,0.0,0.0,0.0,0.0,0.0,0.0,0.0,0.0,0.0,0.0,0.0,0.0,0.0,0.0,0.0,0.0,0.0,0.0,0.0,-2.543,-2.5515,-2.6043,-2.6043,-2.586,-2.5493,-2.5493,-2.5493,-2.5474,0.0,0.0,0.0,0.0,0.0,-2.419,-2.419,-2.419,-2.419,-2.419,-2.419,-2.419,-2.419,-2.4103,-2.3976,-2.3976,-2.3876,-2.366,-2.3141,-2.286,-2.2647,-2.2374,-2.2296,-2.2296,-2.2296,-2.2296,-2.2296,-2.2296,-2.2296,-2.2296,-2.2296,-2.2296,-2.2237,-2.2032,-2.2152,-2.2276,-2.2217,-2.2371,-2.2599,-2.2923,-2.3117,-2.3224,-2.32,-2.3242,-2.3212,-2.2996,-2.2479,-2.1956,-2.1473,-2.116,-2.0476,-1.9218,-1.8877,-1.8697,-1.8611,-1.8595,-1.8595,-1.8595,-1.8595,-1.8595,-1.8595,-1.8595,-1.8537,-1.842,-1.842,-1.8351,-1.8229,-1.8229,-1.8229,-3.0886,-3.1021,-3.119,-3.119,-3.119,-3.1004,-3.0277,0.0,0.0,0.0,0.0,0.0,0.0,0.0,0.0,0.0,0.0,0.0,0.0,0.0,0.0,0.0,0.0,0.0,0.0,0.0,0.0,0.0,0.0,0.0,0.0,0.0,0.0,0.0,-2.3762,-2.4164,-2.513,-2.5189,-2.4879,-2.419,-2.419,-2.419,-2.419,-2.419,0.0,0.0,0.0,0.0,-2.419,-2.419,-2.419,-2.419,-2.4151,-2.4113,-2.4113,-2.4074,-2.3876,-2.361,-2.361,-2.3403,-2.3081,-2.2797,-2.2656,-2.2599,-2.236,-2.2296,-2.2296,-2.2296,-2.2296,-2.2296,-2.2296,-2.2296,-2.2282,-2.2209,-2.2194,-2.2077,-2.1613,-2.1869,-2.2077,-2.1673,-2.1988,-2.2374,-2.2599,-2.2669,-2.2784,-2.3026,-2.2895,-2.2747,-2.2647,-2.2436,-2.2073,-2.1427,-2.1376,-2.0758,-1.9277,-1.913,-1.896,-1.8502,-1.8483,-1.8479,-1.8479,-1.8422,-1.844,-1.8479,-1.8422,-1.8293,-1.8055,-1.8012,-1.786,-1.7647,-1.7647,-1.7647,-2.9517,-3.0262,-3.119,-3.119,-3.119,-3.1004,-3.0277,0.0,0.0,0.0,0.0,0.0,0.0,0.0,0.0,0.0,0.0,0.0,0.0,0.0,0.0,0.0,0.0,0.0,0.0,0.0,0.0,0.0,0.0,0.0,0.0,0.0,0.0,0.0,0.0,-2.3779,-2.3966,-2.4228,-2.4318,-2.419,-2.419,-2.419,-2.419,-2.419,-2.419,0.0,0.0,-2.419,-2.419,-2.419,-2.419,-2.417,-2.3896,-2.3785,-2.3735,-2.3448,-2.3323,-2.3288,-2.3288,-2.3057,-2.2772,-2.2721,-2.255,-2.2346,-2.231,-2.2296,-2.2296,-2.2296,-2.2296,-2.2296,-2.2296,-2.2296,-2.2194,-2.1794,-2.1703,-2.1598,-2.1181,-2.1431,-2.1688,-2.1612,-2.1988,-2.2307,-2.2346,-2.255,-2.2634,-2.2453,-2.259,-2.2625,-2.2402,-2.2338,-2.2245,-2.2127,-2.2141,-2.1628,-2.0359,-2.0249,-1.9591,-1.801,-1.793,-1.7916,-1.7916,-1.7647,-1.7636,-1.7916,-1.7631,-1.7481,-1.7434,-1.7163,-1.6989,-1.6955,-1.6955,-1.6955,-2.9094,-2.928,-2.9738,-3.0475,-3.1258,-3.1458,-2.9966,0.0,0.0,0.0,0.0,0.0,0.0,0.0,0.0,0.0,0.0,0.0,0.0,0.0,0.0,0.0,0.0,0.0,0.0,0.0,0.0,0.0,0.0,0.0,0.0,0.0,0.0,0.0,0.0,-2.3253,-2.3426,-2.3774,-2.4016,-2.419,-2.419,-2.419,-2.419,-2.419,-2.419,-2.419,0.0,-2.4094,-2.3937,-2.4132,-2.3986,-2.3671,-2.3692,-2.3588,-2.3392,-2.3057,-2.2935,-2.291,-2.2773,-2.2607,-2.2473,-2.2473,-2.2398,-2.2296,-2.2296,-2.2296,-2.2296,-2.2296,-2.2296,-2.2296,-2.2296,-2.2106,-2.1869,-2.1658,-2.143,-2.1166,-2.0715,-2.1134,-2.146,-2.0991,-2.166,-2.2223,-2.1974,-2.2226,-2.2436,-2.2324,-2.2398,-2.244,-2.2324,-2.2092,-2.1913,-2.1913,-2.1736,-2.1214,-2.0256,-2.0177,-1.9506,-1.7896,-1.7458,-1.7264,-1.7264,-1.7284,-1.7284,-1.7264,-1.7284,-1.7211,-1.7027,-1.6879,-1.6802,-1.6802,-1.6802,-1.6683,-2.8519,-2.8342,-2.8425,-2.926,0.0,-3.0915,-2.9695,0.0,0.0,0.0,0.0,0.0,0.0,0.0,0.0,0.0,0.0,0.0,0.0,0.0,0.0,0.0,0.0,0.0,0.0,0.0,0.0,0.0,0.0,0.0,0.0,0.0,0.0,0.0,0.0,0.0,-2.3099,-2.3414,-2.3795,-2.419,-2.419,-2.419,-2.419,-2.419,-2.419,-2.419,-2.419,-2.4006,-2.3714,-2.3986,-2.3724,-2.3212,-2.3392,-2.3265,-2.2952,-2.2704,-2.2612,-2.259,-2.2374,-2.2296,-2.2296,-2.2296,-2.2296,-2.2296,-2.2296,-2.2296,-2.2282,-2.218,-2.2135,-2.2135,-2.2135,-2.1794,-2.143,-2.1321,-2.1055,-2.0715,-2.0261,-2.0749,-2.1102,-2.0433,-2.1213,-2.1886,-2.1522,-2.184,-2.2106,-2.202,-2.2077,-2.2106,-2.202,-2.169,-2.146,-2.146,-2.1181,-2.0735,-2.0052,-1.9625,-1.8918,-1.7836,-1.7013,-1.6633,-1.6789,-1.6977,-1.6989,-1.6802,-1.6977,-1.6939,-1.6686,-1.6499,-1.6389,-1.6389,-1.6309,-1.61,-2.7046,-2.752,-2.8045,-2.7462,-2.7525,0.0,-2.9763,0.0,0.0,0.0,0.0,0.0,0.0,0.0,0.0,0.0,0.0,0.0,0.0,0.0,0.0,0.0,0.0,0.0,0.0,0.0,0.0,0.0,0.0,0.0,0.0,0.0,0.0,0.0,0.0,-2.2738,-2.2829,-2.3099,-2.3555,-2.419,-2.419,-2.419,-2.419,-2.419,-2.419,-2.419,-2.419,-2.4006,-2.3703,-2.3724,-2.3533,-2.3165,-2.2868,-2.2616,-2.2363,-2.2335,-2.2321,-2.2338,-2.231,-2.2296,-2.2296,-2.2296,-2.2296,-2.2296,-2.2296,-2.2296,-2.2209,-2.1779,-2.1658,-2.1658,-2.1658,-2.1353,-2.0926,-2.05,-2.0382,-2.0244,-1.9821,-2.0087,-2.0382,-2.0314,-2.0732,-2.1071,-2.1039,-2.1384,-2.1522,-2.115,-2.1399,-2.1522,-2.115,-2.1055,-2.1039,-2.1039,-2.1007,-2.0813,-2.032,-1.8796,-1.7809,-1.7719,-1.6548,-1.615,-1.6763,-1.6528,-1.6501,-1.6789,-1.6514,-1.6353,-1.6326,-1.5594,-1.521,-1.521,-1.4831,-1.4645,-2.5782,-2.5956,-2.6228,-2.6066,0.0,0.0,0.0,0.0,0.0,0.0,0.0,0.0,0.0,0.0,0.0,0.0,0.0,0.0,0.0,0.0,0.0,0.0,0.0,0.0,0.0,0.0,0.0,0.0,0.0,0.0,0.0,0.0,0.0,0.0,0.0,-2.2541,-2.2742,-2.2835,-2.3117,-2.3577,-2.3795,-2.3996,-2.419,-2.419,-2.419,-2.419,-2.419,-2.3896,-2.3403,-2.361,-2.3283,-2.2638,-2.2504,-2.2402,-2.2296,-2.2296,-2.2296,-2.2296,-2.2296,-2.2296,-2.2296,-2.2296,-2.2106,-2.1853,-2.1853,-2.169,-2.1446,-2.1291,-2.1023,-2.0846,-2.115,-2.091,-2.0516,-2.0348,-2.0106,-1.9892,-1.9729,-2.0017,-2.0229,-1.9965,-2.0499,-2.091,-2.06,-2.0927,-2.1166,-2.1007,-2.1118,-2.1166,-2.1007,-2.0747,-2.0566,-2.0566,-2.033,-2.0122,-1.9929,-1.8547,-1.7713,-1.7713,-1.6488,-1.5912,-1.6163,-1.626,-1.626,-1.6177,-1.626,-1.6205,-1.5983,-1.5389,-1.5104,-1.5089,-1.469,-1.4187,-2.4796,-2.461,-2.4603,0.0,0.0,0.0,0.0,0.0,0.0,0.0,0.0,0.0,0.0,0.0,0.0,0.0,0.0,0.0,0.0,0.0,0.0,0.0,0.0,0.0,0.0,0.0,0.0,0.0,0.0,0.0,0.0,0.0,0.0,0.0,0.0,0.0,-2.2211,-2.2452,-2.2725,-2.3045,-2.338,-2.3714,-2.4054,-2.4151,-2.419,-2.419,-2.419,-2.3816,-2.3212,-2.3448,-2.3061,-2.2296,-2.2296,-2.2296,-2.2296,-2.2296,-2.2296,-2.2282,-2.212,-2.2092,-2.2063,-2.193,-2.1675,-2.1414,-2.1414,-2.1213,-2.0959,-2.0829,-2.055,-2.0348,-2.0532,-2.0347,-2.0106,-2.0106,-1.9909,-1.9708,-1.9708,-1.9927,-2.0035,-1.9747,-2.0174,-2.0482,-2.0176,-2.0483,-2.0747,-2.0599,-2.0698,-2.0731,-2.0599,-2.016,-1.9781,-1.9624,-1.922,-1.895,-1.895,-1.7746,-1.7014,-1.7014,-1.5988,-1.5507,-1.5784,-1.5754,-1.5681,-1.558,-1.5797,-1.5754,-1.5389,-1.5074,-1.4845,-1.4705,-1.4294,-1.3738,-2.4083,-2.3635,-2.3386,0.0,0.0,0.0,0.0,0.0,0.0,0.0,0.0,0.0,0.0,0.0,0.0,0.0,0.0,0.0,0.0,0.0,0.0,0.0,0.0,0.0,0.0,0.0,0.0,0.0,0.0,0.0,0.0,0.0,0.0,0.0,0.0,0.0,-2.119,-2.1938,-2.2422,-2.2708,-2.3033,-2.3369,-2.3703,-2.4054,-2.419,-2.419,-2.419,-2.3816,-2.32,-2.3189,-2.2849,-2.2296,-2.2296,-2.2296,-2.2296,-2.2296,-2.2296,-2.2223,-2.1764,-2.1582,-2.1521,-2.1118,-2.0991,-2.0991,-2.0991,-2.0991,-2.0894,-2.0433,-2.0297,-2.0195,-1.9803,-1.9708,-1.9708,-1.9708,-1.9708,-1.9708,-1.9708,-1.9708,-1.9708,-1.9708,-1.9708,-1.9708,-1.9708,-2.0035,-2.0158,-1.9764,-2.0052,-2.0158,-1.9747,-1.9225,-1.8688,-1.8165,-1.7611,-1.7288,-1.7288,-1.6194,-1.5499,-1.5499,-1.4865,-1.4876,-1.5755,-1.4953,-1.469,-1.5089,-1.5089,-1.4891,-1.4501,-1.4501,-1.4294,-1.3885,-1.3425,-1.3154,-2.2931,-2.2633,0.0,0.0,0.0,0.0,0.0,0.0,0.0,0.0,0.0,0.0,0.0,0.0,0.0,0.0,0.0,0.0,0.0,0.0,0.0,0.0,0.0,0.0,0.0,0.0,0.0,0.0,0.0,0.0,0.0,0.0,0.0,0.0,0.0,0.0,-2.119,-2.1938,-2.2335,-2.2426,-2.2717,-2.3141,-2.3703,-2.4054,-2.419,-2.419,-2.419,-2.3816,-2.3183,-2.2734,-2.247,-2.2296,-2.2296,-2.2296,-2.2268,-2.1928,-2.1809,-2.1749,-2.1322,-2.1181,-2.115,-2.1039,-2.078,-2.0516,-2.0516,-2.0313,-2.0067,-1.9927,-1.9874,-1.9856,-1.9729,-1.9708,-1.9708,-1.9708,-1.9708,-1.9708,-1.9708,-1.9708,-1.9708,-1.9708,-1.9708,-1.9708,-1.9708,-1.98,-1.9839,-1.9711,-1.98,-1.9699,-1.9207,-1.8669,-1.8283,-1.8125,-1.7611,-1.7288,-1.7288,-1.6194,-1.5499,-1.5499,-1.4604,-1.4326,-1.486,-1.4643,-1.4564,-1.4674,-1.4674,-1.4627,-1.4501,-1.4214,-1.4019,-1.3898,-1.3371,-1.2946,-2.1707,0.0,0.0,0.0,0.0,0.0,0.0,0.0,0.0,0.0,0.0,0.0,0.0,0.0,0.0,0.0,0.0,0.0,0.0,0.0,0.0,0.0,0.0,0.0,0.0,0.0,0.0,0.0,0.0,0.0,0.0,0.0,0.0,0.0,0.0,0.0,-2.072,-2.1481,-2.2023,-2.231,-2.256,-2.291,-2.3323,-2.3795,-2.4006,-2.3996,-2.3865,-2.3577,-2.3141,-2.2561,-2.2296,-2.2296,-2.2296,-2.2296,-2.2237,-2.1779,-2.1597,-2.1521,-2.0943,-2.0715,-2.0698,-2.0548,-2.0278,-2.0054,-2.0054,-1.9892,-1.9708,-1.9708,-1.9708,-1.9708,-1.9708,-1.9708,-1.9708,-1.9708,-1.9708,-1.9708,-1.9708,-1.9708,-1.9708,-1.9708,-1.9708,-1.9708,-1.9708,-1.9708,-1.9708,-1.9708,-1.953,-1.9114,-1.8361,-1.7987,-1.7706,-1.7483,-1.6802,-1.6346,-1.6346,-1.5256,-1.4681,-1.4925,-1.434,-1.418,-1.4645,-1.4223,-1.4068,-1.4262,-1.4262,-1.4165,-1.3983,-1.4143,-1.3994,-1.3579,-1.3498,-1.3154,-2.0637,0.0,0.0,0.0,0.0,0.0,0.0,0.0,0.0,0.0,0.0,0.0,0.0,0.0,0.0,0.0,0.0,0.0,0.0,0.0,0.0,0.0,0.0,0.0,0.0,0.0,0.0,0.0,0.0,0.0,0.0,0.0,0.0,0.0,0.0,0.0,-1.9947,-2.0775,-2.1566,0.0,-2.255,-2.2656,-2.2699,-2.338,-2.3703,-2.3682,-2.3305,-2.3153,-2.3105,-2.2548,-2.2296,-2.2296,-2.2296,-2.2265,-2.218,-2.172,-2.1521,-2.1352,-2.0517,-2.0246,-2.0193,-1.9836,-1.9708,-1.9708,-1.9708,-1.9708,-1.9708,-1.9708,-1.9708,-1.9708,-1.9708,-1.9708,-1.9708,-1.9708,-1.9708,-1.9708,-1.9708,-1.9708,-1.969,-1.9639,-1.9621,-1.9603,-1.9566,-1.9584,-1.9621,-1.9621,-1.9132,-1.84,-1.7422,-1.725,-1.7008,-1.6489,-1.5512,-1.4852,-1.4763,-1.3849,-1.3504,-1.4005,-1.4117,-1.4387,-1.489,-1.386,-1.351,-1.3993,-1.3877,-1.3672,-1.3366,-1.4151,-1.4079,-1.3188,-1.3689,-1.3586,0.0,-2.0606,0.0,0.0,0.0,0.0,0.0,0.0,0.0,0.0,0.0,0.0,0.0,0.0,0.0,0.0,0.0,0.0,0.0,0.0,0.0,0.0,0.0,0.0,0.0,0.0,0.0,0.0,0.0,0.0,0.0,0.0,0.0,0.0,0.0,-1.8917,-1.9601,-2.0666,-2.1566,0.0,-2.2363,-2.2388,-2.2429,-2.3294,-2.3703,-2.3671,-2.3069,-2.281,-2.2784,-2.244,-2.2296,-2.2296,-2.2296,-2.2061,-2.1688,-2.1275,-2.091,-2.0516,-2.0,-1.9836,-1.9803,-1.9744,-1.9708,-1.9708,-1.9708,-1.9708,-1.9708,-1.9708,-1.9708,-1.9708,-1.9708,-1.9708,-1.9708,-1.9708,-1.9708,-1.9708,-1.9708,-1.9708,-1.9584,-1.9151,-1.9062,-1.8949,-1.8516,-1.8798,-1.9062,-1.9062,-1.8263,-1.7565,-1.7333,-1.693,-1.6473,-1.594,-1.5299,-1.4555,-1.3724,-1.3797,-1.3778,-1.3488,-1.4261,-1.479,-1.4903,-1.4261,-1.4147,-1.4669,-1.3754,-1.3698,-1.4532,-1.3765,-1.3515,-1.3792,-1.3387,-1.3147,0.0,0.0,0.0,0.0,0.0,0.0,0.0,0.0,0.0,0.0,0.0,0.0,0.0,0.0,0.0,0.0,0.0,0.0,0.0,0.0,0.0,0.0,0.0,0.0,0.0,0.0,0.0,0.0,0.0,0.0,0.0,0.0,0.0,0.0,-1.8499,-1.8928,-1.9491,-2.0243,-2.1194,-2.2296,-2.1938,-2.2034,-2.25,-2.3002,-2.3311,-2.3426,-2.2923,-2.2708,-2.2669,-2.2398,-2.2296,-2.2296,-2.2296,-2.2017,-2.1552,-2.115,-2.0699,-2.0229,-1.9839,-1.9708,-1.9708,-1.9708,-1.9708,-1.9708,-1.9708,-1.9708,-1.9708,-1.9708,-1.9708,-1.9708,-1.9708,-1.9708,-1.9708,-1.9708,-1.9708,-1.9621,-1.9369,-1.953,-1.946,-1.8669,-1.8708,-1.8727,-1.8204,-1.8341,-1.8438,-1.8185,-1.7666,-1.7209,-1.6951,-1.642,-1.5963,-1.5682,-1.4711,-1.3856,-1.329,-1.3092,-1.3077,-1.3232,-1.378,-1.4288,-1.4779,-1.4303,-1.4149,-1.4455,-1.3532,-1.3362,-1.399,-1.3622,-1.3472,-1.3515,-1.309,-1.2742,0.0,0.0,0.0,0.0,0.0,0.0,0.0,0.0,0.0,0.0,0.0,0.0,0.0,0.0,0.0,0.0,0.0,0.0,0.0,0.0,0.0,0.0,0.0,0.0,0.0,0.0,0.0,0.0,0.0,0.0,0.0,0.0,-1.8303,-1.8114,-1.8379,-1.8757,-1.9216,-1.9617,-2.0521,-2.189,-2.1427,-2.1706,-2.2621,-2.2621,-2.2815,-2.3093,-2.2759,-2.2621,-2.2612,-2.2402,-2.2296,-2.2296,-2.2209,-2.1899,-2.1445,-2.1039,-2.0599,-2.0158,-1.9818,-1.9708,-1.9708,-1.9708,-1.9708,-1.969,-1.9584,-1.9566,-1.9548,-1.9442,-1.9479,-1.9548,-1.9442,-1.9566,-1.9639,-1.946,-1.9479,-1.9442,-1.9006,-1.9188,-1.9132,-1.8165,-1.8263,-1.838,-1.8027,-1.7825,-1.7605,-1.734,-1.7151,-1.6855,-1.6398,-1.5908,-1.553,-1.5325,-1.4114,-1.3258,-1.3065,-1.2511,-1.2452,-1.3131,-1.3369,-1.3825,-1.4664,-1.4172,-1.3902,-1.3969,-1.3325,-1.3104,-1.3297,-1.3587,-1.3449,-1.2952,-1.2736,-1.2263,0.0,0.0,0.0,0.0,0.0,0.0,0.0,0.0,0.0,0.0,0.0,0.0,0.0,0.0,0.0,0.0,0.0,0.0,0.0,0.0,0.0,0.0,0.0,0.0,0.0,0.0,0.0,0.0,0.0,0.0,0.0,-1.7769,-1.7328,-1.7763,-1.7325,-1.7401,-1.8103,-1.8731,-1.9473,-2.0306,-2.0906,-2.1607,-2.2346,-2.2346,-2.2487,-2.2746,-2.2463,-2.2346,-2.2349,-2.2307,-2.2296,-2.2268,-2.1838,-2.143,-2.1023,-2.0566,-2.0124,-1.9764,-1.9711,-1.9708,-1.9708,-1.9708,-1.9708,-1.9603,-1.9151,-1.9006,-1.8912,-1.8438,-1.865,-1.8893,-1.8438,-1.9006,-1.946,-1.8535,-1.8669,-1.8987,-1.893,-1.8593,-1.8145,-1.7524,-1.7097,-1.6951,-1.7353,-1.6653,-1.6314,-1.7171,-1.6517,-1.5874,-1.5738,-1.5654,-1.5211,-1.4236,-1.3926,-1.3433,-1.2499,-1.3161,-1.3466,-1.3126,-1.3993,-1.4563,-1.4698,-1.4136,-1.3816,-1.3822,-1.3281,-1.3495,-1.4474,-1.3486,-1.297,-1.2805,-1.222,-1.1557,0.0,0.0,0.0,0.0,0.0,0.0,0.0,0.0,0.0,0.0,0.0,0.0,0.0,0.0,0.0,0.0,0.0,0.0,0.0,0.0,0.0,0.0,0.0,0.0,0.0,0.0,0.0,0.0,0.0,0.0,-1.7875,-1.7267,-1.698,-1.7129,-1.714,-1.7386,-1.7877,-1.8383,-1.9081,-2.0002,-2.1228,-2.1989,-2.2296,-2.2296,-2.236,-2.2477,-2.2349,-2.2296,-2.2296,-2.2296,-2.2296,-2.2237,-2.1794,-2.1353,-2.0943,-2.0466,-2.0052,-1.9708,-1.9708,-1.9708,-1.9639,-1.935,-1.9244,-1.9151,-1.8612,-1.8458,-1.84,-1.8185,-1.8283,-1.84,-1.8165,-1.8458,-1.8669,-1.8224,-1.8046,-1.8007,-1.8007,-1.8046,-1.7947,-1.7415,-1.6879,-1.6573,-1.6816,-1.6456,-1.6317,-1.6778,-1.6165,-1.562,-1.5596,-1.5016,-1.4392,-1.3909,-1.3322,-1.2754,-1.227,-1.2477,-1.2603,-1.2589,-1.3045,-1.3411,-1.3671,-1.3454,-1.331,-1.331,-1.3071,-1.3179,-1.3681,-1.2749,-1.2276,-1.2214,-1.1157,-1.0517,0.0,0.0,0.0,0.0,0.0,0.0,0.0,0.0,0.0,0.0,0.0,0.0,0.0,0.0,0.0,0.0,0.0,0.0,0.0,0.0,0.0,0.0,0.0,0.0,0.0,0.0,0.0,0.0,0.0,0.0,-1.7361,-1.7227,-1.7081,-1.6965,-1.7224,-1.7413,-1.7502,-1.8091,-1.9042,-2.0318,-2.1481,-2.2124,-2.2296,-2.218,-2.212,-2.212,-2.2254,-2.2223,-2.212,-2.212,-2.2063,-2.1915,-2.1445,-2.1086,-2.078,-2.0313,-1.9947,-1.9708,-1.9708,-1.9603,-1.9424,-1.9024,-1.8817,-1.8593,-1.8066,-1.7907,-1.7867,-1.7727,-1.7787,-1.7867,-1.7727,-1.7907,-1.8027,-1.7767,-1.7483,-1.725,-1.7126,-1.7415,-1.7585,-1.7167,-1.6774,-1.65,-1.65,-1.6246,-1.6111,-1.6247,-1.5634,-1.5168,-1.514,-1.4365,-1.3732,-1.36,-1.2852,-1.2369,-1.2369,-1.2113,-1.2064,-1.235,-1.2369,-1.2515,-1.2895,-1.2905,-1.2905,-1.2905,-1.2725,-1.2608,-1.2608,-1.208,-1.1616,-1.1266,-1.0269,-0.9718,0.0,0.0,0.0,0.0,0.0,0.0,0.0,0.0,0.0,0.0,0.0,0.0,0.0,0.0,0.0,0.0,0.0,0.0,0.0,0.0,0.0,0.0,0.0,0.0,0.0,0.0,0.0,0.0,0.0,0.0,-1.8011,-1.7917,-1.7783,-1.7652,-1.744,-1.7012,-1.6388,-1.7717,-1.9321,-2.114,-2.1207,-2.1617,-2.2282,-2.1838,-2.1643,-2.1658,-2.2106,-2.2046,-2.1643,-2.1643,-2.1399,-2.1007,-2.055,-2.0348,-2.028,-1.9874,-1.9711,-1.9708,-1.9708,-1.9369,-1.8949,-1.8912,-1.8554,-1.8046,-1.7504,-1.7353,-1.7229,-1.6731,-1.6951,-1.7209,-1.671,-1.7353,-1.7847,-1.6837,-1.6951,-1.7146,-1.6659,-1.6552,-1.6573,-1.6552,-1.6522,-1.65,-1.65,-1.5605,-1.5053,-1.556,-1.4693,-1.3972,-1.3903,-1.3839,-1.3576,-1.3017,-1.291,-1.2866,-1.2866,-1.2846,-1.2846,-1.2866,-1.2866,-1.2876,-1.2905,-1.2905,-1.2905,-1.2905,-1.2212,-1.1864,-1.1864,-1.1814,-1.1141,-0.9891,-0.984,-0.9465,0.0,0.0,0.0,0.0,0.0,0.0,0.0,0.0,0.0,0.0,0.0,0.0,0.0,0.0,0.0,0.0,0.0,0.0,0.0,0.0,0.0,0.0,0.0,0.0,0.0,0.0,0.0,0.0,0.0,0.0,-1.7444,-1.7729,-1.7844,-1.7712,-1.718,-1.6922,-1.6937,-1.8537,-1.9706,-2.0372,-2.1108,-2.1472,-2.1478,-2.1568,-2.146,-2.1213,-2.1385,-2.1369,-2.1213,-2.1213,-2.1134,-2.0943,-2.0483,-2.0297,-2.0246,-1.9839,-1.9708,-1.9639,-1.9314,-1.9062,-1.8798,-1.8106,-1.7747,-1.7483,-1.6951,-1.6795,-1.6752,-1.6552,-1.6637,-1.6731,-1.6552,-1.6795,-1.6972,-1.6595,-1.6659,-1.6731,-1.6531,-1.65,-1.65,-1.65,-1.65,-1.638,-1.5986,-1.5576,-1.5254,-1.505,-1.4336,-1.3822,-1.3794,-1.3457,-1.3152,-1.2929,-1.2905,-1.2905,-1.2905,-1.2905,-1.2905,-1.2905,-1.2905,-1.2905,-1.2905,-1.2905,-1.2905,-1.2905,-1.2187,-1.1789,-1.1789,-1.0939,-1.0269,-0.9788,-0.9361,-0.9035,0.0,0.0,0.0,0.0,0.0,0.0,0.0,0.0,0.0,0.0,0.0,0.0,0.0,0.0,0.0,0.0,0.0,0.0,0.0,0.0,0.0,0.0,0.0,0.0,0.0,0.0,0.0,0.0,0.0,0.0,-1.7449,-1.8112,-1.8355,-1.8041,-1.7384,-1.7363,-1.8005,-1.9139,-1.9909,-2.0288,-2.0821,-2.1048,-2.0991,-2.0908,-2.0717,-2.048,-2.0521,-2.0632,-2.078,-2.078,-2.0682,-2.0532,-2.021,-2.0089,-2.007,-1.98,-1.9708,-1.9621,-1.9095,-1.8779,-1.8477,-1.7585,-1.7167,-1.6951,-1.6616,-1.65,-1.65,-1.65,-1.65,-1.65,-1.65,-1.65,-1.65,-1.65,-1.6358,-1.6194,-1.6194,-1.6358,-1.65,-1.65,-1.65,-1.6315,-1.5698,-1.5432,-1.5096,-1.4491,-1.3873,-1.3505,-1.3505,-1.3152,-1.2905,-1.2905,-1.2691,-1.2525,-1.2525,-1.2525,-1.2525,-1.2525,-1.2525,-1.2525,-1.2525,-1.2304,-1.2206,-1.2206,-1.1475,-1.1141,-1.1141,-1.0236,-0.9692,-0.9458,-0.8765,-0.8295,0.0,0.0,0.0,0.0,0.0,0.0,0.0,0.0,0.0,0.0,0.0,0.0,0.0,0.0,0.0,0.0,0.0,0.0,0.0,0.0,0.0,0.0,0.0,0.0,0.0,0.0,0.0,0.0,0.0,-1.8106,-1.8106,-1.9132,-1.9393,-1.8732,-1.8087,-1.8287,-1.937,-1.9401,-1.9938,-2.0959,-2.0303,-2.0335,-2.0927,-1.9907,-1.9417,-1.9431,-1.9617,-1.9927,-2.028,-2.028,-2.0037,-1.9708,-1.9708,-1.9708,-1.9708,-1.9708,-1.969,-1.9603,-1.9062,-1.8535,-1.7987,-1.7442,-1.6909,-1.65,-1.6466,-1.6466,-1.6466,-1.6445,-1.6457,-1.6466,-1.65,-1.65,-1.6466,-1.6466,-1.603,-1.561,-1.5588,-1.603,-1.6457,-1.6457,-1.6457,-1.6272,-1.5654,-1.505,-1.4468,-1.3862,-1.3286,-1.2905,-1.2905,-1.2905,-1.2905,-1.2905,-1.2236,-1.1789,-1.1789,-1.1789,-1.1789,-1.1789,-1.1789,-1.1789,-1.1789,-1.1166,-1.0788,-1.0788,-1.0141,-0.9788,-0.9788,-0.9788,-0.9413,-0.8752,-0.8023,-0.7289,-2.367,0.0,0.0,0.0,0.0,0.0,0.0,0.0,0.0,0.0,0.0,0.0,0.0,0.0,0.0,0.0,0.0,0.0,0.0,0.0,0.0,0.0,0.0,0.0,0.0,0.0,0.0,0.0,-1.7483,-1.8106,-1.8106,-1.9132,-1.9393,-1.8732,-1.8986,-1.9071,-1.8906,-1.9375,-1.9778,-2.0052,-2.0177,-2.0161,-2.0052,-2.0059,-1.9897,-1.9615,-1.9671,-1.9764,-1.9874,-1.9874,-1.98,-1.9708,-1.9708,-1.9708,-1.9708,-1.9708,-1.9442,-1.9043,-1.8516,-1.7967,-1.7422,-1.6888,-1.6616,-1.6423,-1.5986,-1.5842,-1.5754,-1.531,-1.5511,-1.5964,-1.638,-1.6173,-1.5842,-1.5842,-1.572,-1.5477,-1.5028,-1.5085,-1.5197,-1.5197,-1.5197,-1.5017,-1.4411,-1.4167,-1.3849,-1.3238,-1.3017,-1.2905,-1.2905,-1.2905,-1.2905,-1.2905,-1.2236,-1.1789,-1.1789,-1.1366,-1.1291,-1.1765,-1.1341,-1.1291,-1.1789,-1.1166,-1.0788,-1.0788,-1.0141,-0.9788,-0.9788,-0.9309,-0.8712,-0.799,-0.7235,-0.6804,0.0,0.0,0.0,0.0,0.0,0.0,0.0,-1.7108,0.0,0.0,0.0,0.0,0.0,0.0,0.0,0.0,0.0,0.0,0.0,0.0,0.0,0.0,0.0,0.0,0.0,0.0,0.0,0.0,-1.7291,-1.7967,-1.8419,-1.9244,-1.9528,-1.9121,-1.9513,-1.9513,-1.9121,-1.9513,-1.9708,-1.9693,-1.9656,-1.9654,-1.9693,-1.9641,-1.9502,-1.9286,-1.9588,-1.9543,-1.9301,-1.9339,-1.9497,-1.9708,-1.9708,-1.9708,-1.9708,-1.9708,-1.9369,-1.8817,-1.8302,-1.7747,-1.7209,-1.668,-1.65,-1.638,-1.5776,-1.561,-1.5477,-1.488,-1.4949,-1.531,-1.5656,-1.5488,-1.5231,-1.5231,-1.5028,-1.4755,-1.4399,-1.4131,-1.4084,-1.4606,-1.4698,-1.4514,-1.3909,-1.3792,-1.36,-1.2992,-1.2905,-1.2905,-1.2905,-1.2905,-1.2905,-1.2905,-1.199,-1.1391,-1.1391,-1.0771,-1.0542,-1.0939,-1.0593,-1.0568,-1.0939,-1.0312,-0.9969,-0.9969,-0.9588,-0.9223,-0.8922,-0.8521,-0.7803,-0.6767,-0.6335,-0.5987,0.0,0.0,0.0,0.0,0.0,0.0,-1.8759,-1.7329,-1.6042,0.0,0.0,0.0,0.0,0.0,0.0,0.0,0.0,0.0,0.0,0.0,0.0,0.0,0.0,0.0,0.0,0.0,-1.5776,-1.6445,-1.7055,-1.7827,-1.8855,-1.9406,-1.9708,-1.9708,-1.9708,-1.9708,-1.9708,-1.9708,-1.9708,-1.9693,-1.9091,-1.9121,-1.9678,-1.9076,-1.8807,-1.8852,-1.9453,-1.9328,-1.873,-1.8862,-1.9225,-1.969,-1.9621,-1.9639,-1.969,-1.9621,-1.9262,-1.8727,-1.8204,-1.7666,-1.7126,-1.6659,-1.65,-1.638,-1.571,-1.5499,-1.5365,-1.4766,-1.4537,-1.4525,-1.4663,-1.4652,-1.4606,-1.4606,-1.419,-1.3768,-1.3708,-1.3286,-1.3224,-1.4294,-1.4502,-1.434,-1.3779,-1.3708,-1.3529,-1.2968,-1.2905,-1.2905,-1.2905,-1.2905,-1.2881,-1.2798,-1.1584,-1.0771,-1.0686,-1.0064,-0.971,-0.9788,-0.9736,-0.971,-0.9788,-0.9159,-0.8804,-0.8804,-0.8725,-0.8315,-0.7589,-0.7589,-0.6875,-0.5487,-0.5433,-0.5085,0.0,0.0,0.0,0.0,0.0,0.0,-2.0895,-1.9334,-1.7786,0.0,0.0,0.0,0.0,0.0,0.0,0.0,0.0,0.0,0.0,0.0,0.0,0.0,0.0,0.0,0.0,0.0,-1.5332,-1.6423,-1.7415,-1.8224,-1.8874,-1.9406,-1.9708,-1.9708,-1.9708,-1.9708,-1.9708,-1.9708,-1.9708,-1.9708,-1.9573,-1.9573,-1.9708,-1.9573,-1.9513,-1.9513,-1.9648,-1.9383,-1.8869,-1.8891,-1.9225,-1.9657,-1.9225,-1.9332,-1.9639,-1.9225,-1.8708,-1.8185,-1.7646,-1.7097,-1.6637,-1.6543,-1.65,-1.6293,-1.5197,-1.488,-1.4744,-1.4143,-1.3624,-1.3478,-1.4456,-1.4329,-1.398,-1.398,-1.3886,-1.3661,-1.3176,-1.2968,-1.2978,-1.32,-1.3248,-1.32,-1.3113,-1.3079,-1.3041,-1.2929,-1.2905,-1.2905,-1.2905,-1.2905,-1.2666,-1.208,-1.1291,-1.0593,-1.0038,-0.9387,-0.9237,-0.9762,-0.9283,-0.9237,-0.9788,-0.9159,-0.8804,-0.8804,-0.8209,-0.7563,-0.6804,-0.6804,-0.6362,-0.5483,-0.4948,-0.4625,0.0,0.0,0.0,-2.3785,0.0,0.0,0.0,-2.0455,-1.9421,0.0,0.0,0.0,0.0,0.0,0.0,0.0,0.0,0.0,0.0,0.0,0.0,0.0,0.0,0.0,0.0,0.0,-1.5197,-1.6402,-1.725,-1.7947,-1.8477,-1.9006,-1.9424,-1.969,-1.9708,-1.9708,-1.9708,-1.9708,-1.9708,-1.9708,-1.9708,-1.9708,-1.9693,-1.9346,-1.9375,-1.9693,-1.9346,-1.9092,-1.8874,-1.8612,-1.865,-1.8874,-1.8612,-1.8669,-1.8874,-1.8593,-1.8165,-1.7666,-1.7394,-1.6951,-1.65,-1.65,-1.65,-1.6259,-1.5073,-1.4271,-1.3752,-1.3443,-1.3128,-1.3041,-1.3658,-1.3586,-1.3348,-1.3348,-1.3348,-1.3262,-1.2978,-1.2905,-1.2905,-1.2905,-1.2905,-1.2905,-1.2905,-1.2905,-1.2905,-1.2905,-1.2905,-1.2905,-1.2905,-1.2584,-1.2212,-1.1839,-1.0889,-1.0167,-0.984,-0.9185,-0.8936,-0.929,-0.8982,-0.8956,-0.929,-0.8982,-0.8619,-0.8262,-0.7536,-0.6799,-0.6064,-0.6064,-0.5683,-0.5003,-0.4653,-0.4491,0.0,0.0,0.0,0.0,0.0,-2.3318,0.0,0.0,0.0,-1.954,0.0,0.0,0.0,0.0,0.0,0.0,0.0,0.0,0.0,0.0,0.0,0.0,0.0,0.0,0.0,0.0,-1.5332,-1.6423,-1.6993,-1.7524,-1.8066,-1.8612,-1.9151,-1.969,-1.9708,-1.9708,-1.9708,-1.9708,-1.9708,-1.9708,-1.9708,-1.9708,-1.9693,-1.9033,-1.9025,-1.9518,-1.8859,-1.8597,-1.8554,-1.8125,-1.7887,-1.7807,-1.7907,-1.8007,-1.8086,-1.7987,-1.7666,-1.7291,-1.7167,-1.6858,-1.65,-1.65,-1.6337,-1.5954,-1.4858,-1.3776,-1.2905,-1.2905,-1.2905,-1.2905,-1.2905,-1.2905,-1.2905,-1.2905,-1.2905,-1.2905,-1.2905,-1.2905,-1.2905,-1.2905,-1.2905,-1.2905,-1.2905,-1.2905,-1.2905,-1.2905,-1.2905,-1.2905,-1.2905,-1.2261,-1.1765,-1.1616,-1.0517,-0.9736,-0.9614,-0.9106,-0.8725,-0.8593,-0.8725,-0.8725,-0.8593,-0.8593,-0.8235,-0.7503,-0.6772,-0.6091,-0.5515,-0.5378,-0.503,-0.4491,-0.4491,-0.4491,0.0,0.0,0.0,0.0,-2.3917,0.0,0.0,0.0,-2.2459,-2.1683,0.0,0.0,0.0,0.0,0.0,0.0,0.0,0.0,0.0,0.0,0.0,0.0,0.0,0.0,0.0,0.0,0.0,-1.6445,-1.6993,-1.7524,-1.8066,-1.8612,-1.9151,-1.969,-1.9708,-1.9708,-1.9708,-1.9708,-1.9708,-1.9708,-1.9708,-1.9708,-1.9675,-1.9133,-1.8914,-1.8968,-1.8407,-1.7898,-1.7483,-1.7435,-1.7118,-1.6731,-1.7209,-1.7686,-1.8046,-1.7565,-1.7353,-1.7229,-1.6752,-1.6552,-1.65,-1.65,-1.5788,-1.4766,-1.412,-1.342,-1.2905,-1.2905,-1.2905,-1.2905,-1.2905,-1.2905,-1.2905,-1.2905,-1.2905,-1.2905,-1.2905,-1.2905,-1.2905,-1.2905,-1.2905,-1.2905,-1.2905,-1.2905,-1.2905,-1.2905,-1.2905,-1.2905,-1.2905,-1.2261,-1.1566,-1.099,-1.0244,-0.9562,-0.8956,-0.8831,-0.8507,-0.7857,-0.8427,-0.8507,-0.7857,-0.783,-0.7477,-0.675,-0.6009,-0.5597,-0.5487,-0.4893,-0.457,-0.4491,-0.4491,-0.4491,0.0,0.0,0.0,0.0,0.0,0.0,0.0,0.0,-2.3785,0.0,0.0,0.0,0.0,0.0,0.0,0.0,0.0,0.0,0.0,0.0,0.0,0.0,0.0,0.0,0.0,0.0,0.0,0.0,0.0,-1.7209,-1.8046,-1.8322,-1.8817,-1.9672,-1.9708,-1.9708,-1.9708,-1.9708,-1.9708,-1.9708,-1.9387,-1.9244,-1.9192,-1.828,-1.8063,-1.8391,-1.7791,-1.7252,-1.6857,-1.7167,-1.6798,-1.6091,-1.6625,-1.6972,-1.7126,-1.6909,-1.6837,-1.6795,-1.6573,-1.65,-1.6445,-1.6095,-1.5163,-1.412,-1.3886,-1.3372,-1.2905,-1.2905,-1.2905,-1.2905,-1.2905,-1.2905,-1.2905,-1.2905,-1.2905,-1.2905,-1.2905,-1.2905,-1.2905,-1.2905,-1.2676,-1.25,-1.25,-1.2715,-1.2905,-1.2905,-1.2905,-1.2905,-1.2905,-1.1916,-1.1116,-1.0838,-0.9865,-0.9113,-0.8831,-0.8804,-0.848,-0.775,-0.7996,-0.783,-0.7101,-0.7074,-0.6718,-0.5982,-0.5277,-0.4921,-0.4921,-0.4625,-0.4491,-0.4491,-0.4491,-0.4491,-2.419,0.0,0.0,0.0,0.0,0.0,0.0,0.0,0.0,0.0,0.0,0.0,0.0,0.0,0.0,0.0,0.0,0.0,0.0,0.0,0.0,0.0,0.0,0.0,0.0,0.0,0.0,0.0,0.0,0.0,-1.8046,-1.8106,-1.8593,-1.9672,-1.9708,-1.9708,-1.9708,-1.9548,-1.9479,-1.946,-1.8949,-1.8669,-1.8655,-1.7631,-1.7343,-1.7634,-1.6998,-1.6478,-1.6101,-1.6479,-1.6263,-1.5731,-1.6132,-1.6362,-1.65,-1.65,-1.65,-1.65,-1.65,-1.6402,-1.6129,-1.5365,-1.4515,-1.3768,-1.3589,-1.3238,-1.2905,-1.2905,-1.2905,-1.2905,-1.2905,-1.2905,-1.2905,-1.2905,-1.2905,-1.2905,-1.2905,-1.2905,-1.2905,-1.2905,-1.2464,-1.2101,-1.2101,-1.2287,-1.2445,-1.2445,-1.2361,-1.2314,-1.2314,-1.1283,-1.0542,-1.0542,-0.9484,-0.8804,-0.8804,-0.8804,-0.848,-0.775,-0.7316,-0.6848,-0.6312,-0.6312,-0.5955,-0.5246,-0.4759,-0.4491,-0.4491,-0.4491,-0.4491,-0.4491,-0.4491,-0.4491,0.0,0.0,0.0,-2.419,0.0,0.0,0.0,0.0,-2.4828,0.0,0.0,0.0,0.0,0.0,0.0,0.0,0.0,0.0,0.0,0.0,0.0,0.0,0.0,0.0,0.0,0.0,0.0,0.0,0.0,0.0,-1.8046,-1.8106,-1.8593,-1.9672,-1.9708,-1.9708,-1.9708,-1.9188,-1.893,-1.893,-1.838,-1.8145,-1.8125,-1.7551,-1.7022,-1.6526,-1.5984,-1.5452,-1.496,-1.4973,-1.5268,-1.5693,-1.5718,-1.6045,-1.65,-1.65,-1.65,-1.65,-1.65,-1.6117,-1.542,-1.4249,-1.3815,-1.3684,-1.3104,-1.2929,-1.2905,-1.2905,-1.2905,-1.2905,-1.2905,-1.2905,-1.2905,-1.2905,-1.2905,-1.2905,-1.2905,-1.2905,-1.2905,-1.2905,-1.231,-1.1821,-1.1821,-1.1499,-1.1255,-1.1255,-1.1034,-1.0864,-1.0864,-1.0261,-0.984,-0.984,-0.9211,-0.8804,-0.8804,-0.8804,-0.848,-0.775,-0.6357,-0.5569,-0.5542,-0.5538,-0.5218,-0.4546,-0.4519,-0.4491,-0.4491,-0.4491,-0.4491,-0.4491,-0.4491,-0.4491,0.0,0.0,-2.419,-2.419,0.0,0.0,0.0,0.0,0.0,0.0,0.0,0.0,0.0,0.0,0.0,0.0,0.0,0.0,0.0,0.0,0.0,0.0,0.0,0.0,0.0,0.0,0.0,0.0,0.0,0.0,0.0,-1.8106,-1.8593,-1.9672,-1.9708,-1.9708,-1.9708,-1.9169,-1.8893,-1.8893,-1.8007,-1.7565,-1.7544,-1.7013,-1.6672,-1.648,-1.5926,-1.5399,-1.4896,-1.4896,-1.4997,-1.5173,-1.5173,-1.5718,-1.65,-1.65,-1.65,-1.6445,-1.6051,-1.5253,-1.4342,-1.3933,-1.3529,-1.3176,-1.2968,-1.2905,-1.2905,-1.2905,-1.2905,-1.2905,-1.2905,-1.2905,-1.2905,-1.2905,-1.2905,-1.2905,-1.2905,-1.2905,-1.2774,-1.227,-1.1762,-1.1259,-1.0824,-1.027,-1.0124,-1.0821,-1.0864,-1.0788,-1.0788,-1.021,-0.9788,-0.9788,-0.9211,-0.8804,-0.8804,-0.791,-0.7235,-0.6993,-0.6032,-0.5296,-0.4866,-0.5273,-0.5191,-0.4519,-0.4491,-0.4491,-0.4491,-0.4491,-0.4491,-0.4491,-0.4491,-0.4491,-2.419,-2.419,0.0,-2.419,-2.419,0.0,-2.4452,0.0,0.0,0.0,0.0,0.0,0.0,0.0,0.0,0.0,0.0,0.0,0.0,-2.3628,0.0,0.0,0.0,0.0,0.0,0.0,0.0,0.0,0.0,0.0,0.0,0.0,-1.8593,-1.9672,-1.9708,-1.9603,-1.9424,-1.8874,-1.8516,-1.8322,-1.7442,-1.7013,-1.7013,-1.6456,-1.612,-1.5906,-1.5361,-1.4808,-1.4305,-1.4305,-1.4532,-1.4896,-1.4896,-1.5449,-1.622,-1.622,-1.6197,-1.6095,-1.5477,-1.4641,-1.3755,-1.3552,-1.3214,-1.2905,-1.2905,-1.2905,-1.2905,-1.2905,-1.2905,-1.2905,-1.2905,-1.2905,-1.2905,-1.2905,-1.2691,-1.2501,-1.2501,-1.2329,-1.2024,-1.1541,-1.1044,-1.0573,-1.013,-0.9507,-0.9318,-1.0124,-1.014,-1.009,-1.009,-0.971,-0.9439,-0.9439,-0.9061,-0.8699,-0.8427,-0.7289,-0.6475,-0.6231,-0.5546,-0.4948,-0.4515,-0.4924,-0.4948,-0.4519,-0.4491,-0.4491,-0.4491,-0.4491,-0.4491,-0.4491,-0.4491,-0.4491]},{"header":{"parameterUnit":"m.s-1","parameterCategory":1,"la1":30.6,"la2":29.2853,"lo1":-89.7004,"lo2":-87.6739,"dy":0.0162,"dx":0.0183,"nx":112,"ny":82,"refTime":"2023-04-18T12:00:00:Z","depth":0,"parameterNumber":3,"parameterNumberName":"V-component_of_WINDS"},"data":[0.0,0.0,0.0,0.0,0.0,0.0,0.0,0.0,0.0,0.0,0.0,0.0,0.0,0.0,0.0,0.0,0.0,0.0,0.0,0.0,0.0,0.0,0.0,0.0,0.0,0.0,0.0,0.0,0.0,0.0,0.0,0.0,0.0,0.0,0.0,0.0,0.0,0.0,0.0,0.0,0.0,0.0,0.0,0.0,0.0,0.0,0.0,0.0,0.0,0.0,0.0,0.0,0.0,0.0,0.0,0.0,0.0,0.0,0.0,0.0,0.0,0.0,0.0,0.0,0.0,0.0,0.0,0.0,0.0,0.0,0.0,0.0,0.0,0.0,0.0,0.0,0.0,0.0,0.0,0.0,0.0,0.0,0.0,0.0,0.0,0.0,0.0,0.0,0.0,0.0,0.0,-0.7481,-1.1043,-1.339,-1.3479,-1.6033,-1.6603,-1.4175,0.0,0.0,0.0,0.0,0.0,0.0,0.0,0.0,0.0,0.0,0.0,0.0,0.0,0.0,0.0,0.0,0.0,0.0,0.0,0.0,0.0,0.0,0.0,0.0,0.0,0.0,0.0,0.0,0.0,0.0,0.0,0.0,0.0,0.0,0.0,0.0,0.0,0.0,0.0,0.0,0.0,0.0,0.0,0.0,0.0,0.0,0.0,0.0,0.0,0.0,0.0,0.0,0.0,0.0,0.0,0.0,0.0,0.0,0.0,0.0,0.0,0.0,0.0,0.0,0.0,0.0,0.0,0.0,0.0,0.0,0.0,0.0,0.0,0.0,0.0,0.0,0.0,0.0,0.0,0.0,0.0,0.0,0.0,0.0,0.0,0.0,0.0,0.0,0.0,0.0,0.0,0.0,0.0,0.0,0.0,0.0,0.0,0.0,0.0,0.0,0.0,0.0,0.0,0.0,-0.6961,-0.9291,-1.1364,-1.306,-1.4231,-1.5413,-1.5418,-1.3773,0.0,0.0,0.0,0.0,0.0,0.0,0.0,0.0,0.0,0.0,0.0,0.0,0.0,0.0,0.0,0.0,0.0,0.0,0.0,0.0,0.0,0.0,0.0,0.0,0.0,0.0,0.0,0.0,0.0,0.0,0.0,0.0,0.0,0.0,0.0,0.0,0.0,0.0,0.0,0.0,0.0,0.0,0.0,0.0,0.0,0.0,0.0,0.0,0.0,0.0,0.0,0.0,0.0,0.0,0.0,0.0,0.0,0.0,0.0,0.0,0.0,0.0,0.0,0.0,0.0,0.0,0.0,0.0,0.0,0.0,0.0,0.0,0.0,0.0,0.0,0.0,0.0,0.0,0.0,0.0,0.0,0.0,0.0,0.0,0.0,0.0,0.0,0.0,0.0,0.0,0.0,0.0,0.0,0.0,0.0,0.0,0.0,0.0,0.0,0.0,0.0,0.0,0.0,-0.6224,-0.7282,-0.9662,-1.1387,-1.292,-1.4275,-1.528,-1.5092,-1.3473,-1.4265,0.0,0.0,0.0,0.0,0.0,0.0,0.0,0.0,0.0,0.0,0.0,0.0,0.0,0.0,0.0,0.0,0.0,0.0,0.0,0.0,0.0,0.0,0.0,0.0,0.0,0.0,0.0,0.0,0.0,0.0,0.0,0.0,0.0,0.0,0.0,0.0,0.0,0.0,0.0,0.0,0.0,0.0,0.0,0.0,0.0,0.0,0.0,0.0,0.0,0.0,0.0,0.0,0.0,0.0,0.0,0.0,0.0,0.0,0.0,0.0,0.0,0.0,0.0,0.0,0.0,0.0,0.0,0.0,0.0,0.0,0.0,0.0,0.0,0.0,0.0,0.0,0.0,0.0,0.0,0.0,0.0,0.0,0.0,0.0,0.0,0.0,0.0,0.0,0.0,0.0,0.0,0.0,0.0,0.0,0.0,0.0,0.0,0.0,0.0,0.0,0.0,0.0,-0.6695,-0.7665,-1.0,-1.1477,-1.292,-1.443,-1.5023,-1.4605,-1.3093,-1.3282,0.0,0.0,0.0,0.0,0.0,0.0,0.0,0.0,0.0,0.0,0.0,0.0,0.0,0.0,0.0,0.0,0.0,0.0,0.0,0.0,0.0,0.0,0.0,0.0,0.0,0.0,0.0,0.0,0.0,0.0,0.0,0.0,0.0,0.0,0.0,0.0,0.0,0.0,0.0,0.0,0.0,0.0,0.0,0.0,0.0,0.0,0.0,0.0,0.0,0.0,0.0,0.0,0.0,0.0,0.0,0.0,0.0,0.0,0.0,0.0,0.0,0.0,0.0,0.0,0.0,0.0,0.0,0.0,0.0,0.0,0.0,0.0,0.0,0.0,0.0,0.0,0.0,0.0,0.0,0.0,0.0,0.0,0.0,0.0,0.0,0.0,0.0,0.0,0.0,0.0,0.0,0.0,0.0,0.0,0.0,0.0,0.0,0.0,0.0,0.0,0.0,0.0,-0.664,-0.8222,-1.1254,-1.1776,-1.2849,-1.5146,-1.4349,-1.3347,-1.2425,-1.2278,0.0,0.0,0.0,0.0,0.0,0.0,0.0,0.0,0.0,0.0,0.0,0.0,0.0,0.0,0.0,0.0,0.0,0.0,0.0,0.0,0.0,0.0,0.0,0.0,0.0,0.0,0.0,0.0,0.0,0.0,0.0,0.0,0.0,0.0,0.0,0.0,0.0,0.0,0.0,0.0,0.0,0.0,0.0,0.0,0.0,0.0,0.0,0.0,0.0,0.0,0.0,0.0,0.0,0.0,0.0,0.0,0.0,0.0,0.0,0.0,0.0,0.0,0.0,0.0,0.0,0.0,0.0,0.0,0.0,0.0,0.0,0.0,0.0,0.0,0.0,0.0,0.0,0.0,0.0,0.0,0.0,0.0,0.0,0.0,0.0,0.0,0.0,0.0,0.0,0.0,0.0,0.0,0.0,0.0,0.0,0.0,0.0,0.0,0.0,0.0,0.0,0.0,-0.6909,-0.8614,0.0,-1.2088,-1.3205,-1.4691,-1.4066,-1.306,-1.1837,0.0,0.0,0.0,0.0,0.0,0.0,0.0,0.0,0.0,0.0,0.0,0.0,0.0,0.0,0.0,0.0,0.0,0.0,0.0,0.0,0.0,0.0,0.0,0.0,0.0,0.0,0.0,0.0,0.0,0.0,0.0,0.0,0.0,0.0,0.0,0.0,0.0,0.0,0.0,0.0,0.0,0.0,0.0,0.0,0.0,0.0,0.0,0.0,0.0,0.0,0.0,0.0,0.0,0.0,0.0,0.0,0.0,0.0,0.0,0.0,0.0,0.0,0.0,0.0,0.0,0.0,0.0,0.0,0.0,0.0,0.0,0.0,0.0,0.0,0.0,0.0,0.0,0.0,0.0,0.0,0.0,0.0,0.0,0.0,0.0,0.0,0.0,0.0,0.0,0.0,0.0,0.0,0.0,0.0,0.0,0.0,0.0,0.0,0.0,0.0,0.0,0.0,-0.5657,-0.7074,-0.8742,0.0,-1.1999,-1.3121,-1.4134,-1.34,-1.254,-1.1648,0.0,0.0,0.0,0.0,0.0,0.0,0.0,0.0,0.0,0.0,0.0,0.0,0.0,0.0,0.0,0.0,0.0,0.0,0.0,0.0,0.0,0.0,0.0,0.0,0.0,0.0,0.0,0.0,0.0,0.0,0.0,0.0,0.0,0.0,0.0,0.0,0.0,0.0,0.0,0.0,0.0,0.0,0.0,0.0,0.0,0.0,0.0,0.0,0.0,0.0,0.0,0.0,0.0,0.0,0.0,0.0,0.0,0.0,0.0,0.0,0.0,0.0,0.0,0.0,0.0,0.0,0.0,0.0,0.0,0.0,0.0,0.0,0.0,0.0,0.0,0.0,0.0,0.0,0.0,0.0,0.0,0.0,0.0,0.0,0.0,0.0,0.0,0.0,0.0,0.0,0.0,0.0,0.0,0.0,0.0,0.0,0.0,0.0,0.0,0.0,0.0,0.0,-0.5583,-0.7031,-0.8618,-1.0221,-1.1446,-1.2524,-1.3484,-1.2234,-1.1553,0.0,0.0,0.0,0.0,0.0,0.0,0.0,0.0,0.0,0.0,0.0,0.0,0.0,0.0,0.0,0.0,0.0,0.0,0.0,0.0,0.0,0.0,0.0,0.0,0.0,0.0,0.0,0.0,0.0,0.0,0.0,0.0,0.0,0.0,0.0,0.0,0.0,0.0,0.0,0.0,0.0,0.0,0.0,0.0,0.0,0.0,0.0,0.0,0.0,0.0,0.0,0.0,0.0,0.0,0.0,0.0,0.0,0.0,0.0,0.0,0.0,0.0,0.0,0.0,0.0,0.0,0.0,0.0,0.0,0.0,0.0,0.0,0.0,0.0,0.0,0.0,0.0,0.0,0.0,0.0,0.0,0.0,0.0,0.0,0.0,0.0,0.0,0.0,0.0,0.0,0.0,0.0,0.0,0.0,0.0,0.0,0.0,0.0,0.0,0.0,0.0,0.0,0.0,-0.6581,-0.797,-0.9486,-1.0996,-1.2028,-1.2616,-1.2687,-1.173,-1.1,-1.0674,0.0,0.0,0.0,0.0,0.0,0.0,0.0,0.0,0.0,0.0,0.0,0.0,0.0,0.0,0.0,0.0,0.0,0.0,0.0,0.0,0.0,0.0,0.0,0.0,0.0,0.0,0.0,0.0,0.0,0.0,0.0,0.0,0.0,0.0,0.0,0.0,0.0,0.0,0.0,0.0,0.0,0.0,0.0,0.0,0.0,0.0,0.0,0.0,0.0,0.0,0.0,0.0,0.0,0.0,0.0,0.0,0.0,0.0,0.0,0.0,0.0,0.0,0.0,0.0,0.0,0.0,0.0,0.0,0.0,0.0,0.0,0.0,0.0,0.0,0.0,0.0,0.0,0.0,0.0,0.0,0.0,0.0,0.0,0.0,0.0,0.0,0.0,0.0,0.0,0.0,0.0,0.0,0.0,0.0,0.0,0.0,0.0,0.0,0.0,0.0,0.0,0.0,-0.6695,-0.803,-0.9376,-1.0726,-1.1682,-1.2144,-1.1964,-1.1149,-1.0566,-1.0347,0.0,0.0,0.0,0.0,0.0,0.0,0.0,0.0,0.0,0.0,0.0,0.0,0.0,0.0,0.0,0.0,0.0,0.0,0.0,0.0,0.0,0.0,0.0,0.0,0.0,0.0,0.0,0.0,0.0,0.0,0.0,0.0,0.0,0.0,0.0,0.0,0.0,0.0,0.0,0.0,0.0,0.0,0.0,0.0,0.0,0.0,0.0,0.0,0.0,0.0,0.0,0.0,0.0,0.0,0.0,0.0,0.0,0.0,0.0,0.0,0.0,0.0,0.0,0.0,0.0,0.0,0.0,0.0,0.0,0.0,0.0,0.0,0.0,0.0,0.0,0.0,0.0,0.0,0.0,0.0,0.0,0.0,0.0,0.0,0.0,0.0,0.0,0.0,0.0,0.0,0.0,0.0,0.0,0.0,0.0,0.0,0.0,0.0,0.0,0.0,0.0,0.0,-0.6467,-0.7563,-0.8706,-0.9856,-1.0765,-1.1282,-1.1309,-1.051,-1.0194,-1.0587,0.0,0.0,0.0,0.0,0.0,0.0,0.0,0.0,0.0,0.0,0.0,0.0,0.0,0.0,0.0,0.0,0.0,0.0,0.0,0.0,0.0,0.0,0.0,0.0,0.0,0.0,0.0,0.0,0.0,0.0,0.0,0.0,0.0,0.0,0.0,0.0,0.0,0.0,0.0,0.0,0.0,0.0,0.0,0.0,0.0,0.0,0.0,0.0,0.0,0.0,0.0,0.0,0.0,0.0,0.0,0.0,0.0,0.0,0.0,0.0,-0.085,0.0,0.0,0.0,0.0,0.0,0.0,0.0,0.0,0.0,0.0,0.0,0.0,0.0,0.0,0.0,0.0,0.0,0.0,0.0,0.0,0.0,0.0,0.0,0.0,0.0,0.0,0.0,0.0,0.0,0.0,0.0,0.0,0.0,0.0,0.0,0.0,0.0,0.0,0.0,0.0,0.0,-0.799,-0.8446,-0.9125,-1.0309,-1.0408,-1.0488,-1.076,-0.9933,-0.9556,-0.9897,0.0,0.0,0.0,0.0,0.0,0.0,0.0,0.0,0.0,0.0,0.0,0.0,0.0,0.0,0.0,0.0,0.0,0.0,0.0,0.0,0.0,0.0,0.0,0.0,0.0,0.0,0.0,0.0,0.0,0.0,0.0,0.0,0.0,0.0,0.0,0.0,0.0,0.0,0.0,0.0,0.0,0.0,0.0,0.0,0.0,0.0,0.0,0.0,0.0,0.0,0.0,0.0,0.0,0.0,0.0,0.0,0.0,0.0,0.0,0.0,0.0,-0.0782,0.0,0.0,0.0,0.0,0.0,0.0,0.0,0.0,0.0,0.0,0.0,0.0,0.0,0.0,0.0,0.0,0.0,0.0,0.0,0.0,0.0,0.0,0.0,0.0,0.0,0.0,0.0,0.0,0.0,0.0,0.0,0.0,0.0,0.0,0.0,0.0,0.0,0.0,0.0,0.0,-0.8212,-0.848,-0.8931,-1.0046,-1.0,-0.9973,-1.0157,-0.9586,-0.9217,-0.9259,-0.9167,0.0,0.0,0.0,0.0,0.0,0.0,0.0,0.0,0.0,0.0,0.0,0.0,0.0,0.0,0.0,0.0,0.0,0.0,0.0,0.0,0.0,0.0,0.0,0.0,0.0,0.0,0.0,0.0,0.0,0.0,0.0,0.0,0.0,0.0,0.0,0.0,0.0,0.0,0.0,0.0,0.0,0.0,0.0,0.0,0.0,0.0,0.0,0.0,0.0,0.0,0.0,0.0,0.0,0.0,0.0,0.0,0.0,0.0,0.0,0.0,-0.0356,-0.0924,0.0,0.0,0.0,0.0,0.0,0.0,0.0,0.0,0.0,0.0,0.0,0.0,0.0,0.0,0.0,0.0,0.0,0.0,0.0,0.0,0.0,0.0,0.0,0.0,0.0,-0.4491,-0.4491,0.0,0.0,0.0,0.0,0.0,0.0,0.0,0.0,0.0,0.0,0.0,0.0,-0.8007,-0.8045,-0.8325,-0.942,-0.944,-0.9431,-0.9599,-0.9304,-0.9058,-0.8891,-0.8791,-0.8896,0.0,0.0,0.0,0.0,0.0,0.0,0.0,0.0,0.0,0.0,0.0,0.0,0.0,0.0,0.0,0.0,0.0,0.0,0.0,0.0,0.0,0.0,0.0,0.0,0.0,0.0,0.0,0.0,0.0,0.0,0.0,0.0,1.1332,0.9379,0.0,0.0,0.0,0.0,0.0,0.0,0.0,0.0,0.0,0.0,0.0,0.0,0.0,0.0,0.1264,0.0429,0.0,0.0,0.0,0.0,0.0,0.0,0.0,0.0,0.0,0.0,-0.0185,-0.084,0.0,0.0,0.0,0.0,0.0,0.0,0.0,0.0,0.0,0.0,0.0,0.0,0.0,0.0,0.0,0.0,0.0,0.0,0.0,0.0,0.0,0.0,-0.4655,-0.4522,-0.4491,-0.4491,0.0,-0.4505,-0.4733,-0.5382,0.0,0.0,0.0,0.0,0.0,0.0,0.0,0.0,-0.812,-0.745,-0.735,-0.8757,-0.8342,-0.8327,-0.9189,-0.9004,-0.8931,-0.9138,-0.8711,-0.8575,-0.8868,-0.8281,0.0,0.0,0.0,0.0,0.0,0.0,0.0,0.0,0.0,0.0,0.0,0.0,0.0,0.0,0.0,0.0,0.0,0.0,0.0,0.0,0.0,0.0,0.0,0.0,0.0,0.0,0.0,0.0,0.0,1.1185,1.0882,0.966,0.9671,0.9197,0.0,0.0,0.0,0.0,0.0,0.0,0.0,0.0,0.0,0.4514,0.3806,0.3219,0.283,0.2378,0.2134,0.2113,0.1351,0.1012,0.1002,0.0306,0.0,0.0,0.0,0.0,-0.004,-0.0361,-0.0479,-0.0501,0.0,0.0,0.0,0.0,0.0,-0.0618,-0.0694,0.0,0.0,0.0,0.0,0.0,0.0,0.0,0.0,0.0,0.0,0.0,0.0,0.0,0.0,-0.4505,-0.4491,-0.4491,-0.4491,-0.4491,-0.4704,0.0,-0.554,-0.5768,-0.6362,0.0,0.0,0.0,0.0,0.0,-0.784,-0.7897,-0.8076,-0.8725,-0.8507,-0.8505,-0.8931,-0.8878,-0.8864,-0.8958,-0.8758,-0.8671,-0.8804,-0.8532,-0.847,0.0,0.0,0.0,0.0,0.0,0.0,0.0,0.0,0.0,0.0,0.0,0.0,0.0,0.0,0.0,0.0,0.0,0.0,0.0,0.0,0.0,0.0,0.0,0.0,0.0,0.0,0.0,0.0,1.131,1.1034,1.0143,1.0386,0.9988,0.0,0.0,0.0,0.0,0.0,0.0,0.6081,0.5671,0.5292,0.5069,0.4626,0.4265,0.3993,0.3881,0.3645,0.3331,0.2287,0.1657,0.1299,0.0404,0.0,0.0,0.0,0.0,0.0,0.0,0.0,0.0,0.0,0.0,0.0,0.0,-0.0352,-0.0824,-0.0919,-0.1499,-0.2286,-0.3086,0.0,-0.4013,-0.4428,0.0,0.0,0.0,0.0,-0.4236,-0.446,0.0,-0.4236,-0.446,-0.4491,-0.4491,-0.4491,-0.4491,-0.4653,0.0,-0.5318,-0.5409,-0.5477,0.0,0.0,0.0,0.0,-0.6248,-0.7147,-0.7529,-0.7827,-0.8162,-0.8218,-0.8315,-0.8507,-0.8699,-0.8804,-0.8804,-0.8804,-0.8804,-0.8804,-0.8664,-0.8517,-0.8402,0.0,0.0,0.0,0.0,0.0,0.0,0.0,0.0,0.0,0.0,0.0,0.0,0.0,0.0,0.0,0.0,0.0,0.0,0.0,0.0,0.0,0.0,0.0,0.0,0.0,0.0,0.0,0.0,0.0,1.1126,1.288,0.0,0.0,0.0,0.0,0.8987,0.7545,0.6712,0.6822,0.68,0.6412,0.5582,0.5552,0.5009,0.4022,0.3853,0.3221,0.2074,0.1897,0.121,0.009,0.0045,0.0,0.0,0.0,0.0,0.0,0.0,0.0,0.0,0.0,0.0,0.0,0.0,-0.0033,-0.0067,-0.0065,-0.0539,-0.1338,-0.2393,-0.3697,-0.4827,-0.4728,-0.4607,0.0,0.0,-0.3959,-0.3539,-0.4294,-0.3929,-0.3566,-0.4322,-0.4491,-0.4491,-0.4491,-0.4491,-0.4519,0.0,-0.4412,-0.4547,-0.5354,0.0,-0.4688,-0.5974,-0.5268,-0.4961,-0.5962,-0.5282,-0.519,-0.6396,-0.6648,-0.6993,-0.7696,-0.8401,-0.8804,-0.8804,-0.8804,-0.8804,-0.8804,-0.8245,-0.8103,-0.8395,-0.7832,0.0,0.0,0.0,0.0,0.0,0.0,0.0,0.0,0.0,0.0,0.0,0.0,0.0,0.0,0.0,0.0,0.0,0.0,0.0,0.0,0.0,0.0,0.0,0.0,0.0,0.0,0.0,0.0,1.2732,1.3727,0.0,0.0,1.1272,1.0692,0.9229,0.8635,0.8074,0.7398,0.7448,0.7356,0.7029,0.7119,0.6946,0.6597,0.6348,0.601,0.5587,0.3812,0.2726,0.228,0.0708,0.0,0.0,0.0,0.0,0.0,0.0,0.0,0.0,0.0,0.0,0.0,0.0,0.0,0.0,0.0,-0.016,-0.0601,-0.1951,-0.3051,-0.3863,-0.3874,-0.3828,-0.368,-0.3178,-0.2815,-0.2649,-0.2954,-0.2815,-0.2788,-0.3539,-0.3732,-0.3825,-0.4234,-0.4297,-0.4267,-0.4195,-0.429,-0.4422,-0.4506,-0.4284,-0.4224,-0.4721,-0.4774,-0.4911,-0.5365,-0.5533,-0.5769,-0.622,-0.6307,-0.646,-0.6712,-0.7324,-0.7704,-0.7704,-0.8039,-0.8218,-0.8218,-0.8019,-0.7882,-0.7819,-0.7621,-0.7645,0.0,0.0,0.0,0.0,0.0,0.0,0.0,0.0,0.0,0.0,0.0,0.0,0.0,0.0,0.0,0.0,0.0,0.0,0.0,0.0,0.0,0.0,0.0,0.0,0.0,0.0,1.386,1.3766,1.4569,1.4495,1.293,1.282,1.2021,1.0051,0.9655,0.8988,0.7787,0.7838,0.7889,0.7889,0.7938,0.7965,0.7914,0.7723,0.7386,0.6907,0.4673,0.338,0.2915,0.0918,0.0,0.0,0.0,0.0,0.0,0.0,0.0,0.0,0.0,0.0,0.0,0.0,0.0,0.0,0.0,-0.0157,-0.0527,-0.1498,-0.2327,-0.2926,-0.2982,-0.2982,-0.2871,-0.2343,-0.2009,-0.1898,-0.2148,-0.2009,-0.2003,-0.2747,-0.2932,-0.3096,-0.3701,-0.3674,-0.3559,-0.3624,-0.4013,-0.425,-0.4028,-0.3994,-0.4011,-0.4062,-0.4373,-0.4618,-0.4714,-0.5164,-0.543,-0.5385,-0.5654,-0.5819,-0.5819,-0.6702,-0.7188,-0.7104,-0.7487,-0.7756,-0.7882,-0.7658,-0.756,-0.7629,-0.7544,-0.7591,-0.7776,0.0,0.0,0.0,0.0,0.0,0.0,0.0,0.0,0.0,0.0,0.0,0.0,0.0,0.0,0.0,0.0,0.0,0.0,0.0,0.0,0.0,0.0,0.0,1.3267,1.4001,1.4449,1.4202,1.5418,1.5832,1.4683,1.444,1.3605,1.1737,1.0616,0.946,0.8137,0.8035,0.7982,0.7982,0.7978,0.7907,0.7804,0.7662,0.6954,0.5621,0.4283,0.3047,0.1863,0.0608,0.0042,0.0041,0.0,0.0,0.0,0.0,0.0,0.0,0.0,0.0,0.0,0.0,0.0,0.0,0.0,-0.047,-0.1079,-0.1101,-0.1591,-0.2174,-0.2174,-0.2174,-0.2174,-0.2148,-0.1619,-0.1228,-0.195,-0.1589,-0.1244,-0.2,-0.2167,-0.2331,-0.2933,-0.2611,-0.2333,-0.2789,-0.3441,-0.3931,-0.3956,-0.3984,-0.4038,-0.4153,-0.4075,0.0,-0.3981,-0.3981,-0.3951,-0.3809,-0.4566,-0.5058,-0.5058,-0.6507,-0.7294,-0.7026,-0.7145,-0.7413,-0.7795,-0.7132,-0.7119,-0.7848,-0.7615,-0.7513,-0.7504,0.0,0.0,0.0,0.0,0.0,0.0,0.0,0.0,0.0,0.0,0.0,0.0,0.0,0.0,0.0,0.0,0.0,0.0,0.0,0.0,0.0,0.0,1.4526,1.4526,1.487,1.5364,1.5919,1.6339,1.6373,1.5845,1.5783,1.5069,1.336,1.2098,1.0828,0.9509,0.842,0.7875,0.7875,0.7773,0.7699,0.7658,0.7509,0.7273,0.691,0.5547,0.4636,0.4148,0.2173,0.1251,0.1136,0.032,0.0,0.0,0.0,0.0,0.0,0.0,0.0,0.0,0.0,0.0,0.0,0.0,-0.0145,-0.0397,-0.0925,-0.1229,-0.1396,-0.1396,-0.1396,-0.1284,-0.0755,-0.0448,-0.0362,-0.0543,-0.0459,-0.0481,-0.1237,-0.1405,-0.1568,-0.2166,-0.2171,-0.2075,-0.2104,-0.2267,-0.2537,-0.2975,-0.3497,-0.3832,-0.3775,0.0,0.0,-0.37,-0.37,-0.3724,-0.3785,-0.4015,-0.4159,-0.4159,-0.4959,-0.5338,0.0,-0.5439,-0.5758,-0.5864,-0.6053,-0.65,-0.7239,-0.7417,-0.7598,0.0,0.0,0.0,0.0,0.0,0.0,0.0,0.0,0.0,0.0,0.0,0.0,0.0,0.0,0.0,0.0,0.0,0.0,0.0,0.0,0.0,0.0,1.4723,1.5458,1.5872,1.5919,1.6179,1.682,1.6894,1.678,1.648,1.6453,1.5729,1.4046,1.2668,1.1365,1.0047,0.8616,0.7811,0.7811,0.7675,0.7567,0.7506,0.746,0.7339,0.7272,0.5918,0.5226,0.5027,0.3168,0.2285,0.0,0.1143,0.0667,0.0626,0.0189,0.0223,0.0,0.0,0.0,0.0,0.0,0.0,0.0,0.0,0.0,-0.0084,-0.0504,-0.0643,-0.0643,-0.0643,-0.0643,-0.056,-0.0112,0.0,0.0,0.0,0.0,-0.0103,-0.0547,-0.0641,-0.0805,-0.1403,-0.1345,-0.122,-0.1393,0.0,0.0,-0.1895,-0.2728,-0.3344,-0.3303,-0.3481,-0.3535,0.0,-0.3251,-0.3245,-0.3341,-0.335,-0.3445,-0.3704,-0.4376,0.0,0.0,0.0,-0.4923,-0.4923,-0.5756,0.0,0.0,0.0,-0.7517,0.0,0.0,0.0,0.0,-0.8444,-0.8644,0.0,0.0,0.0,0.0,0.0,0.0,0.0,0.0,0.0,0.0,0.0,0.0,0.0,0.0,0.0,0.0,1.5698,1.6313,1.7186,1.7021,1.6941,1.7219,1.7253,1.7132,1.678,1.6727,1.6015,1.4298,1.278,1.1414,1.0293,0.0,0.0,0.0,0.0,0.7482,0.7346,0.7346,0.7268,0.7071,0.5889,0.5291,0.5204,0.3918,0.3315,0.324,0.219,0.176,0.1672,0.0706,0.0761,0.1365,0.0597,0.024,0.0132,0.0122,0.0059,0.0,0.0,0.0,0.0,0.0,0.0,0.0,0.0,0.0,0.0,0.0,0.0,0.0,0.0,0.0,0.0,0.0,0.0,-0.0141,-0.0677,-0.0381,-0.0157,-0.0694,-0.0806,-0.0806,-0.0806,-0.1808,-0.264,-0.2763,-0.3132,0.0,-0.2838,-0.2667,-0.261,-0.2625,0.0,0.0,-0.3468,-0.4283,-0.4575,-0.4127,-0.4388,-0.4591,-0.4635,-0.5735,-0.6378,-0.6451,-0.7036,-0.7214,-0.6968,-0.7313,-0.7665,-0.7972,-0.8517,-0.8778,0.0,0.0,0.0,0.0,0.0,0.0,0.0,0.0,0.0,0.0,0.0,0.0,0.0,0.0,0.0,1.7187,1.7232,1.7388,1.7816,1.7769,1.7716,1.7522,1.7502,1.7434,1.7146,1.6847,1.6461,1.5859,1.337,1.1799,1.1556,0.9068,0.0,0.7641,0.7373,0.7169,0.7139,0.7139,0.7068,0.6927,0.0,0.0,0.6186,0.5068,0.4475,0.4334,0.3279,0.2744,0.2616,0.2428,0.2372,0.2409,0.2116,0.1608,0.1029,0.0926,0.0521,0.0,0.0,0.0,0.0,0.0,0.0,0.0,0.0,0.0,0.0,0.0,0.0,0.0,0.0,0.0,0.0,0.0,0.0,-0.0023,-0.0157,-0.009,-0.0045,-0.0157,-0.018,-0.018,-0.018,-0.1185,-0.199,-0.2007,-0.2087,-0.2125,-0.2029,-0.1995,-0.2011,-0.2127,-0.2579,-0.2905,-0.3024,-0.3631,-0.3867,-0.3493,-0.3587,-0.3852,-0.4285,-0.463,-0.5057,-0.5548,-0.6141,-0.6528,-0.6686,-0.7234,-0.7772,-0.8315,-0.8429,-0.8584,0.0,0.0,0.0,0.0,0.0,0.0,0.0,0.0,0.0,0.0,0.0,2.0596,0.0,0.0,1.972,1.8813,1.884,1.8748,1.8077,1.7995,1.7935,1.7836,1.7675,1.7468,1.7233,1.6881,1.6587,1.6342,1.3593,1.1896,1.1896,0.9208,0.7675,0.76,0.7377,0.7217,0.7095,0.7095,0.7061,0.6991,0.6885,0.6732,0.658,0.5913,0.5574,0.5431,0.4373,0.3812,0.368,0.3507,0.3405,0.3365,0.3612,0.2958,0.1836,0.1284,0.088,0.0504,0.014,0.0,0.0,0.0,0.0,0.0,0.0,0.0,0.0084,0.0448,0.0277,0.0081,0.0461,0.0274,0.0,0.0,0.0,0.0,0.0,0.0,0.0,0.0,0.0,0.0,0.0,-0.0493,-0.1006,-0.1297,-0.1607,-0.1697,-0.1385,-0.134,-0.1374,-0.1448,-0.198,-0.2441,-0.2684,-0.315,-0.3456,-0.3441,-0.3392,-0.351,-0.3887,-0.4219,-0.4543,-0.4848,-0.5437,-0.5826,-0.5941,-0.6698,-0.7209,-0.7494,-0.7681,-0.8125,0.0,0.0,0.0,0.0,0.0,0.0,0.0,0.0,2.3243,2.3405,2.336,2.3022,2.229,2.2289,2.1944,2.0395,2.0355,1.9969,1.8502,1.8149,1.8075,1.8075,1.7809,1.7548,1.7306,1.6914,1.6607,1.6373,1.3622,1.1896,1.1896,0.9288,0.7756,0.7645,0.7465,0.7312,0.7142,0.7109,0.7082,0.7051,0.6858,0.6715,0.6647,0.645,0.6327,0.6257,0.5301,0.4822,0.4696,0.441,0.4269,0.4328,0.4749,0.4116,0.2836,0.1888,0.1341,0.1006,0.042,0.0224,0.0196,0.0056,0.0196,0.0392,0.0252,0.0308,0.056,0.1146,0.0877,0.0559,0.1122,0.0839,0.0358,0.0204,0.018,0.0135,0.0022,0.0,0.0,0.0,0.0,0.0,0.0,0.0,-0.0157,-0.065,-0.114,-0.1274,-0.0784,-0.0716,-0.0716,-0.0716,-0.1274,-0.1828,-0.2319,-0.2766,-0.3146,-0.3404,-0.3374,-0.3428,-0.3597,-0.4005,-0.4242,-0.4242,-0.4826,-0.513,-0.513,-0.5958,-0.6372,-0.6424,-0.6701,-0.7425,2.4757,2.4687,2.5134,2.6084,2.6242,2.6847,0.0,0.0,2.807,2.7916,2.745,2.6713,2.5429,2.4557,2.3653,2.2392,2.1589,2.0662,1.9401,1.8771,1.8444,1.8444,1.7936,1.7569,1.7535,1.7034,1.6693,1.666,1.3713,1.1896,1.1896,0.9288,0.7804,0.7787,0.7516,0.7409,0.7346,0.721,0.7034,0.691,0.6876,0.6759,0.6538,0.6504,0.6419,0.6282,0.5858,0.5591,0.5449,0.5319,0.5243,0.5229,0.5002,0.4796,0.4515,0.3457,0.2232,0.109,0.1006,0.0978,0.0866,0.0224,0.0895,0.184,0.1174,0.1424,0.1981,0.2063,0.2031,0.194,0.192,0.183,0.1621,0.0958,0.0806,0.065,0.0112,0.0,0.0,0.0,0.0,0.0,0.0,0.0,-0.0022,-0.009,-0.0157,-0.018,-0.0112,-0.009,-0.009,-0.009,-0.065,-0.125,-0.1818,-0.24,-0.2756,-0.2807,-0.329,-0.3583,-0.3604,-0.3667,-0.3689,-0.3689,-0.4224,-0.45,-0.45,-0.5133,-0.5577,-0.5792,-0.5841,-0.6442,2.4625,2.4284,0.0,0.0,2.646,2.7879,2.963,3.0196,3.0408,3.0592,2.9768,2.8735,2.7798,2.6878,2.5828,0.0,2.336,2.2125,2.0402,1.9181,1.8297,1.7829,1.7541,1.738,1.738,1.6954,1.664,1.6466,1.4333,1.3054,1.3054,1.0546,0.901,0.8804,0.798,0.7417,0.7238,0.7129,0.7065,0.7007,0.6923,0.6814,0.6603,0.6552,0.6346,0.6112,0.5898,0.5722,0.5579,0.5457,0.5395,0.5365,0.5033,0.4887,0.476,0.3744,0.2954,0.2371,0.1898,0.173,0.1703,0.1368,0.1703,0.214,0.1747,0.1896,0.2277,0.2615,0.2473,0.2289,0.265,0.2435,0.2011,0.1629,0.1275,0.0923,0.0586,0.0247,0.0112,0.0448,0.0247,0.0112,0.0471,0.0224,0.0,0.0,0.0,0.0,0.0,0.0,-0.0135,-0.0493,-0.0679,-0.1065,-0.1736,-0.1964,-0.2238,-0.2669,-0.2943,-0.3236,-0.3578,-0.3604,-0.3604,-0.3604,-0.3818,-0.3943,-0.3943,-0.4504,-0.4824,-0.4951,-0.4951,-0.5245,2.3279,0.0,0.0,2.3709,2.5632,2.7683,2.8978,3.0585,3.1853,3.201,3.1205,3.0175,2.9148,2.8248,2.7218,2.5663,2.4516,2.3141,2.1211,1.9555,1.8217,1.7482,1.73,1.7139,1.6971,1.6714,1.65,1.6286,1.4812,1.3926,1.3926,1.1404,0.9894,0.9609,0.8312,0.7472,0.7207,0.7119,0.7095,0.7095,0.6953,0.6848,0.6695,0.6542,0.6251,0.5925,0.5847,0.5698,0.5552,0.544,0.5395,0.5365,0.5033,0.4887,0.479,0.4002,0.3566,0.3317,0.2704,0.2508,0.2482,0.2258,0.248,0.2775,0.2466,0.2573,0.2911,0.3358,0.3175,0.2932,0.342,0.3127,0.262,0.2313,0.1884,0.1461,0.1215,0.0806,0.0627,0.1073,0.0806,0.0627,0.1073,0.0784,0.0493,0.0493,0.0493,0.0426,0.0269,0.0247,0.0022,-0.0595,-0.0562,-0.0713,-0.1248,-0.1369,-0.1645,-0.218,-0.2361,-0.2655,-0.3084,-0.3262,-0.335,-0.335,-0.3512,-0.3604,-0.3604,-0.3987,-0.4176,-0.4176,-0.4176,-0.4272,0.0,0.0,2.0615,2.1464,2.3561,2.5903,2.7955,3.073,3.2683,3.2023,3.1769,3.108,2.9155,2.8197,2.7218,2.5663,2.4516,2.3255,2.1783,1.9822,1.837,1.8002,1.7508,1.6978,0.0,1.6342,1.6335,1.6321,1.4812,1.3926,1.3926,1.1404,0.9958,0.9806,0.8371,0.7522,0.7412,0.7214,0.7095,0.7095,0.6953,0.6848,0.6692,0.6439,0.6139,0.581,0.5803,0.5637,0.5402,0.5395,0.5395,0.5365,0.5033,0.4887,0.485,0.4575,0.4015,0.34,0.3287,0.3259,0.3148,0.2426,0.3204,0.4291,0.3506,0.3815,0.4432,0.4457,0.4432,0.4402,0.4204,0.4061,0.3763,0.304,0.2758,0.2499,0.1895,0.1762,0.1741,0.1762,0.1762,0.1741,0.1762,0.1762,0.1741,0.1741,0.1741,0.1541,0.0939,0.0873,0.0639,0.0042,-0.0022,-0.0022,-0.0045,-0.0582,-0.0938,-0.0962,-0.1496,-0.183,-0.1852,-0.2406,-0.2719,-0.2719,-0.3306,-0.3604,-0.3604,-0.3622,-0.3622,-0.3622,-0.3622,-0.3701,0.0,0.0,1.81,2.0009,2.1325,2.2973,2.6307,2.8502,3.0214,3.1712,3.0463,2.9001,2.8814,2.7448,2.6324,2.612,2.4588,2.3165,2.254,2.0967,1.9144,1.7358,1.7764,0.0,0.0,0.0,0.0,1.5992,1.5491,1.5146,1.5146,1.2613,1.1053,1.0925,0.8667,0.7373,0.7221,0.7122,0.7095,0.7092,0.6895,0.6698,0.6542,0.6388,0.6129,0.58,0.58,0.5633,0.5395,0.5395,0.5395,0.5365,0.5033,0.4887,0.488,0.4604,0.4349,0.4125,0.4098,0.4098,0.4042,0.3818,0.407,0.4415,0.4022,0.4165,0.447,0.4345,0.4389,0.4481,0.4429,0.4378,0.4224,0.3846,0.3466,0.3041,0.263,0.2208,0.2029,0.233,0.2073,0.1919,0.2317,0.2073,0.194,0.2339,0.2051,0.1719,0.1518,0.1496,0.1267,0.0659,0.06,0.0426,0.0045,-0.018,-0.0471,-0.0873,-0.1096,-0.1385,-0.1784,-0.1984,-0.2095,-0.2095,-0.2696,-0.3012,-0.3012,-0.3398,-0.3604,-0.3604,-0.3604,-0.3628,1.833,1.6932,1.5824,1.7671,1.8716,2.0037,2.3036,2.5567,2.782,2.9659,2.8822,2.7766,2.7667,2.6508,2.5543,2.5458,2.3989,2.2909,2.309,2.1671,2.006,1.8679,1.9128,0.0,0.0,0.0,0.0,1.5852,1.5784,1.5785,1.5678,1.3161,1.161,1.1343,0.8774,0.7272,0.7021,0.7021,0.6967,0.6898,0.6709,0.6539,0.6429,0.6282,0.604,0.5796,0.5749,0.562,0.5395,0.5395,0.5395,0.5365,0.5033,0.4887,0.488,0.4604,0.4491,0.4491,0.4491,0.4491,0.4491,0.4491,0.4491,0.447,0.4355,0.4389,0.4525,0.464,0.4761,0.4924,0.5171,0.5206,0.5076,0.4684,0.4296,0.3865,0.3399,0.2945,0.2729,0.3047,0.2747,0.2566,0.2946,0.2702,0.2566,0.2968,0.2699,0.2375,0.2142,0.2121,0.1884,0.1291,0.102,0.0739,0.0359,0.0135,-0.0157,-0.056,-0.0583,-0.0761,-0.114,-0.1362,-0.1474,-0.1474,-0.2073,-0.2386,-0.2386,-0.2768,-0.2948,-0.2948,-0.2948,-0.3081,1.7041,1.5364,1.3961,1.4802,1.5919,1.7133,1.8489,2.2203,2.5441,2.5988,2.6922,2.7226,0.0,0.0,2.4944,2.4038,2.2954,2.2547,2.3412,2.2085,2.1122,0.0,0.0,0.0,0.0,0.0,0.0,1.594,0.0,1.5705,1.5411,1.3111,1.158,1.1088,0.8742,0.7303,0.6889,0.6879,0.6766,0.6511,0.6504,0.6426,0.6282,0.6088,0.5935,0.5783,0.5647,0.5539,0.5395,0.5395,0.5395,0.5365,0.5033,0.4887,0.488,0.4604,0.4491,0.4491,0.4491,0.4491,0.4491,0.4491,0.4491,0.4491,0.4491,0.4515,0.4677,0.5324,0.5515,0.5706,0.6421,0.6512,0.6242,0.5527,0.528,0.4973,0.4228,0.3966,0.3859,0.3829,0.3709,0.3614,0.3614,0.3607,0.3604,0.3604,0.3604,0.3396,0.2815,0.2738,0.2495,0.1916,0.1327,0.0982,0.0939,0.0404,0.0045,0.0045,0.0022,0.0,0.0,-0.056,-0.0851,-0.0851,-0.1451,-0.1763,-0.1763,-0.1784,-0.1808,-0.1808,-0.1808,-0.2097,1.7503,1.6115,1.4598,1.4935,1.4413,1.4498,1.6941,1.8762,2.0589,2.2862,2.395,2.4422,0.0,0.0,0.0,2.4848,2.3918,0.0,2.4002,2.3622,0.0,2.1487,0.0,2.1207,1.8583,1.804,0.0,0.0,1.5784,1.5705,1.5411,1.374,1.2286,1.1133,0.9327,0.7896,0.6929,0.6817,0.6661,0.6511,0.6405,0.6276,0.6084,0.5928,0.5779,0.564,0.5606,0.5539,0.5395,0.5395,0.5395,0.5365,0.5033,0.4887,0.488,0.4604,0.4491,0.4491,0.4491,0.4491,0.4491,0.4491,0.4491,0.4491,0.4491,0.4842,0.5273,0.546,0.59,0.6367,0.6561,0.6575,0.6503,0.6316,0.625,0.5979,0.516,0.4941,0.4721,0.408,0.3839,0.3761,0.3761,0.3672,0.3604,0.3604,0.3604,0.3546,0.3396,0.3239,0.298,0.2517,0.2242,0.1943,0.1603,0.1006,0.0672,0.0672,0.0247,0.0,0.0,-0.0157,-0.0224,-0.0224,-0.0828,-0.114,-0.114,-0.1585,-0.1808,-0.1808,-0.1808,-0.1873,1.7747,1.6561,1.5112,1.4451,1.4016,1.3889,1.448,1.6512,1.8592,1.9847,2.1499,0.0,0.0,0.0,0.0,0.0,0.0,0.0,2.3999,2.4184,2.3883,0.0,2.3386,0.0,2.0193,1.9728,1.8761,0.0,1.6109,1.5645,1.5231,1.3938,1.2496,1.094,0.9443,0.8068,0.6729,0.6512,0.6556,0.6845,0.6315,0.6236,0.6467,0.5954,0.5664,0.5586,0.0,0.5474,0.5395,0.5395,0.5354,0.5237,0.5009,0.4877,0.4789,0.458,0.4677,0.4948,0.4948,0.514,0.5308,0.4708,0.4491,0.4491,0.4491,0.4976,0.5569,0.59,0.6524,0.7155,0.7482,0.7563,0.7482,0.7155,0.7074,0.6849,0.6057,0.5571,0.5045,0.4171,0.3897,0.3792,0.3792,0.3696,0.3604,0.3604,0.3604,0.3604,0.3604,0.3503,0.3351,0.3117,0.2729,0.2392,0.2124,0.1304,0.0805,0.0805,0.0305,0.0,0.0,0.0,0.0,0.0,-0.0337,-0.0515,-0.0515,-0.0851,-0.1006,-0.1006,-0.1006,-0.1163,1.7879,1.701,1.5853,1.4072,1.4347,1.4476,1.2294,1.502,1.783,1.7245,0.0,2.1415,2.0685,0.0,2.2315,2.159,0.0,2.2832,2.374,2.4189,2.456,2.4941,2.4979,2.417,2.2189,2.188,2.0698,1.8049,1.6657,1.563,1.5035,1.3961,1.2499,1.0626,0.9301,0.7904,0.6457,0.6159,0.6418,0.7265,0.6374,0.6335,0.7037,0.6141,0.5693,0.5552,0.0,0.0,0.5392,0.5375,0.525,0.5083,0.4921,0.4809,0.467,0.4545,0.4921,0.5515,0.5515,0.5982,0.6399,0.5171,0.4791,0.4791,0.4791,0.5246,0.5923,0.6556,0.7262,0.7996,0.8646,0.8804,0.8646,0.7996,0.7857,0.7643,0.6912,0.5983,0.5112,0.4354,0.3986,0.3822,0.3822,0.3709,0.3604,0.3604,0.3604,0.3597,0.3573,0.3573,0.3573,0.3573,0.2986,0.2573,0.2573,0.1564,0.0943,0.0943,0.0507,0.0237,0.0247,0.0238,0.0194,0.0112,0.0202,0.0202,0.0112,0.0112,0.0112,0.0112,0.0045,-0.0269,1.8311,1.8198,1.7656,1.5859,1.5287,1.4847,1.3622,1.418,0.0,0.0,0.0,1.9847,2.0131,2.0994,0.0,2.2791,0.0,0.0,0.0,0.0,2.4443,0.0,0.0,0.0,0.0,0.0,0.0,0.0,0.0,0.0,1.5053,1.4546,1.3034,1.0336,0.8886,0.7458,0.6108,0.602,0.6368,0.7124,0.6833,0.6781,0.6911,0.6626,0.6121,0.5433,0.0,0.0,0.5385,0.5223,0.5123,0.5073,0.4836,0.4714,0.467,0.4545,0.4921,0.5515,0.5515,0.5982,0.6561,0.6317,0.6236,0.6236,0.6236,0.6745,0.7337,0.7477,0.8049,0.8646,0.8778,0.8804,0.8778,0.8646,0.8619,0.8401,0.767,0.644,0.5433,0.5265,0.4543,0.3954,0.3954,0.3758,0.3604,0.3604,0.3604,0.3556,0.3451,0.3392,0.3371,0.3434,0.3172,0.3001,0.3001,0.2498,0.2178,0.2178,0.1755,0.1485,0.1496,0.1486,0.1242,0.0761,0.1228,0.1251,0.0739,0.0739,0.0739,0.0739,0.0224,-0.0045,1.8798,1.8718,1.8262,1.635,1.6068,1.57,1.3678,0.0,0.0,0.0,1.6971,1.8442,1.9168,0.0,0.0,0.0,0.0,0.0,0.0,0.0,0.0,0.0,0.0,0.0,0.0,0.0,0.0,0.0,0.0,0.0,1.5617,1.4018,1.2159,1.0001,0.8687,0.7367,0.603,0.5912,0.6474,0.7663,0.7085,0.7023,0.7456,0.6927,0.6235,0.5395,0.0,0.0,0.5415,0.5606,0.5642,0.5544,0.5357,0.5205,0.5117,0.5033,0.5464,0.6118,0.6524,0.7122,0.775,0.775,0.7235,0.6588,0.6588,0.7128,0.7696,0.7696,0.8242,0.8804,0.8804,0.8804,0.8804,0.8804,0.8804,0.8593,0.7857,0.7149,0.6411,0.5651,0.4988,0.4458,0.4069,0.3775,0.3685,0.3965,0.4005,0.4109,0.4363,0.4095,0.3747,0.3378,0.3192,0.3101,0.3101,0.2734,0.2447,0.2347,0.2,0.181,0.1806,0.179,0.1658,0.1385,0.1652,0.1652,0.1362,0.1362,0.1362,0.1362,0.1073,0.094,1.9113,1.8925,1.8509,1.6851,1.6815,1.6509,1.3884,1.4289,0.0,0.0,1.6039,1.7125,1.8251,0.0,0.0,0.0,0.0,0.0,0.0,0.0,0.0,0.0,0.0,0.0,0.0,0.0,0.0,0.0,0.0,0.0,0.0,1.3409,1.1537,1.0071,0.8871,0.762,0.6275,0.5969,0.6581,0.8158,0.7353,0.7437,0.8253,0.7372,0.6494,0.5653,0.0,0.0,0.0,0.5951,0.6146,0.6181,0.6043,0.5873,0.5733,0.5733,0.6199,0.6912,0.7503,0.8182,0.8804,0.8804,0.8017,0.7074,0.7074,0.7477,0.7943,0.7943,0.8348,0.8831,0.8982,0.9008,0.9008,0.9008,0.891,0.8626,0.8002,0.772,0.7264,0.6102,0.5575,0.5133,0.4603,0.4263,0.4195,0.4626,0.4635,0.4743,0.5194,0.4843,0.432,0.3748,0.3359,0.3135,0.3104,0.2835,0.2598,0.2443,0.2277,0.2197,0.2184,0.2182,0.2132,0.1984,0.2119,0.2119,0.1984,0.1984,0.1984,0.1984,0.1851,0.1808,1.8844,1.8925,1.8788,1.8357,1.7736,1.6767,1.5153,0.0,0.0,1.5069,1.5294,1.5921,1.7705,1.8135,1.8437,0.0,0.0,0.0,0.0,0.0,0.0,0.0,0.0,0.0,0.0,0.0,0.0,0.0,0.0,0.0,0.0,1.3333,1.2457,1.1084,0.9854,0.8552,0.7206,0.6269,0.6553,0.8025,0.7939,0.835,0.9139,0.8291,0.7405,0.6515,0.0,0.0,0.0,0.5905,0.6213,0.68,0.6588,0.6522,0.6507,0.6507,0.6961,0.761,0.767,0.8182,0.8804,0.8804,0.8699,0.8593,0.8593,0.8646,0.8699,0.8699,0.8752,0.8936,0.9562,0.9718,0.9718,0.9718,0.9237,0.8705,0.8394,0.7815,0.73,0.7167,0.6472,0.5967,0.6136,0.5803,0.5533,0.5578,0.5368,0.5189,0.5127,0.5081,0.501,0.4949,0.3943,0.3232,0.3114,0.3179,0.322,0.3204,0.3344,0.3432,0.3445,0.3432,0.318,0.263,0.3148,0.317,0.2605,0.2605,0.2605,0.2605,0.2051,0.1808,1.8591,1.8531,1.8551,1.8063,1.7275,1.6335,1.499,0.0,1.3863,1.4981,1.5199,1.5763,1.7647,1.8008,1.8115,0.0,0.0,0.0,0.0,0.0,0.0,0.0,0.0,0.0,0.0,0.0,0.0,0.0,0.0,0.0,0.0,1.3336,1.2357,1.0991,0.9809,0.8578,0.7318,0.6756,0.6984,0.7994,0.8517,0.8979,0.9306,0.8941,0.8212,0.7148,0.0,0.0,0.0,0.6972,0.7238,0.747,0.7323,0.7262,0.7262,0.7262,0.7456,0.7777,0.8209,0.8566,0.8804,0.8804,0.8804,0.8804,0.8804,0.8804,0.8804,0.8804,0.908,0.9465,0.9736,1.009,1.0389,1.0389,1.0192,0.9854,0.9358,0.9015,0.8546,0.7701,0.72,0.6806,0.6467,0.6188,0.6118,0.6478,0.627,0.6184,0.6514,0.6093,0.5764,0.5764,0.4605,0.3812,0.3762,0.3587,0.3428,0.3313,0.3493,0.3604,0.3604,0.3899,0.381,0.3262,0.4158,0.4329,0.373,0.373,0.373,0.3708,0.3142,0.2882,1.8247,1.8076,1.7989,1.7615,1.6727,1.5752,0.0,0.0,1.3906,1.4997,1.5411,1.6114,1.7725,1.8008,1.7906,0.0,0.0,0.0,0.0,0.0,0.0,0.0,0.0,0.0,0.0,0.0,0.0,0.0,0.0,0.0,0.0,1.3526,1.2371,1.1163,1.0064,0.8995,0.8006,0.7516,0.7645,0.8388,0.9011,0.9434,0.969,0.9434,0.885,0.0,0.0,0.0,0.0,0.7751,0.7982,0.8157,0.8063,0.8023,0.8023,0.8023,0.8023,0.8103,0.8619,0.8804,0.8804,0.8804,0.8804,0.8831,0.9035,0.8956,0.8831,0.9035,0.971,1.0389,1.0389,1.0737,1.1091,1.1091,1.0939,1.0662,1.0093,0.9824,0.9391,0.8384,0.7973,0.7613,0.7198,0.6974,0.698,0.7413,0.7203,0.7113,0.7453,0.6959,0.6548,0.6441,0.5444,0.4728,0.4541,0.4263,0.4046,0.39,0.403,0.41,0.41,0.4461,0.4482,0.41,0.4896,0.5087,0.4674,0.4674,0.4674,0.4648,0.4272,0.41,1.7864,1.778,1.7213,1.7206,1.6321,1.5251,0.0,0.0,1.469,1.5132,1.593,1.6888,1.7828,1.8008,1.7681,1.6784,0.0,0.0,0.0,0.0,0.0,0.0,0.0,0.0,0.0,0.0,0.0,0.0,0.0,0.0,0.0,0.0,1.2854,1.1906,1.0916,1.0166,0.9695,0.8671,0.8555,0.9274,0.9306,0.9754,1.0561,0.969,0.0,0.0,0.0,0.0,0.0,0.7907,0.8135,0.8785,0.8785,0.8778,0.8778,0.8778,0.8778,0.8778,0.8804,0.8804,0.8804,0.8804,0.8804,0.8936,0.9588,0.9335,0.8929,0.9614,1.0737,1.1789,1.1789,1.1789,1.1789,1.1789,1.1291,1.0722,1.044,0.9866,0.9409,0.9385,0.8856,0.8464,0.8725,0.8557,0.837,0.8395,0.8092,0.7792,0.7531,0.7484,0.7348,0.7033,0.6492,0.5937,0.5346,0.5281,0.5281,0.5281,0.5281,0.5286,0.5286,0.5281,0.5281,0.5286,0.5303,0.5303,0.5281,0.5281,0.5281,0.5281,0.5281,0.5286,1.7412,1.7175,1.6593,1.6373,1.5747,1.5075,1.4653,0.0,1.5218,1.6017,1.6384,1.6888,1.7828,1.8008,1.7809,1.724,1.7644,0.0,0.0,0.0,0.0,0.0,0.0,0.0,0.0,0.0,0.0,0.0,0.0,0.0,0.0,0.0,1.2487,1.1598,1.0501,0.9848,0.9689,0.9211,0.9058,0.9306,0.9913,1.0333,1.0586,1.0068,0.0,0.0,0.0,0.0,0.0,0.8498,0.8593,0.8804,0.8804,0.8804,0.8804,0.8804,0.8804,0.8804,0.8804,0.8804,0.8804,0.8804,0.9113,0.951,0.9736,0.9666,0.971,1.0838,1.1466,1.1922,1.2427,1.2559,1.2559,1.2559,1.2387,1.2061,1.149,1.1184,1.0772,0.986,0.9493,0.9247,0.887,0.8731,0.8671,0.8671,0.8424,0.8221,0.812,0.7745,0.7606,0.786,0.7205,0.6513,0.5959,0.5545,0.5303,0.5303,0.5303,0.5303,0.5303,0.5696,0.5723,0.5308,0.6076,0.6273,0.5916,0.5916,0.5701,0.5303,0.5303,0.5524,0.0,1.7147,1.6548,1.6335,1.5868,0.0,0.0,0.0,1.5904,1.6472,1.6897,1.7273,1.7692,1.79,1.7678,1.675,1.7384,0.0,0.0,0.0,0.0,0.0,0.0,0.0,0.0,0.0,0.0,0.0,0.0,0.0,0.0,0.0,1.2405,1.1404,1.0593,1.0089,0.9853,0.9686,0.955,0.9451,1.0006,1.0258,1.0251,0.0,0.0,0.0,0.0,0.0,0.0,0.8851,0.8804,0.8804,0.8804,0.8804,0.8804,0.8804,0.8804,0.8804,0.8804,0.8804,0.8804,0.8804,0.9413,1.0218,1.0491,1.0534,1.0745,1.1566,1.1996,1.232,1.2774,1.2905,1.2905,1.2905,1.2905,1.2774,1.232,1.1996,1.1566,1.0712,1.0338,0.9969,0.9283,0.9185,0.908,0.8831,0.8877,0.8889,0.8795,0.8668,0.8618,0.8679,0.8197,0.7666,0.7196,0.6395,0.5947,0.5947,0.5947,0.5947,0.5947,0.6301,0.6322,0.5947,0.6634,0.6831,0.6498,0.6732,0.6761,0.6588,0.6588,0.6784,0.0,1.7504,0.0,0.0,0.0,0.0,0.0,0.0,0.0,1.6671,1.7335,1.7842,1.7422,1.7656,1.736,1.5638,1.6812,0.0,0.0,0.0,0.0,0.0,0.0,0.0,0.0,0.0,0.0,0.0,0.0,0.0,0.0,0.0,0.0,1.1338,1.1052,1.0641,1.0094,1.0087,0.9953,0.9715,0.9715,0.9715,0.9715,0.0,0.0,0.0,0.0,0.0,0.0,0.8891,0.8804,0.8804,0.8804,0.8804,0.8804,0.8804,0.8804,0.8804,0.8804,0.8804,0.8804,0.8903,0.9814,1.099,1.1665,1.1888,1.1888,1.1888,1.2369,1.2905,1.2905,1.2905,1.2905,1.2905,1.2905,1.2905,1.2905,1.2369,1.1864,1.1814,1.1291,1.0661,0.9994,0.984,0.9614,0.9035,0.9439,0.9727,0.9526,1.0044,1.0146,0.9505,0.9391,0.9181,0.8823,0.7759,0.7126,0.7126,0.7126,0.7126,0.7126,0.7126,0.7126,0.7126,0.7126,0.7126,0.7126,0.7676,0.8214,0.8695,0.8695,0.8695,1.7757,0.0,1.6676,1.6676,1.6545,1.6448,0.0,0.0,0.0,0.0,0.0,0.0,0.0,1.6931,1.6782,1.6042,1.6815,0.0,0.0,0.0,0.0,0.0,0.0,0.0,0.0,0.0,0.0,0.0,0.0,0.0,0.0,0.0,0.0,1.1331,1.0469,0.9927,0.9786,0.9786,0.9753,0.9715,0.9715,0.9715,0.9708,0.0,0.0,0.0,0.0,0.0,0.8878,0.8838,0.8804,0.8804,0.8804,0.8804,0.8804,0.8804,0.8804,0.8804,0.8804,0.8804,0.8962,0.9987,1.0889,1.169,1.2427,1.2632,1.2632,1.2632,1.2774,1.2905,1.2905,1.2905,1.2905,1.2905,1.2905,1.2905,1.2905,1.2774,1.2476,1.1922,1.1665,1.1366,1.0686,1.0141,0.9917,1.0287,1.0038,0.9964,1.0404,1.0434,1.0481,1.0722,1.0169,0.9755,0.9768,0.8865,0.83,0.83,0.83,0.83,0.83,0.83,0.83,0.83,0.83,0.83,0.83,0.8431,0.8574,0.8695,0.8695,0.8695,1.7862,1.7647,1.7242,1.7242,1.7242,1.7204,1.7017,0.0,0.0,0.0,0.0,0.0,0.0,0.0,0.0,0.0,0.0,0.0,0.0,0.0,0.0,0.0,0.0,0.0,0.0,0.0,0.0,0.0,0.0,0.0,0.0,0.0,0.0,0.0,1.0468,0.9667,0.9479,0.9479,0.9412,0.9279,0.9279,0.9279,0.9272,0.0,0.0,0.0,0.0,0.0,0.8804,0.8804,0.8804,0.8804,0.8804,0.8804,0.8804,0.8804,0.8982,0.9263,0.9263,0.9465,0.9891,1.0914,1.1491,1.1947,1.2691,1.2905,1.2905,1.2905,1.2905,1.2905,1.2905,1.2905,1.2905,1.2905,1.2905,1.2968,1.3238,1.3113,1.2861,1.273,1.2496,1.208,1.1366,1.0965,1.0737,1.0788,1.0745,1.0855,1.1216,1.1423,1.1582,1.1659,1.1251,1.083,1.0489,1.0011,0.9424,0.8753,0.8695,0.8695,0.8695,0.8695,0.8695,0.8695,0.8695,0.8817,0.9059,0.9059,0.9199,0.9439,0.9439,0.9439,1.7832,1.791,1.8008,1.8008,1.8008,1.79,1.748,0.0,0.0,0.0,0.0,0.0,0.0,0.0,0.0,0.0,0.0,0.0,0.0,0.0,0.0,0.0,0.0,0.0,0.0,0.0,0.0,0.0,0.0,0.0,0.0,0.0,0.0,0.0,1.0735,0.964,0.9302,0.9199,0.9024,0.8804,0.8804,0.8804,0.8804,0.8804,0.0,0.0,0.0,0.0,0.8804,0.8804,0.8804,0.8804,0.891,0.8956,0.8956,0.9061,0.9465,0.9961,0.9961,1.0389,1.104,1.1616,1.1888,1.208,1.2715,1.2905,1.2905,1.2905,1.2905,1.2905,1.2905,1.2905,1.2929,1.3017,1.3041,1.32,1.3802,1.3467,1.32,1.3708,1.331,1.2691,1.208,1.1864,1.1641,1.12,1.1509,1.1841,1.1947,1.2501,1.2744,1.234,1.2311,1.2015,1.1298,1.124,1.0673,0.9376,0.9065,0.8938,0.8938,0.901,0.9019,0.8938,0.901,0.927,0.9726,0.9805,1.0079,1.0525,1.0525,1.0525,1.6999,1.7428,1.8008,1.8008,1.8008,1.79,1.748,0.0,0.0,0.0,0.0,0.0,0.0,0.0,0.0,0.0,0.0,0.0,0.0,0.0,0.0,0.0,0.0,0.0,0.0,0.0,0.0,0.0,0.0,0.0,0.0,0.0,0.0,0.0,0.0,0.9758,0.9713,0.9149,0.8851,0.8804,0.8804,0.8804,0.8804,0.8804,0.8804,0.0,0.0,0.8804,0.8804,0.8804,0.8804,0.8857,0.9413,0.964,0.971,1.0287,1.0568,1.0644,1.0644,1.1091,1.1665,1.1765,1.2212,1.274,1.2881,1.2905,1.2905,1.2905,1.2905,1.2905,1.2905,1.2905,1.3041,1.3552,1.3661,1.3826,1.4422,1.4084,1.3684,1.3768,1.331,1.2847,1.274,1.2212,1.1972,1.251,1.2138,1.203,1.2642,1.2832,1.2876,1.2807,1.2783,1.2772,1.2753,1.2745,1.2541,1.2034,1.0774,1.0059,1.0059,1.0447,1.0466,1.0059,1.0437,1.0686,1.0762,1.1226,1.1486,1.1571,1.1571,1.1571,1.6755,1.729,1.8046,1.8675,1.9155,1.9277,1.8273,0.0,0.0,0.0,0.0,0.0,0.0,0.0,0.0,0.0,0.0,0.0,0.0,0.0,0.0,0.0,0.0,0.0,0.0,0.0,0.0,0.0,0.0,0.0,0.0,0.0,0.0,0.0,0.0,1.072,1.0338,0.9666,0.9159,0.8804,0.8804,0.8804,0.8804,0.8804,0.8804,0.8804,0.0,0.9008,0.9309,0.8962,0.9237,0.9865,0.9814,1.0012,1.0415,1.1091,1.1341,1.1391,1.1792,1.2147,1.2393,1.2393,1.2608,1.2905,1.2905,1.2905,1.2905,1.2905,1.2905,1.2905,1.2905,1.3152,1.3467,1.3732,1.405,1.4445,1.505,1.4457,1.4003,1.4664,1.3766,1.2992,1.3334,1.2832,1.2501,1.2856,1.2608,1.2535,1.2856,1.3176,1.3396,1.3396,1.3681,1.3809,1.3663,1.3641,1.3343,1.2648,1.1665,1.1105,1.1105,1.1038,1.1038,1.1105,1.1038,1.1151,1.1431,1.1682,1.1792,1.1792,1.1792,1.1927,1.6424,1.7071,1.7978,1.8775,0.0,2.0172,1.9469,0.0,0.0,0.0,0.0,0.0,0.0,0.0,0.0,0.0,0.0,0.0,0.0,0.0,0.0,0.0,0.0,0.0,0.0,0.0,0.0,0.0,0.0,0.0,0.0,0.0,0.0,0.0,0.0,0.0,1.1049,1.0364,0.9614,0.8804,0.8804,0.8804,0.8804,0.8804,0.8804,0.8804,0.8804,0.9185,0.9762,0.9237,0.9736,1.0762,1.0415,1.0695,1.135,1.1882,1.2055,1.2138,1.2691,1.2905,1.2905,1.2905,1.2905,1.2905,1.2905,1.2905,1.2929,1.3065,1.3104,1.3104,1.3104,1.3552,1.405,1.4179,1.4572,1.5085,1.5688,1.4971,1.4503,1.5432,1.4376,1.3478,1.3944,1.3515,1.3152,1.3296,1.32,1.3152,1.3296,1.3718,1.4003,1.4003,1.4422,1.462,1.4468,1.4357,1.3967,1.3198,1.2503,1.2029,1.1811,1.1505,1.1486,1.1792,1.1505,1.156,1.1957,1.218,1.2294,1.2294,1.2401,1.2607,1.5615,1.6618,1.7738,1.7453,1.8218,0.0,2.1034,0.0,0.0,0.0,0.0,0.0,0.0,0.0,0.0,0.0,0.0,0.0,0.0,0.0,0.0,0.0,0.0,0.0,0.0,0.0,0.0,0.0,0.0,0.0,0.0,0.0,0.0,0.0,0.0,1.1774,1.1726,1.1049,1.009,0.8804,0.8804,0.8804,0.8804,0.8804,0.8804,0.8804,0.8804,0.9185,0.9788,0.9736,1.0141,1.0864,1.1433,1.2089,1.2749,1.2798,1.2822,1.2832,1.2881,1.2905,1.2905,1.2905,1.2905,1.2905,1.2905,1.2905,1.3017,1.3576,1.3732,1.3732,1.3732,1.4167,1.4789,1.5343,1.5499,1.571,1.6303,1.5942,1.5499,1.5588,1.5028,1.4583,1.4629,1.412,1.3944,1.4502,1.4097,1.3944,1.4502,1.4606,1.4629,1.4629,1.4675,1.4915,1.5452,1.5086,1.4812,1.4737,1.3702,1.2703,1.1847,1.2174,1.221,1.1811,1.2192,1.2407,1.2443,1.3319,1.3756,1.3756,1.4136,1.4328,1.553,1.6655,1.7942,1.8549,0.0,0.0,0.0,0.0,0.0,0.0,0.0,0.0,0.0,0.0,0.0,0.0,0.0,0.0,0.0,0.0,0.0,0.0,0.0,0.0,0.0,0.0,0.0,0.0,0.0,0.0,0.0,0.0,0.0,0.0,0.0,1.227,1.1807,1.1541,1.0965,1.0038,0.9614,0.9211,0.8804,0.8804,0.8804,0.8804,0.8804,0.9413,1.0389,0.9961,1.0703,1.2132,1.2378,1.2642,1.2905,1.2905,1.2905,1.2905,1.2905,1.2905,1.2905,1.2905,1.3152,1.3457,1.3457,1.3718,1.4061,1.4294,1.4618,1.4835,1.4468,1.4812,1.532,1.5543,1.5886,1.6216,1.6445,1.603,1.5698,1.6095,1.5377,1.4812,1.5208,1.4755,1.4445,1.4675,1.4514,1.4445,1.4675,1.5039,1.5253,1.5253,1.5599,1.5898,1.6139,1.5391,1.4896,1.4896,1.3835,1.303,1.2685,1.2561,1.2561,1.2668,1.2561,1.2632,1.2943,1.3585,1.3901,1.3917,1.431,1.4755,1.5419,1.6639,1.804,0.0,0.0,0.0,0.0,0.0,0.0,0.0,0.0,0.0,0.0,0.0,0.0,0.0,0.0,0.0,0.0,0.0,0.0,0.0,0.0,0.0,0.0,0.0,0.0,0.0,0.0,0.0,0.0,0.0,0.0,0.0,0.0,0.0,1.1935,1.2064,1.1798,1.1116,1.044,0.9762,0.9113,0.891,0.8804,0.8804,0.8804,0.9562,1.0762,1.0287,1.1217,1.2905,1.2905,1.2905,1.2905,1.2905,1.2905,1.2929,1.3128,1.3176,1.3224,1.3406,1.3742,1.4073,1.4073,1.4376,1.4744,1.4926,1.5276,1.5543,1.5332,1.5577,1.5886,1.5886,1.6194,1.65,1.65,1.6173,1.6008,1.6423,1.5832,1.5399,1.5798,1.5365,1.5039,1.5242,1.5107,1.5062,1.5242,1.5786,1.6198,1.6357,1.6561,1.6692,1.6692,1.5666,1.502,1.502,1.4145,1.348,1.3215,1.316,1.3216,1.3425,1.3109,1.316,1.3615,1.3934,1.4149,1.4294,1.4705,1.5358,1.5195,1.6472,1.7904,0.0,0.0,0.0,0.0,0.0,0.0,0.0,0.0,0.0,0.0,0.0,0.0,0.0,0.0,0.0,0.0,0.0,0.0,0.0,0.0,0.0,0.0,0.0,0.0,0.0,0.0,0.0,0.0,0.0,0.0,0.0,0.0,0.0,1.2203,1.2666,1.2525,1.1789,1.1141,1.0466,0.9788,0.9113,0.8804,0.8804,0.8804,0.9562,1.0788,1.0813,1.1642,1.2905,1.2905,1.2905,1.2905,1.2905,1.2905,1.2992,1.36,1.3815,1.3909,1.4514,1.4698,1.4698,1.4698,1.4698,1.4835,1.5432,1.561,1.5742,1.6324,1.65,1.65,1.65,1.65,1.65,1.65,1.65,1.65,1.65,1.65,1.65,1.65,1.6008,1.582,1.6402,1.5986,1.582,1.6423,1.6972,1.7504,1.8046,1.7496,1.71,1.71,1.5984,1.5298,1.5298,1.48,1.4117,1.325,1.4035,1.431,1.3917,1.3917,1.41,1.4501,1.4501,1.4705,1.5119,1.558,1.639,1.525,1.6331,0.0,0.0,0.0,0.0,0.0,0.0,0.0,0.0,0.0,0.0,0.0,0.0,0.0,0.0,0.0,0.0,0.0,0.0,0.0,0.0,0.0,0.0,0.0,0.0,0.0,0.0,0.0,0.0,0.0,0.0,0.0,0.0,0.0,0.0,1.2203,1.2666,1.2798,1.2559,1.1857,1.0914,0.9788,0.9113,0.8804,0.8804,0.8804,0.9562,1.0872,1.1866,1.252,1.2905,1.2905,1.2905,1.2954,1.3372,1.3529,1.3624,1.4213,1.4422,1.4468,1.4629,1.4994,1.532,1.532,1.5622,1.5998,1.6173,1.6238,1.6259,1.6445,1.65,1.65,1.65,1.65,1.65,1.65,1.65,1.65,1.65,1.65,1.65,1.65,1.6358,1.6281,1.6466,1.6358,1.642,1.6993,1.7524,1.7927,1.8086,1.7496,1.71,1.71,1.5984,1.5298,1.5298,1.5057,1.4674,1.4133,1.4358,1.4438,1.4326,1.4326,1.4374,1.4501,1.4783,1.4968,1.5134,1.6365,1.7219,1.5377,0.0,0.0,0.0,0.0,0.0,0.0,0.0,0.0,0.0,0.0,0.0,0.0,0.0,0.0,0.0,0.0,0.0,0.0,0.0,0.0,0.0,0.0,0.0,0.0,0.0,0.0,0.0,0.0,0.0,0.0,0.0,0.0,0.0,0.0,0.0,1.1963,1.2402,1.2715,1.2881,1.2153,1.1391,1.0568,0.9614,0.9185,0.9211,0.9491,1.0038,1.0914,1.2314,1.2905,1.2905,1.2905,1.2905,1.2968,1.3576,1.3792,1.3909,1.4766,1.505,1.5107,1.5344,1.5666,1.5952,1.5952,1.6216,1.65,1.65,1.65,1.65,1.65,1.65,1.65,1.65,1.65,1.65,1.65,1.65,1.65,1.65,1.65,1.65,1.65,1.65,1.65,1.65,1.668,1.7097,1.7847,1.8224,1.8496,1.8708,1.79,1.7338,1.7338,1.6218,1.5606,1.5831,1.5787,1.5748,1.5773,1.5285,1.4922,1.4737,1.4737,1.483,1.5028,1.5333,1.5679,1.604,1.7238,1.823,1.5551,0.0,0.0,0.0,0.0,0.0,0.0,0.0,0.0,0.0,0.0,0.0,0.0,0.0,0.0,0.0,0.0,0.0,0.0,0.0,0.0,0.0,0.0,0.0,0.0,0.0,0.0,0.0,0.0,0.0,0.0,0.0,0.0,0.0,0.0,0.0,1.1662,1.2025,1.2451,0.0,1.2212,1.1888,1.1848,1.044,0.9788,0.984,1.0559,1.0889,1.099,1.2338,1.2905,1.2905,1.2905,1.292,1.3065,1.3671,1.3909,1.4133,1.5286,1.5676,1.5776,1.6315,1.65,1.65,1.65,1.65,1.65,1.65,1.65,1.65,1.65,1.65,1.65,1.65,1.65,1.65,1.65,1.65,1.6522,1.6552,1.6573,1.6595,1.6637,1.6616,1.6573,1.6573,1.7076,1.7807,1.8765,1.8949,1.914,1.9564,1.8446,1.77,1.7672,1.6578,1.6129,1.6728,1.6787,1.707,1.7667,1.6518,1.5713,1.5338,1.5311,1.5521,1.5964,1.6243,1.6742,1.7501,1.8249,1.9313,0.0,1.6575,0.0,0.0,0.0,0.0,0.0,0.0,0.0,0.0,0.0,0.0,0.0,0.0,0.0,0.0,0.0,0.0,0.0,0.0,0.0,0.0,0.0,0.0,0.0,0.0,0.0,0.0,0.0,0.0,0.0,0.0,0.0,0.0,0.0,1.1964,1.2159,1.2173,1.2451,0.0,1.2749,1.2666,1.2593,1.0677,0.9788,0.9865,1.1065,1.1591,1.1641,1.2535,1.2905,1.2905,1.2905,1.319,1.3684,1.4283,1.4812,1.532,1.6051,1.6315,1.6324,1.6457,1.65,1.65,1.65,1.65,1.65,1.65,1.65,1.65,1.65,1.65,1.65,1.65,1.65,1.65,1.65,1.65,1.6616,1.7055,1.7126,1.725,1.7686,1.7415,1.7126,1.7126,1.7947,1.8631,1.8874,1.9262,1.9373,1.8954,1.8192,1.7617,1.7409,1.6849,1.6713,1.7147,1.7378,1.7548,1.7682,1.6921,1.6711,1.7138,1.6985,1.703,1.728,1.802,1.8306,1.822,1.9523,2.0293,0.0,0.0,0.0,0.0,0.0,0.0,0.0,0.0,0.0,0.0,0.0,0.0,0.0,0.0,0.0,0.0,0.0,0.0,0.0,0.0,0.0,0.0,0.0,0.0,0.0,0.0,0.0,0.0,0.0,0.0,0.0,0.0,0.0,0.0,1.3013,1.238,1.2298,1.2043,1.2236,1.2905,1.2666,1.2498,1.2344,1.125,1.0593,1.0338,1.1366,1.1789,1.1864,1.2608,1.2905,1.2905,1.2905,1.3262,1.3862,1.4468,1.5073,1.5698,1.6281,1.65,1.65,1.65,1.65,1.65,1.65,1.65,1.65,1.65,1.65,1.65,1.65,1.65,1.65,1.65,1.65,1.6573,1.6837,1.668,1.6731,1.7524,1.7483,1.7463,1.8007,1.7867,1.7767,1.8027,1.8535,1.8987,1.9244,1.9699,1.9845,1.9495,1.8745,1.8221,1.8083,1.7256,1.712,1.8005,1.8204,1.8579,1.926,1.8641,1.8192,1.8051,1.8122,1.8224,1.8315,1.9097,1.9465,1.9482,2.0747,2.1418,0.0,0.0,0.0,0.0,0.0,0.0,0.0,0.0,0.0,0.0,0.0,0.0,0.0,0.0,0.0,0.0,0.0,0.0,0.0,0.0,0.0,0.0,0.0,0.0,0.0,0.0,0.0,0.0,0.0,0.0,0.0,0.0,1.5257,1.428,1.3415,1.2742,1.2331,1.1758,1.1878,1.267,1.234,1.2125,1.1996,1.1996,1.1625,1.1015,1.169,1.1996,1.2055,1.2642,1.2905,1.2905,1.3017,1.342,1.4027,1.4629,1.5242,1.582,1.6337,1.65,1.65,1.65,1.65,1.6522,1.6616,1.6637,1.6659,1.6752,1.671,1.6659,1.6752,1.6637,1.6552,1.6731,1.671,1.6752,1.7188,1.7013,1.7076,1.8046,1.7947,1.7827,1.8185,1.8218,1.835,1.8841,1.8881,1.9093,1.9717,2.0089,2.0285,2.0244,1.9561,1.9066,1.901,1.7992,1.7866,1.9106,1.9227,1.979,2.0943,2.0524,1.9855,1.8965,1.9163,1.9291,1.9348,2.0049,2.0562,2.0879,2.1784,2.2411,0.0,0.0,0.0,0.0,0.0,0.0,0.0,0.0,0.0,0.0,0.0,0.0,0.0,0.0,0.0,0.0,0.0,0.0,0.0,0.0,0.0,0.0,0.0,0.0,0.0,0.0,0.0,0.0,0.0,0.0,0.0,1.6283,1.5432,1.4806,1.2967,1.2128,1.2384,1.145,1.1271,1.1783,1.207,1.2381,1.274,1.274,1.2369,1.1715,1.2452,1.274,1.2774,1.2847,1.2905,1.2954,1.3481,1.405,1.4652,1.5253,1.5864,1.6402,1.6466,1.65,1.65,1.65,1.65,1.6595,1.7055,1.7188,1.7291,1.7767,1.7544,1.7312,1.7767,1.7188,1.6731,1.7666,1.7524,1.7209,1.7271,1.7605,1.8066,1.8669,1.9114,1.9244,1.8855,1.8699,1.8685,1.8863,1.8793,1.9086,2.0099,2.0263,2.0232,2.005,1.9934,1.9728,1.9433,1.9511,1.9777,2.026,2.0552,2.0799,2.0991,2.1256,2.1326,2.1182,2.0648,2.0486,2.0719,2.1582,2.1964,2.1902,2.239,2.2805,0.0,0.0,0.0,0.0,0.0,0.0,0.0,0.0,0.0,0.0,0.0,0.0,0.0,0.0,0.0,0.0,0.0,0.0,0.0,0.0,0.0,0.0,0.0,0.0,0.0,0.0,0.0,0.0,0.0,0.0,1.7338,1.6279,1.5322,1.4469,1.3211,1.2488,1.2402,1.1711,1.1437,1.1606,1.2256,1.2695,1.2905,1.2905,1.2715,1.2427,1.2774,1.2905,1.2905,1.2905,1.2905,1.2968,1.3552,1.4167,1.4766,1.5387,1.5986,1.65,1.65,1.65,1.6552,1.6858,1.6951,1.7055,1.7585,1.7747,1.7807,1.8027,1.7927,1.7807,1.8046,1.7747,1.7524,1.7987,1.8165,1.8204,1.8204,1.8165,1.8263,1.8798,1.9332,1.9621,1.9387,1.931,1.9275,1.9343,1.9479,1.9769,2.0234,2.0716,2.0989,2.0915,2.0761,2.0611,2.0472,2.0163,2.0268,2.0849,2.1029,2.1306,2.172,2.1901,2.1988,2.1988,2.1699,2.1611,2.1736,2.2251,2.2493,2.2438,2.3003,2.3346,0.0,0.0,0.0,0.0,0.0,0.0,0.0,0.0,0.0,0.0,0.0,0.0,0.0,0.0,0.0,0.0,0.0,0.0,0.0,0.0,0.0,0.0,0.0,0.0,0.0,0.0,0.0,0.0,0.0,0.0,1.7552,1.6491,1.5414,1.433,1.3548,1.2915,1.2427,1.1946,1.1726,1.176,1.2402,1.2773,1.2905,1.3065,1.3128,1.3128,1.2978,1.2992,1.3128,1.3128,1.3224,1.343,1.4027,1.4526,1.4994,1.5622,1.6117,1.65,1.65,1.6595,1.6774,1.7167,1.7394,1.7605,1.8145,1.8302,1.8341,1.8477,1.8419,1.8341,1.8477,1.8302,1.8185,1.8438,1.8708,1.8949,1.9062,1.8798,1.8612,1.9024,1.9424,1.9708,1.9708,1.9665,1.9675,1.9841,2.0056,2.0313,2.0601,2.1197,2.1658,2.1764,2.1603,2.1478,2.1478,2.0927,2.0842,2.1444,2.1478,2.1732,2.2279,2.2296,2.2296,2.2296,2.2377,2.2398,2.2398,2.2599,2.2797,2.2972,2.3477,2.3753,0.0,0.0,0.0,0.0,0.0,0.0,0.0,0.0,0.0,0.0,0.0,0.0,0.0,0.0,0.0,0.0,0.0,0.0,0.0,0.0,0.0,0.0,0.0,0.0,0.0,0.0,0.0,0.0,0.0,0.0,1.809,1.704,1.5977,1.4878,1.3842,1.3025,1.249,1.1979,1.1869,1.2174,1.2213,1.248,1.2929,1.3481,1.3755,1.3732,1.3152,1.3214,1.3755,1.3755,1.4097,1.4675,1.5276,1.5543,1.5632,1.6238,1.6466,1.65,1.65,1.6837,1.725,1.7291,1.7646,1.8165,1.8688,1.8855,1.8968,1.946,1.9244,1.8987,1.9479,1.8855,1.8361,1.9369,1.9244,1.9043,1.9548,1.9639,1.9621,1.9639,1.969,1.9708,1.9708,1.9531,1.9617,2.0187,2.013,2.0377,2.1409,2.1567,2.1779,2.2209,2.2248,2.2229,2.2229,2.2195,2.2195,2.2229,2.2229,2.2245,2.2296,2.2296,2.2296,2.2296,2.255,2.2669,2.2669,2.2695,2.3033,2.366,2.3682,2.3876,0.0,0.0,0.0,0.0,0.0,0.0,0.0,0.0,0.0,0.0,0.0,0.0,0.0,0.0,0.0,0.0,0.0,0.0,0.0,0.0,0.0,0.0,0.0,0.0,0.0,0.0,0.0,0.0,0.0,0.0,1.7635,1.6898,1.5997,1.4928,1.4194,1.3551,1.3026,1.3161,1.3292,1.342,1.3286,1.3515,1.4048,1.3873,1.4003,1.4376,1.4154,1.4177,1.4376,1.4376,1.4491,1.4766,1.5365,1.561,1.5676,1.6281,1.65,1.6552,1.69,1.7126,1.7415,1.8106,1.8458,1.8708,1.9244,1.9406,1.9442,1.9639,1.9566,1.946,1.9639,1.9406,1.9225,1.9603,1.9548,1.946,1.9657,1.9708,1.9708,1.9708,1.9708,1.9782,2.0052,2.0027,2.0151,2.0667,2.0908,2.1182,2.1549,2.1853,2.2106,2.2282,2.2296,2.2296,2.2296,2.2296,2.2296,2.2296,2.2296,2.2296,2.2296,2.2296,2.2296,2.2296,2.2563,2.2708,2.2708,2.3129,2.3477,2.3703,2.3917,2.4084,0.0,0.0,0.0,0.0,0.0,0.0,0.0,0.0,0.0,0.0,0.0,0.0,0.0,0.0,0.0,0.0,0.0,0.0,0.0,0.0,0.0,0.0,0.0,0.0,0.0,0.0,0.0,0.0,0.0,0.0,1.7602,1.689,1.6097,1.5205,1.4651,1.4186,1.3816,1.4162,1.4332,1.4305,1.3978,1.413,1.4698,1.4303,1.4339,1.4743,1.515,1.5197,1.4994,1.4994,1.513,1.5332,1.5754,1.5908,1.5964,1.6358,1.65,1.6573,1.7118,1.7435,1.7727,1.8612,1.9024,1.9244,1.9584,1.9708,1.9708,1.9708,1.9708,1.9708,1.9708,1.9708,1.9708,1.9708,1.98,1.9909,1.9909,1.98,1.9708,1.9708,1.9708,1.9836,2.0229,2.0433,2.0682,2.1134,2.1568,2.1823,2.1823,2.2106,2.2296,2.2296,2.2374,2.2422,2.2422,2.2422,2.2422,2.2422,2.2422,2.2422,2.2422,2.2544,2.2598,2.2598,2.289,2.3033,2.3033,2.3471,2.3764,2.3858,2.4163,2.4348,0.0,0.0,0.0,0.0,0.0,0.0,0.0,0.0,0.0,0.0,0.0,0.0,0.0,0.0,0.0,0.0,0.0,0.0,0.0,0.0,0.0,0.0,0.0,0.0,0.0,0.0,0.0,0.0,0.0,1.8106,1.8106,1.7076,1.6237,1.5718,1.5211,1.4908,1.4829,1.4853,1.4821,1.4744,1.4216,1.4239,1.4755,1.4798,1.4832,1.491,1.6028,1.6173,1.5632,1.5632,1.5974,1.65,1.65,1.65,1.65,1.65,1.6522,1.6595,1.7126,1.7666,1.8224,1.8746,1.9281,1.9708,1.9711,1.9711,1.9711,1.9729,1.9744,1.9711,1.9708,1.9708,1.9711,1.9711,2.0017,2.0297,2.0314,2.0017,1.9744,1.9744,1.9744,1.9871,2.0263,2.0715,2.115,2.1552,2.2003,2.2296,2.2296,2.2296,2.2296,2.2296,2.2537,2.2708,2.2708,2.2708,2.2708,2.2708,2.2708,2.2708,2.2708,2.3021,2.32,2.32,2.3533,2.3703,2.3703,2.3703,2.3896,2.4209,2.4419,2.4607,0.9714,0.0,0.0,0.0,0.0,0.0,0.0,0.0,0.0,0.0,0.0,0.0,0.0,0.0,0.0,0.0,0.0,0.0,0.0,0.0,0.0,0.0,0.0,0.0,0.0,0.0,0.0,0.0,1.8708,1.8106,1.8106,1.7076,1.6237,1.5718,1.5932,1.5861,1.5447,1.583,1.6016,1.5986,1.5413,1.5435,1.5986,1.5566,1.5615,1.6061,1.6361,1.6402,1.6238,1.6238,1.6358,1.65,1.65,1.65,1.65,1.65,1.6752,1.7146,1.7686,1.8243,1.8765,1.9299,1.9584,1.9747,2.0052,2.0141,2.021,2.0549,2.0398,2.007,1.9782,1.9927,2.0141,2.0141,2.0212,2.0399,2.0732,2.0715,2.0632,2.0632,2.0632,2.0764,2.1165,2.1353,2.1583,2.2032,2.2209,2.2296,2.2296,2.2296,2.2296,2.2296,2.2537,2.2708,2.2708,2.2923,2.296,2.2721,2.2935,2.296,2.2708,2.3021,2.32,2.32,2.3533,2.3703,2.3703,2.3937,2.4182,2.4409,2.4623,2.4746,0.0,0.0,0.0,0.0,0.0,0.0,0.0,1.8068,0.0,0.0,0.0,0.0,0.0,0.0,0.0,0.0,0.0,0.0,0.0,0.0,0.0,0.0,0.0,0.0,0.0,0.0,0.0,0.0,1.8912,1.8243,1.7787,1.6951,1.635,1.6045,1.6337,1.6337,1.6045,1.6337,1.65,1.6488,1.5917,1.5951,1.6488,1.5905,1.5828,1.6183,1.64,1.6362,1.6195,1.6663,1.6689,1.65,1.65,1.65,1.65,1.65,1.6837,1.7394,1.7907,1.8458,1.8987,1.953,1.9708,1.9782,2.0193,2.0297,2.0399,2.0862,2.0813,2.0549,2.0311,2.0414,2.0583,2.0583,2.0732,2.0927,2.1197,2.14,2.1431,2.1055,2.0991,2.1118,2.1521,2.1597,2.1764,2.2223,2.2296,2.2296,2.2296,2.2296,2.2296,2.2296,2.2669,2.291,2.291,2.323,2.3335,2.3129,2.3311,2.3323,2.3129,2.3437,2.3628,2.3628,2.3806,2.3949,2.4022,2.4229,2.4469,2.4715,2.483,2.4936,0.0,0.0,0.0,0.0,0.0,0.0,1.5533,1.6807,1.8013,0.0,0.0,0.0,0.0,0.0,0.0,0.0,0.0,0.0,0.0,0.0,0.0,0.0,0.0,0.0,0.0,0.0,2.0193,1.9729,1.9151,1.838,1.7353,1.6795,1.65,1.65,1.65,1.65,1.65,1.65,1.65,1.6488,1.6019,1.6045,1.6475,1.6007,1.5781,1.5819,1.6287,1.6254,1.5962,1.6909,1.6972,1.6522,1.6573,1.6552,1.6522,1.6573,1.693,1.7463,1.8007,1.8535,1.9062,1.9548,1.9708,1.9782,2.0244,2.0382,2.0483,2.0943,2.1102,2.1134,2.1039,2.1023,2.1055,2.1055,2.1337,2.1612,2.1673,2.2003,2.2063,2.1291,2.115,2.126,2.1628,2.1673,2.1809,2.2237,2.2296,2.2296,2.2296,2.2296,2.231,2.2335,2.2857,2.323,2.3247,2.3566,2.3735,2.3703,2.3724,2.3735,2.3703,2.4016,2.419,2.419,2.4218,2.4321,2.4537,2.4537,2.4685,2.501,2.5022,2.5135,0.0,0.0,0.0,0.0,0.0,0.0,1.3797,1.5726,1.7289,0.0,0.0,0.0,0.0,0.0,0.0,0.0,0.0,0.0,0.0,0.0,0.0,0.0,0.0,0.0,0.0,0.0,2.0532,1.9747,1.8798,1.7987,1.7333,1.6795,1.65,1.65,1.65,1.65,1.65,1.65,1.65,1.65,1.6387,1.6387,1.65,1.6387,1.6337,1.6337,1.645,1.6701,1.699,1.7197,1.6972,1.6531,1.6972,1.6879,1.6552,1.6972,1.7483,1.8027,1.8554,1.9114,1.9566,1.9672,1.9708,1.9854,2.0632,2.0862,2.0959,2.1368,2.1749,2.1886,2.1182,2.1244,2.1476,2.1476,2.1536,2.1703,2.2092,2.2237,2.2254,2.2077,2.2049,2.2077,2.2152,2.2149,2.2194,2.2282,2.2296,2.2296,2.2296,2.2296,2.2388,2.2599,2.296,2.3311,2.3577,2.3907,2.3986,2.3714,2.3947,2.3986,2.3703,2.4016,2.419,2.419,2.4357,2.4545,2.4746,2.4746,2.4823,2.4991,2.5163,2.5264,0.0,0.0,0.0,0.964,0.0,0.0,0.0,1.3507,1.4568,0.0,0.0,0.0,0.0,0.0,0.0,0.0,0.0,0.0,0.0,0.0,0.0,0.0,0.0,0.0,0.0,0.0,2.0632,1.9764,1.8949,1.8263,1.7727,1.7188,1.6774,1.6522,1.65,1.65,1.65,1.65,1.65,1.65,1.65,1.65,1.6488,1.6233,1.6258,1.6488,1.6233,1.656,1.7333,1.7585,1.7544,1.7333,1.7585,1.7524,1.7333,1.7605,1.8046,1.8535,1.8817,1.9244,1.9708,1.9708,1.9708,1.9856,2.0747,2.1307,2.1691,2.1884,2.212,2.2194,2.1751,2.1796,2.1943,2.1943,2.1943,2.2017,2.2254,2.2296,2.2296,2.2296,2.2296,2.2296,2.2296,2.2296,2.2296,2.2296,2.2296,2.2296,2.2296,2.2412,2.255,2.2682,2.3153,2.3522,2.3682,2.4006,2.4141,2.3966,2.4103,2.4113,2.3966,2.4103,2.4256,2.4339,2.4553,2.4727,2.4897,2.4897,2.4987,2.5152,2.5259,2.5308,0.0,0.0,0.0,0.0,0.0,1.0048,0.0,0.0,0.0,1.2872,0.0,0.0,0.0,0.0,0.0,0.0,0.0,0.0,0.0,0.0,0.0,0.0,0.0,0.0,0.0,0.0,2.0532,1.9747,1.9207,1.8669,1.8145,1.7585,1.7055,1.6522,1.65,1.65,1.65,1.65,1.65,1.65,1.65,1.65,1.6488,1.6149,1.6249,1.6633,1.6322,1.6708,1.7646,1.8086,1.8322,1.84,1.8302,1.8204,1.8125,1.8224,1.8535,1.8912,1.9024,1.935,1.9708,1.9708,1.9818,2.0102,2.0878,2.1676,2.2296,2.2296,2.2296,2.2296,2.2296,2.2296,2.2296,2.2296,2.2296,2.2296,2.2296,2.2296,2.2296,2.2296,2.2296,2.2296,2.2296,2.2296,2.2296,2.2296,2.2296,2.2296,2.2296,2.2523,2.2721,2.2797,2.3346,2.3724,2.3795,2.4036,2.4218,2.4266,2.4218,2.4218,2.4266,2.4266,2.4348,2.4543,2.4734,2.4891,2.5004,2.5034,2.5146,2.5308,2.5308,2.5308,0.0,0.0,0.0,0.0,0.9361,0.0,0.0,0.0,1.0712,1.0342,0.0,0.0,0.0,0.0,0.0,0.0,0.0,0.0,0.0,0.0,0.0,0.0,0.0,0.0,0.0,0.0,0.0,1.9729,1.9207,1.8669,1.8145,1.7585,1.7055,1.6522,1.65,1.65,1.65,1.65,1.65,1.65,1.65,1.65,1.6509,1.6928,1.7143,1.7229,1.7659,1.8174,1.8708,1.8779,1.9095,1.946,1.8987,1.8516,1.8165,1.8631,1.8855,1.8968,1.9442,1.9639,1.9708,1.9708,2.0208,2.0943,2.1384,2.1899,2.2296,2.2296,2.2296,2.2296,2.2296,2.2296,2.2296,2.2296,2.2296,2.2296,2.2296,2.2296,2.2296,2.2296,2.2296,2.2296,2.2296,2.2296,2.2296,2.2296,2.2296,2.2296,2.2296,2.2523,2.2822,2.3105,2.3488,2.3816,2.4113,2.418,2.4275,2.4452,2.4303,2.4275,2.4452,2.4461,2.4551,2.476,2.491,2.4986,2.501,2.5173,2.5274,2.5308,2.5308,2.5308,0.0,0.0,0.0,0.0,0.0,0.0,0.0,0.0,0.8775,0.0,0.0,0.0,0.0,0.0,0.0,0.0,0.0,0.0,0.0,0.0,0.0,0.0,0.0,0.0,0.0,0.0,0.0,0.0,0.0,1.8987,1.8165,1.7887,1.7394,1.6543,1.65,1.65,1.65,1.65,1.65,1.65,1.6816,1.6951,1.698,1.7196,1.7481,1.776,1.7675,1.7904,1.8356,1.8734,1.8987,1.9134,1.9294,1.9225,1.9062,1.9281,1.9369,1.9406,1.9621,1.9708,1.9729,1.9965,2.0633,2.1384,2.1536,2.1928,2.2296,2.2296,2.2296,2.2296,2.2296,2.2296,2.2296,2.2296,2.2296,2.2296,2.2296,2.2296,2.2296,2.2296,2.1955,2.1651,2.1651,2.2023,2.2296,2.2296,2.2296,2.2296,2.2296,2.2708,2.3045,2.3177,2.3671,2.4054,2.418,2.419,2.4284,2.4486,2.4428,2.4461,2.4662,2.467,2.4749,2.4917,2.5096,2.5168,2.5168,2.5264,2.5308,2.5308,2.5308,2.5308,0.8804,0.0,0.0,0.0,0.0,0.0,0.0,0.0,0.0,0.0,0.0,0.0,0.0,0.0,0.0,0.0,0.0,0.0,0.0,0.0,0.0,0.0,0.0,0.0,0.0,0.0,0.0,0.0,0.0,0.0,1.8165,1.8106,1.7605,1.6543,1.65,1.65,1.65,1.6659,1.671,1.6731,1.725,1.7524,1.7511,1.7669,1.7842,1.8023,1.7795,1.7748,1.7882,1.8382,1.8626,1.8747,1.9226,1.9543,1.9708,1.9708,1.9708,1.9708,1.9708,1.9764,1.9962,2.0483,2.107,2.1612,2.1748,2.2032,2.2296,2.2296,2.2296,2.2296,2.2296,2.2296,2.2296,2.2296,2.2296,2.2296,2.2296,2.2296,2.2296,2.2296,2.1919,2.1608,2.1608,2.1884,2.2109,2.2109,2.2357,2.2561,2.2561,2.3007,2.3335,2.3335,2.3847,2.419,2.419,2.419,2.4284,2.4486,2.4599,2.4693,2.4855,2.4855,2.4923,2.5082,2.5219,2.5308,2.5308,2.5308,2.5308,2.5308,2.5308,2.5308,0.0,0.0,0.0,0.8804,0.0,0.0,0.0,0.0,0.6421,0.0,0.0,0.0,0.0,0.0,0.0,0.0,0.0,0.0,0.0,0.0,0.0,0.0,0.0,0.0,0.0,0.0,0.0,0.0,0.0,0.0,1.8165,1.8106,1.7605,1.6543,1.65,1.65,1.65,1.7013,1.7271,1.7271,1.7827,1.8066,1.8086,1.8617,1.8496,1.7917,1.8428,1.8293,1.7711,1.7726,1.8115,1.8702,1.8732,1.9121,1.9708,1.9708,1.9708,1.9708,1.9708,1.9947,2.0417,2.1275,2.1582,2.1688,2.2135,2.2282,2.2296,2.2296,2.2296,2.2296,2.2296,2.2296,2.2296,2.2296,2.2296,2.2296,2.2296,2.2296,2.2296,2.2296,2.2497,2.2647,2.2647,2.2089,2.1621,2.1621,2.2498,2.3165,2.3165,2.3459,2.3682,2.3682,2.3996,2.419,2.419,2.419,2.4284,2.4486,2.4804,2.4992,2.4998,2.4979,2.5088,2.5298,2.5303,2.5308,2.5308,2.5308,2.5308,2.5308,2.5308,2.5308,0.0,0.0,0.8804,0.8804,0.0,0.0,0.0,0.0,0.0,0.0,0.0,0.0,0.0,0.0,0.0,0.0,0.0,0.0,0.0,0.0,0.0,0.0,0.0,0.0,0.0,0.0,0.0,0.0,0.0,0.0,0.0,1.8106,1.7605,1.6543,1.65,1.65,1.65,1.7034,1.7312,1.7312,1.8204,1.8631,1.865,1.9188,1.9306,1.9084,1.8812,1.8311,1.7713,1.7713,1.7833,1.8042,1.8042,1.8732,1.9708,1.9708,1.9708,1.9729,2.0,2.0566,2.1212,2.1506,2.1809,2.2092,2.2237,2.2296,2.2296,2.2296,2.2296,2.2296,2.2296,2.2296,2.2296,2.2296,2.2296,2.2296,2.2296,2.2296,2.2349,2.2541,2.2237,2.2037,2.2253,2.2278,2.2345,2.2623,2.297,2.32,2.32,2.3482,2.3703,2.3703,2.3996,2.419,2.419,2.4435,2.4623,2.4693,2.4885,2.5052,2.5179,2.5077,2.5094,2.5303,2.5308,2.5308,2.5308,2.5308,2.5308,2.5308,2.5308,2.5308,0.8804,0.8804,0.0,0.8804,0.8804,0.0,0.7857,0.0,0.0,0.0,0.0,0.0,0.0,0.0,0.0,0.0,0.0,0.0,0.0,0.9817,0.0,0.0,0.0,0.0,0.0,0.0,0.0,0.0,0.0,0.0,0.0,0.0,1.7605,1.6543,1.65,1.6595,1.6774,1.7333,1.7686,1.7887,1.8746,1.9188,1.9188,1.931,1.9211,1.8957,1.8267,1.7609,1.7011,1.7011,1.728,1.7713,1.7713,1.8371,1.9331,1.9331,1.9604,1.9965,2.0399,2.1007,2.1643,2.1794,2.2046,2.2296,2.2296,2.2296,2.2296,2.2296,2.2296,2.2296,2.2296,2.2296,2.2296,2.2296,2.2374,2.2436,2.2436,2.2531,2.2673,2.2835,2.2581,2.2417,2.262,2.2953,2.3135,2.3008,2.332,2.3555,2.3555,2.3735,2.3886,2.3886,2.4074,2.4228,2.4303,2.4607,2.4814,2.4876,2.5018,2.5163,2.5284,2.5187,2.5163,2.5303,2.5308,2.5308,2.5308,2.5308,2.5308,2.5308,2.5308,2.5308]}]]